[[{"header":{"parameterUnit":"m.s-1","parameterCategory":1,"la1":31.0,"la2":29.5877,"lo1":-88.7671,"lo2":-86.6584,"dx":0.0162,"dy":0.0185,"nx":115,"ny":88,"refTime":"2023-02-04T06:00:00:Z","depth":0,"parameterNumber":2,"parameterNumberName":"U-component_of_WINDS"},"data":[0.0,0.0,0.0,0.0,0.0,0.0,0.0,0.0,0.0,0.0,0.0,0.0,0.0,0.0,0.0,0.0,0.0,0.0,0.0,0.0,0.0,0.0,0.0,0.0,0.0,0.0,0.0,0.0,0.0,0.0,0.0,0.0,0.0,0.0,0.0,0.0,0.0,0.0,0.0,0.0,0.0,0.0,0.0,0.0,0.0,0.0,0.0,0.0,0.0,0.0,0.0,0.0,0.0,0.0,0.0,0.0,0.0,0.0,0.0,0.0,0.0,0.0,0.0,0.0,0.0,0.0,0.0,0.0,0.0,0.0,0.0,0.0,0.0,0.0,0.0,0.0,0.0,0.0,0.0,0.0,0.0,0.0,0.0,0.0,0.0,0.0,0.0,0.0,0.0,0.0,0.0,0.0,0.0,0.0,0.0,0.0,0.0,0.0,0.0,0.0,0.0,0.0,0.0,0.0,0.0,0.0,0.0,0.0,0.0,0.0,0.0,0.0,0.0,0.0,0.0,0.0,0.0,0.0,0.0,0.0,0.0,0.0,0.0,0.0,0.0,0.0,0.0,0.0,0.0,0.0,0.0,0.0,0.0,0.0,0.0,0.0,0.0,0.0,0.0,0.0,0.0,0.0,0.0,0.0,0.0,0.0,0.0,0.0,0.0,0.0,0.0,0.0,0.0,0.0,0.0,0.0,0.0,0.0,0.0,0.0,0.0,0.0,0.0,0.0,0.0,0.0,0.0,0.0,0.0,0.0,0.0,0.0,0.0,0.0,0.0,0.0,0.0,0.0,0.0,0.0,0.0,0.0,0.0,0.0,0.0,0.0,0.0,0.0,0.0,0.0,0.0,0.0,0.0,0.0,0.0,0.0,0.0,0.0,0.0,0.0,0.0,0.0,0.0,0.0,0.0,0.0,0.0,0.0,0.0,0.0,0.0,0.0,0.0,0.0,0.0,0.0,0.0,0.0,0.0,0.0,0.0,0.0,0.0,0.0,0.0,0.0,0.0,0.0,0.0,0.0,0.0,0.0,0.0,0.0,0.0,0.0,0.0,0.0,0.0,0.0,0.0,0.0,0.0,0.0,0.0,0.0,0.0,0.0,0.0,0.0,0.0,0.0,0.0,0.0,0.0,0.0,0.0,0.0,0.0,0.0,0.0,0.0,0.0,0.0,0.0,0.0,0.0,0.0,0.0,0.0,0.0,0.0,0.0,0.0,0.0,0.0,0.0,0.0,0.0,0.0,0.0,0.0,0.0,0.0,0.0,0.0,0.0,0.0,0.0,0.0,0.0,0.0,0.0,0.0,0.0,0.0,0.0,0.0,0.0,0.0,0.0,0.0,0.0,0.0,0.0,0.0,0.0,0.0,0.0,0.0,0.0,0.0,0.0,0.0,0.0,0.0,0.0,0.0,0.0,0.0,0.0,0.0,0.0,0.0,0.0,0.0,0.0,0.0,0.0,0.0,0.0,0.0,0.0,0.0,0.0,0.0,0.0,0.0,0.0,0.0,0.0,0.0,0.0,0.0,0.0,0.0,0.0,0.0,0.0,0.0,0.0,0.0,0.0,0.0,0.0,0.0,0.0,0.0,0.0,0.0,0.0,0.0,0.0,0.0,0.0,0.0,0.0,0.0,0.0,0.0,0.0,0.0,0.0,0.0,0.0,0.0,0.0,0.0,0.0,0.0,0.0,0.0,0.0,0.0,0.0,0.0,0.0,0.0,0.0,0.0,0.0,0.0,0.0,0.0,0.0,0.0,0.0,0.0,0.0,0.0,0.0,0.0,0.0,0.0,0.0,0.0,0.0,0.0,0.0,0.0,0.0,0.0,0.0,0.0,0.0,0.0,0.0,0.0,0.0,0.0,0.0,0.0,0.0,0.0,0.0,0.0,0.0,0.0,0.0,0.0,0.0,0.0,0.0,0.0,0.0,0.0,0.0,0.0,0.0,0.0,0.0,0.0,0.0,0.0,0.0,0.0,0.0,0.0,0.0,0.0,0.0,0.0,0.0,0.0,0.0,0.0,0.0,0.0,0.0,0.0,0.0,0.0,0.0,0.0,0.0,0.0,0.0,0.0,0.0,0.0,0.0,0.0,0.0,0.0,0.0,0.0,0.0,0.0,0.0,0.0,0.0,0.0,0.0,0.0,0.0,0.0,0.0,0.0,0.0,0.0,0.0,0.0,0.0,0.0,0.0,0.0,0.0,0.0,0.0,0.0,0.0,0.0,0.0,0.0,0.0,0.0,0.0,0.0,0.0,0.0,0.0,0.0,0.0,0.0,0.0,0.0,0.0,0.0,0.0,0.0,0.0,0.0,0.0,0.0,0.0,0.0,0.0,0.0,0.0,0.0,0.0,0.0,0.0,0.0,0.0,0.0,0.0,0.0,0.0,0.0,0.0,0.0,0.0,0.0,0.0,0.0,0.0,0.0,0.0,0.0,0.0,0.0,0.0,0.0,0.0,0.0,0.0,0.0,0.0,0.0,0.0,0.0,0.0,0.0,0.0,0.0,0.0,0.0,0.0,0.0,0.0,0.0,0.0,0.0,0.0,0.0,0.0,0.0,0.0,0.0,0.0,0.0,0.0,0.0,0.0,0.0,0.0,0.0,0.0,0.0,0.0,0.0,0.0,0.0,0.0,0.0,0.0,0.0,0.0,0.0,0.0,0.0,0.0,0.0,0.0,0.0,0.0,0.0,0.0,0.0,0.0,0.0,0.0,0.0,0.0,0.0,0.0,0.0,0.0,0.0,0.0,0.0,0.0,0.0,0.0,0.0,0.0,0.0,0.0,0.0,0.0,0.0,0.0,0.0,0.0,0.0,0.0,0.0,0.0,0.0,0.0,0.0,0.0,0.0,0.0,0.0,0.0,0.0,0.0,0.0,0.0,0.0,0.0,0.0,0.0,0.0,0.0,0.0,0.0,0.0,0.0,0.0,0.0,0.0,0.0,0.0,0.0,0.0,0.0,0.0,0.0,0.0,0.0,0.0,0.0,0.0,0.0,0.0,0.0,0.0,0.0,0.0,0.0,0.0,0.0,0.0,0.0,0.0,0.0,0.0,0.0,0.0,0.0,0.0,0.0,0.0,0.0,0.0,0.0,0.0,0.0,0.0,0.0,0.0,0.0,0.0,0.0,0.0,0.0,0.0,0.0,0.0,0.0,0.0,0.0,0.0,0.0,0.0,0.0,0.0,0.0,0.0,0.0,0.0,0.0,0.0,0.0,0.0,0.0,0.0,0.0,0.0,0.0,0.0,0.0,0.0,0.0,0.0,0.0,0.0,0.0,0.0,0.0,0.0,0.0,0.0,0.0,0.0,0.0,0.0,0.0,0.0,0.0,0.0,0.0,0.0,0.0,0.0,0.0,0.0,0.0,0.0,0.0,0.0,0.0,0.0,0.0,0.0,0.0,0.0,0.0,0.0,0.0,0.0,0.0,0.0,0.0,0.0,0.0,0.0,0.0,0.0,0.0,0.0,0.0,0.0,0.0,0.0,0.0,0.0,0.0,0.0,0.0,0.0,0.0,0.0,0.0,0.0,0.0,0.0,0.0,0.0,0.0,0.0,0.0,0.0,0.0,0.0,0.0,0.0,0.0,0.0,0.0,0.0,0.0,0.0,0.0,0.0,0.0,0.0,0.0,0.0,0.0,0.0,0.0,0.0,0.0,0.0,0.0,0.0,0.0,0.0,0.0,0.0,0.0,0.0,0.0,0.0,0.0,0.0,0.0,0.0,0.0,0.0,0.0,0.0,0.0,0.0,0.0,0.0,0.0,0.0,0.0,0.0,0.0,0.0,0.0,0.0,0.0,0.0,0.0,0.0,0.0,0.0,0.0,0.0,0.0,0.0,0.0,0.0,0.0,0.0,0.0,0.0,0.0,0.0,0.0,0.0,0.0,0.0,0.0,0.0,0.0,0.0,0.0,0.0,0.0,0.0,0.0,0.0,0.0,0.0,0.0,0.0,0.0,0.0,0.0,0.0,0.0,0.0,0.0,0.0,0.0,0.0,0.0,0.0,0.0,0.0,0.0,0.0,0.0,0.0,0.0,0.0,0.0,0.0,0.0,0.0,0.0,0.0,0.0,0.0,0.0,0.0,0.0,0.0,0.0,0.0,0.0,0.0,0.0,0.0,0.0,0.0,0.0,0.0,0.0,0.0,0.0,0.0,0.0,0.0,0.0,0.0,0.0,0.0,0.0,0.0,0.0,0.0,0.0,0.0,0.0,0.0,0.0,0.0,0.0,0.0,0.0,0.0,0.0,0.0,0.0,0.0,0.0,0.0,1.3852,0.0,0.0,0.0,0.0,0.0,0.0,0.0,0.0,0.0,0.0,0.0,0.0,0.0,0.0,0.0,0.0,0.0,0.0,0.0,0.0,0.0,0.0,0.0,0.0,0.0,0.0,0.0,0.0,0.0,0.0,0.0,0.0,0.0,0.0,0.0,0.0,0.0,0.0,0.0,0.0,0.0,0.0,0.0,0.0,0.0,0.0,0.0,0.0,0.0,0.0,0.0,0.0,0.0,0.0,0.0,0.0,0.0,0.0,0.0,0.0,0.0,0.0,0.0,0.0,0.0,0.0,0.0,0.0,0.0,0.0,0.0,0.0,0.0,0.0,0.0,0.0,0.0,0.0,0.0,0.0,0.0,0.0,0.0,0.0,0.0,0.0,0.0,0.0,0.0,0.0,0.0,0.0,0.0,0.0,0.0,0.0,0.0,0.0,0.0,0.0,0.0,0.0,0.0,0.0,0.0,0.0,0.0,0.0,0.0,0.0,1.4107,1.4705,1.4516,1.4405,1.4358,0.0,0.0,0.0,0.0,0.0,0.0,0.0,0.0,0.0,0.0,0.0,0.0,0.0,0.0,0.0,0.0,0.0,0.0,0.0,0.0,0.0,0.0,0.0,0.0,0.0,0.0,0.0,0.0,0.0,0.0,0.0,0.0,0.0,0.0,0.0,0.0,0.0,0.0,0.0,0.0,0.0,0.0,0.0,0.0,0.0,0.0,0.0,0.0,0.0,0.0,0.0,0.0,0.0,0.0,0.0,0.0,0.0,0.0,0.0,0.0,0.0,0.0,0.0,0.0,0.0,0.0,0.0,0.0,0.0,0.0,0.0,0.0,0.0,0.0,0.0,0.0,0.0,0.0,0.0,0.0,0.0,0.0,0.0,0.0,0.0,0.0,0.0,0.0,0.0,0.0,0.0,0.0,0.0,0.0,0.0,0.0,0.0,0.0,0.0,0.0,0.0,0.0,0.0,0.0,0.0,0.0,0.0,0.0,0.0,0.0,0.0,0.0,1.5454,1.5172,1.4827,0.0,0.0,0.0,0.0,0.0,0.0,0.0,0.0,0.0,0.0,0.0,0.0,0.0,0.0,0.0,0.0,0.0,0.0,0.0,0.0,0.0,0.0,0.0,0.0,0.0,0.0,0.0,0.0,0.0,0.0,0.0,0.0,0.0,0.0,0.0,0.0,0.0,0.0,0.0,0.0,0.0,0.0,0.0,0.0,0.0,0.0,0.0,0.0,0.0,0.0,0.0,0.0,0.0,0.0,0.0,0.0,0.0,0.0,0.0,0.0,0.0,0.0,0.0,0.0,0.0,0.0,0.0,0.0,0.0,0.0,0.0,0.0,0.0,0.0,0.0,0.0,0.0,0.0,0.0,0.0,0.0,0.0,0.0,0.0,0.0,0.0,0.0,0.0,0.0,0.0,0.0,0.0,0.0,0.0,0.0,0.0,0.0,0.0,0.0,0.0,0.0,0.0,0.0,0.0,0.0,0.0,0.0,0.0,0.0,0.0,1.6026,1.6559,1.6373,0.0,1.5844,0.0,0.0,0.0,0.0,0.0,0.0,0.0,0.0,0.0,0.0,0.0,0.0,0.0,0.0,0.0,0.0,0.0,0.0,0.0,0.0,0.0,0.0,0.0,0.0,0.0,0.0,0.0,0.0,0.0,0.0,0.0,0.0,0.0,0.0,0.0,0.0,0.0,0.0,0.0,0.0,0.0,0.0,0.0,0.0,0.0,0.0,0.0,0.0,0.0,0.0,0.0,0.0,0.0,0.0,0.0,0.0,0.0,0.0,0.0,0.0,0.0,0.0,0.0,0.0,0.0,0.0,0.0,0.0,0.0,0.0,0.0,0.0,0.0,0.0,0.0,0.0,0.0,0.0,0.0,0.0,0.0,0.0,0.0,0.0,0.0,0.0,0.0,0.0,0.0,0.0,0.0,0.0,0.0,0.0,0.0,0.0,0.0,0.0,0.0,0.0,0.0,0.0,0.0,0.0,0.0,0.0,0.0,0.0,0.0,0.0,1.6997,1.7576,1.7127,1.6645,0.0,0.0,0.0,0.0,0.0,0.0,0.0,0.0,0.0,0.0,0.0,0.0,0.0,0.0,0.0,0.0,0.0,0.0,0.0,0.0,0.0,0.0,0.0,0.0,0.0,0.0,0.0,0.0,0.0,0.0,0.0,0.0,0.0,0.0,0.0,0.0,0.0,0.0,0.0,0.0,0.0,0.0,0.0,0.0,0.0,0.0,0.0,0.0,0.0,0.0,0.0,0.0,0.0,0.0,0.0,0.0,0.0,0.0,0.0,0.0,0.0,0.0,0.0,0.0,0.0,0.0,0.0,0.0,0.0,0.0,0.0,0.0,0.0,0.0,0.0,0.0,0.0,0.0,0.0,0.0,0.0,0.0,0.0,0.0,0.0,0.0,0.0,0.0,0.0,0.0,0.0,0.0,0.0,0.0,0.0,0.0,0.0,0.0,0.0,0.0,0.0,0.0,0.0,0.0,0.0,0.0,0.0,0.0,0.0,0.0,1.7699,1.7851,1.8115,1.7579,1.6952,1.6324,0.0,0.0,0.0,0.0,0.0,0.0,0.0,0.0,0.0,0.0,0.0,0.0,0.0,0.0,0.0,0.0,0.0,0.0,0.0,0.0,0.0,0.0,0.0,0.0,0.0,0.0,0.0,0.0,0.0,0.0,0.0,0.0,0.0,0.0,0.0,0.0,0.0,0.0,0.0,0.0,0.0,0.0,0.0,0.0,0.0,0.0,0.0,0.0,0.0,0.0,0.0,0.0,0.0,0.0,0.0,0.0,0.0,0.0,0.0,0.0,0.0,0.0,0.0,0.0,0.0,0.0,0.0,0.0,0.0,0.0,0.0,0.0,0.0,0.0,0.0,0.0,0.0,0.0,0.0,0.0,0.0,0.0,0.0,0.0,0.0,0.0,0.0,0.0,0.0,0.0,0.0,0.0,0.0,0.0,0.0,0.0,0.0,0.0,0.0,0.0,0.0,0.0,0.0,0.0,0.0,0.0,0.0,0.0,1.8608,1.8626,1.8455,1.8111,1.7647,1.7126,0.0,0.0,0.0,0.0,0.0,0.0,0.0,0.0,0.0,0.0,0.0,0.0,0.0,0.0,0.0,0.0,0.0,0.0,0.0,0.0,0.0,0.0,0.0,0.0,0.0,0.0,0.0,0.0,0.0,0.0,0.0,0.0,0.0,0.0,0.0,0.0,0.0,0.0,0.0,0.0,0.0,0.0,0.0,0.0,0.0,0.0,0.0,0.0,0.0,0.0,0.0,0.0,0.0,0.0,0.0,0.0,0.0,0.0,0.0,0.0,0.0,0.0,0.0,0.0,0.0,0.0,0.0,0.0,0.0,0.0,0.0,0.0,0.0,0.0,0.0,0.0,0.0,0.0,0.0,0.0,0.0,0.0,0.0,0.0,0.0,0.0,0.0,0.0,0.0,0.0,0.0,0.0,0.0,0.0,0.0,0.0,0.0,0.0,0.0,0.0,0.0,0.0,0.0,0.0,0.0,0.0,0.0,0.0,0.0,1.8825,1.8698,1.8508,1.8232,1.7738,1.7183,0.0,0.0,0.0,0.0,0.0,0.0,0.0,0.0,0.0,0.0,0.0,0.0,0.0,0.0,0.0,0.0,0.0,0.0,0.0,0.0,0.0,0.0,0.0,0.0,0.0,0.0,0.0,0.0,0.0,0.0,0.0,0.0,0.0,0.0,0.0,0.0,0.0,0.0,0.0,0.0,0.0,0.0,0.0,0.0,0.0,0.0,0.0,0.0,0.0,0.0,0.0,0.0,0.0,0.0,0.0,0.0,0.0,0.0,0.0,0.0,0.0,0.0,0.0,0.0,0.0,0.0,0.0,0.0,0.0,0.0,0.0,0.0,0.0,0.0,0.0,0.0,0.0,0.0,0.0,0.0,0.0,0.0,0.0,0.0,0.0,0.0,0.0,0.0,0.0,0.0,0.0,0.0,0.0,0.0,0.0,0.0,0.0,0.0,0.0,0.0,0.0,0.0,0.0,0.0,0.0,0.0,0.0,0.0,0.0,1.8895,0.0,1.8547,1.829,1.7805,1.7272,0.0,0.0,0.0,0.0,0.0,0.0,0.0,0.0,0.0,0.0,0.0,0.0,0.0,0.0,0.0,0.0,0.0,0.0,0.0,0.0,0.0,0.0,0.0,0.0,0.0,0.0,0.0,0.0,0.0,0.0,0.0,0.0,0.0,0.0,0.0,0.0,0.0,0.0,0.0,0.0,0.0,0.0,0.0,0.0,0.0,0.0,0.0,0.0,0.0,0.0,0.0,0.0,0.0,0.0,0.0,0.0,0.0,0.0,0.0,0.0,0.0,0.0,0.0,0.0,0.0,0.0,0.0,0.0,0.0,0.0,0.0,0.0,0.0,0.0,0.0,0.0,0.0,0.0,0.0,0.0,0.0,0.0,0.0,0.0,0.0,0.0,0.0,0.0,0.0,0.0,0.0,0.0,0.0,0.0,0.0,0.0,0.0,0.0,0.0,0.0,0.0,0.0,0.0,0.0,0.0,0.0,0.0,0.0,1.902,1.8913,1.8843,1.8691,1.8325,1.7895,1.7353,0.0,0.0,0.0,0.0,0.0,0.0,0.0,0.0,0.0,0.0,0.0,0.0,0.0,0.0,0.0,0.0,0.0,0.0,0.0,0.0,0.0,0.0,0.0,0.0,0.0,0.0,0.0,0.0,0.0,0.0,0.0,0.0,0.0,0.0,0.0,0.0,0.0,0.0,0.0,0.0,0.0,0.0,0.0,0.0,0.0,0.0,0.0,0.0,0.0,0.0,0.0,0.0,0.0,0.0,0.0,0.0,0.0,0.0,0.0,0.0,0.0,0.0,0.0,0.0,0.0,0.0,0.0,0.0,0.0,0.0,0.0,0.0,0.0,0.0,0.0,0.0,0.0,0.0,0.0,0.0,0.0,0.0,0.0,0.0,0.0,0.0,0.0,0.0,0.0,0.0,0.0,0.0,0.0,0.0,0.0,0.0,0.0,0.0,0.0,0.0,0.0,0.0,0.0,0.0,0.0,0.0,0.0,0.0,0.0,1.9795,1.959,1.9597,1.9772,1.8816,1.8037,0.0,0.0,0.0,0.0,0.0,0.0,0.0,0.0,0.0,0.0,0.0,0.0,0.0,0.0,0.0,0.0,0.0,0.0,0.0,0.0,0.0,0.0,0.0,0.0,0.0,0.0,0.0,0.0,0.0,0.0,0.0,0.0,0.0,0.0,0.0,0.0,0.0,0.0,0.0,0.0,0.0,0.0,0.0,0.0,0.0,0.0,0.0,0.0,0.0,0.0,0.0,0.0,0.0,0.0,0.0,0.0,0.0,0.0,0.0,0.0,0.0,0.0,0.0,0.0,0.0,0.0,0.0,0.0,0.0,0.0,0.0,0.0,0.0,0.0,0.0,0.0,0.0,0.0,0.0,0.0,0.0,0.0,0.0,0.0,0.0,0.0,0.0,0.0,0.0,0.0,0.0,0.0,0.0,0.0,0.0,0.0,0.0,0.0,0.0,0.0,0.0,0.0,0.0,0.0,0.0,0.0,0.0,0.0,0.0,2.0784,2.0392,2.0228,2.0394,1.9395,1.8631,1.807,0.0,0.0,0.0,0.0,0.0,0.0,0.0,0.0,0.0,0.0,0.0,0.0,0.0,0.0,0.0,0.0,0.0,0.0,0.0,0.0,0.0,0.0,0.0,0.0,0.0,0.0,0.0,0.0,0.0,0.0,0.0,0.0,0.0,0.0,0.0,0.0,0.0,0.0,0.0,0.0,0.0,0.0,0.0,0.0,0.0,0.0,0.0,0.0,0.0,0.0,0.0,0.0,0.0,0.0,0.0,0.0,0.0,0.0,0.0,0.0,0.0,0.0,0.0,0.0,0.0,0.0,0.0,0.0,0.0,0.0,0.0,0.0,0.0,0.0,0.0,0.0,0.0,0.0,0.0,0.0,0.0,0.0,0.0,0.0,0.0,0.0,0.0,0.0,0.0,0.0,0.0,0.0,0.0,0.0,0.0,0.0,0.0,0.0,0.0,0.0,0.0,0.0,0.0,0.0,0.0,0.0,0.0,0.0,2.1838,2.115,2.0639,2.0305,1.9757,1.9159,0.0,0.0,0.0,0.0,0.0,0.0,0.0,0.0,0.0,0.0,0.0,0.0,0.0,0.0,0.0,0.0,0.0,0.0,0.0,0.0,0.0,0.0,0.0,0.0,0.0,0.0,0.0,0.0,0.0,0.0,0.0,0.0,0.0,0.0,0.0,0.0,0.0,0.0,0.0,0.0,0.0,0.0,0.0,0.0,0.0,0.0,0.0,0.0,0.0,0.0,0.0,0.0,0.0,0.0,0.0,0.0,0.0,0.0,0.0,0.0,0.0,0.0,0.0,0.0,0.0,0.0,0.0,0.0,0.0,0.0,0.0,0.0,0.0,0.0,0.0,0.0,0.0,0.0,0.0,0.0,0.0,0.0,0.0,0.0,0.0,0.0,0.0,0.0,0.0,0.0,0.0,0.0,0.0,0.0,0.0,0.0,0.0,0.0,0.0,0.0,0.0,0.0,0.0,0.0,0.0,0.0,0.0,0.0,0.0,2.1596,2.1721,2.1742,2.1524,2.0541,1.9723,0.0,0.0,0.0,0.0,0.0,0.0,0.0,0.0,0.0,0.0,0.0,0.0,0.0,0.0,0.0,0.0,0.0,0.0,0.0,0.0,0.0,0.0,0.0,0.0,0.0,0.0,0.0,0.0,0.0,0.0,0.0,0.0,0.0,0.0,0.0,0.0,0.0,0.0,0.0,0.0,0.0,0.0,0.0,0.0,0.0,0.0,0.0,0.0,0.0,0.0,0.0,0.0,0.0,0.0,0.0,0.0,0.0,0.0,0.0,0.0,0.0,0.0,0.0,0.0,0.0,0.0,0.0,0.0,0.0,0.0,0.0,0.0,0.0,0.0,0.0,0.0,0.0,0.0,0.0,0.0,0.0,0.0,0.0,0.0,0.0,0.0,0.0,0.0,0.0,0.0,0.0,0.0,0.0,0.0,0.0,0.0,0.0,0.0,0.0,0.0,0.0,0.0,0.0,0.0,0.0,0.0,0.0,0.0,2.1752,2.2231,2.2394,2.2335,2.2042,2.0954,2.0178,0.0,0.0,0.0,0.0,0.0,0.0,0.0,0.0,0.0,0.0,0.0,0.0,0.0,0.0,0.0,0.0,0.0,0.0,0.0,0.0,0.0,0.0,0.0,0.0,0.0,0.0,0.0,0.0,0.0,0.0,0.0,0.0,0.0,0.0,0.0,0.0,0.0,0.0,0.0,0.0,0.0,0.0,0.0,0.0,0.0,0.0,0.0,0.0,0.0,0.0,0.0,0.0,0.0,0.0,0.0,0.0,0.0,0.0,0.0,0.0,0.0,0.0,0.0,0.0,0.0,0.0,0.0,0.0,0.0,0.0,0.0,0.0,0.0,0.0,0.0,0.0,0.0,0.0,0.0,0.0,0.0,0.0,0.0,0.0,0.0,0.0,0.0,0.0,0.0,0.0,0.0,0.0,0.0,0.0,0.0,0.0,0.0,0.0,0.0,0.0,0.0,0.0,0.0,0.0,0.0,0.0,0.0,0.0,2.2063,2.3207,2.2993,2.2654,2.2175,2.1272,2.0525,0.0,0.0,0.0,0.0,0.0,0.0,0.0,0.0,0.0,0.0,0.0,0.0,0.0,0.0,0.0,0.0,0.0,0.0,0.0,0.0,0.0,0.0,0.0,0.0,0.0,0.0,0.0,0.0,0.0,0.0,0.0,0.0,0.0,0.0,0.0,0.0,0.0,0.0,0.0,0.0,0.0,0.0,0.0,0.0,0.0,0.0,0.0,0.0,0.0,0.0,0.0,0.0,0.0,0.0,0.0,0.0,0.0,0.0,0.0,0.0,0.0,0.0,0.0,0.0,0.0,0.0,0.0,0.0,0.0,0.0,0.0,0.0,0.0,0.0,0.0,0.0,0.0,0.0,0.0,0.0,0.0,0.0,0.0,0.0,0.0,0.0,0.0,0.0,0.0,0.0,0.0,0.0,0.0,0.0,0.0,0.0,0.0,0.0,0.0,0.0,0.0,0.0,0.0,0.0,0.0,0.0,0.0,0.0,2.2779,2.2889,2.3147,2.3042,2.2566,2.1702,2.0727,0.0,0.0,0.0,0.0,0.0,0.0,0.0,0.0,0.0,0.0,0.0,0.0,0.0,0.0,0.0,0.0,0.0,0.0,0.0,0.0,0.0,0.0,0.0,0.0,0.0,0.0,0.0,0.0,0.0,0.0,0.0,0.0,0.0,0.0,0.0,0.0,0.0,0.0,0.0,0.0,0.0,0.0,0.0,0.0,0.0,0.0,0.0,0.0,1.3763,0.0,0.0,0.0,0.0,0.0,0.0,0.0,0.0,0.0,0.0,0.0,0.0,0.0,0.0,0.0,0.0,0.0,0.0,0.0,0.0,0.0,0.0,0.0,0.0,0.0,0.0,0.0,0.0,0.0,0.0,0.0,0.0,0.0,0.0,0.0,0.0,0.0,0.0,0.0,0.0,0.0,0.0,0.0,0.0,0.0,0.0,0.0,0.0,0.0,0.0,0.0,0.0,0.0,0.0,0.0,0.0,0.0,0.0,0.0,2.3162,2.362,2.3723,2.3561,2.3086,2.2123,2.1091,0.0,0.0,0.0,0.0,0.0,0.0,0.0,0.0,0.0,0.0,0.0,0.0,0.0,0.0,0.0,0.0,0.0,0.0,0.0,0.0,0.0,0.0,0.0,0.0,0.0,0.0,0.0,0.0,0.0,0.0,0.0,0.0,0.0,0.0,0.0,0.0,0.0,0.0,0.0,0.0,0.0,0.0,0.0,0.0,0.0,0.0,0.0,0.0,0.0,0.0,0.0,0.0,0.0,0.0,0.0,0.0,0.0,0.0,0.0,0.0,0.0,0.0,0.0,0.0,0.0,0.0,0.0,0.0,0.0,0.0,0.0,0.0,0.0,0.0,0.0,0.0,0.0,0.0,0.0,0.0,0.0,0.0,0.0,0.0,0.0,0.0,0.0,0.0,0.0,0.0,0.0,0.0,0.0,0.0,0.0,0.0,0.0,0.0,0.0,0.0,0.0,0.0,0.0,0.0,0.0,0.0,0.0,2.2866,2.3439,2.4502,2.4356,2.4044,2.356,2.2559,2.1515,2.0509,0.0,0.0,0.0,0.0,0.0,0.0,0.0,0.0,0.0,0.0,0.0,0.0,0.0,0.0,0.0,0.0,0.0,0.0,0.0,0.0,0.0,0.0,0.0,0.0,0.0,0.0,0.0,0.0,0.0,0.0,0.0,0.0,0.0,0.0,0.0,0.0,0.0,0.0,1.4727,1.4363,0.0,0.0,0.0,0.0,0.0,0.0,0.0,0.0,1.4148,0.0,0.0,0.0,0.0,0.0,0.0,0.0,0.0,0.0,0.0,0.0,0.0,0.0,0.0,0.0,0.0,0.0,0.0,0.0,0.0,0.0,0.0,0.0,0.0,0.0,0.0,0.0,0.0,0.0,0.0,0.0,0.0,0.0,0.0,0.0,0.0,0.0,0.0,0.0,0.0,0.0,0.0,0.0,0.0,0.0,0.0,0.0,0.0,0.0,0.0,0.0,0.0,0.0,0.0,0.0,0.0,2.2637,2.3074,2.361,2.4259,2.4437,2.4343,2.3926,2.2915,2.1901,2.0831,0.0,0.0,0.0,0.0,0.0,0.0,0.0,0.0,0.0,0.0,0.0,0.0,0.0,0.0,0.0,0.0,0.0,0.0,0.0,0.0,0.0,0.0,0.0,0.0,0.0,0.0,0.0,0.0,0.0,0.0,0.0,0.0,0.0,0.0,0.0,0.0,0.0,0.0,0.0,1.4584,1.4712,0.0,0.0,0.0,0.0,0.0,0.0,0.0,0.0,1.5067,0.0,0.0,0.0,0.0,0.0,0.0,0.0,0.0,0.0,0.0,0.0,0.0,0.0,0.0,0.0,0.0,0.0,0.0,0.0,0.0,0.0,0.0,0.0,0.0,0.0,0.0,0.0,0.0,0.0,0.0,0.0,0.0,0.0,0.0,0.0,0.0,0.0,0.0,0.0,0.0,0.0,0.0,0.0,0.0,0.0,0.0,0.0,0.0,0.0,0.0,0.0,0.0,0.0,0.0,0.0,2.2878,2.3513,2.409,2.4598,2.4601,2.4405,2.4009,2.3053,2.1966,0.0,0.0,0.0,0.0,0.0,0.0,0.0,0.0,0.0,0.0,0.0,0.0,0.0,0.0,0.0,0.0,0.0,0.0,0.0,0.0,0.0,0.0,0.0,0.0,0.0,0.0,0.0,0.0,0.0,0.0,0.0,0.0,0.0,0.0,0.0,0.0,0.0,0.0,0.0,0.0,1.5113,1.5289,1.5628,0.0,0.0,0.0,0.0,0.0,0.0,1.5455,1.5299,0.0,0.0,0.0,0.0,0.0,0.0,0.0,0.0,0.0,0.0,0.0,0.0,0.0,0.0,0.0,0.0,0.0,0.0,0.0,0.0,0.0,0.0,0.0,0.0,0.0,0.0,0.0,0.0,0.0,0.0,0.0,0.0,0.0,0.0,0.0,0.0,0.0,0.0,0.0,0.0,0.0,0.0,0.0,0.0,0.0,0.0,0.0,0.0,0.0,0.0,0.0,0.0,0.0,0.0,0.0,2.3202,2.3941,2.463,2.514,2.4889,2.4518,2.4122,2.3148,2.2113,0.0,0.0,0.0,0.0,0.0,0.0,0.0,0.0,0.0,0.0,0.0,0.0,0.0,0.0,0.0,0.0,0.0,0.0,0.0,0.0,0.0,0.0,0.0,0.0,0.0,0.0,0.0,0.0,0.0,0.0,0.0,0.0,0.0,0.0,0.0,0.0,0.0,0.0,0.0,0.0,0.0,1.5886,1.6151,1.6343,0.0,0.0,0.0,0.0,1.6181,1.5882,0.0,0.0,0.0,0.0,0.0,0.0,0.0,0.0,0.0,0.0,0.0,0.0,0.0,0.0,0.0,0.0,0.0,0.0,0.0,0.0,0.0,0.0,0.0,0.0,0.0,0.0,0.0,0.0,0.0,0.0,0.0,0.0,0.0,0.0,0.0,0.0,0.0,0.0,0.0,0.0,0.0,0.0,0.0,0.0,0.0,0.0,0.0,0.0,0.0,0.0,0.0,0.0,0.0,0.0,0.0,0.0,2.3199,2.4274,2.5131,2.5654,2.5339,2.495,2.4567,2.3674,2.2425,0.0,0.0,0.0,0.0,0.0,0.0,0.0,0.0,0.0,0.0,0.0,0.0,0.0,0.0,0.0,0.0,0.0,0.0,0.0,0.0,0.0,0.0,0.0,0.0,0.0,0.0,0.0,0.0,0.0,0.0,0.0,0.0,0.0,0.0,0.0,0.0,0.0,0.0,0.0,0.0,0.0,1.6547,1.7038,1.7633,1.7955,0.0,0.0,0.0,1.7931,1.7294,0.0,0.0,0.0,0.0,0.0,0.0,0.0,0.0,0.0,0.0,0.0,0.0,0.0,0.0,0.0,0.0,0.0,0.0,0.0,0.0,0.0,0.0,0.0,0.0,0.0,0.0,0.0,0.0,0.0,0.0,0.0,0.0,0.0,0.0,0.0,0.0,0.0,0.0,0.0,0.0,0.0,0.0,0.0,0.0,0.0,0.0,0.0,0.0,0.0,0.0,0.0,0.0,0.0,0.0,0.0,2.3019,2.3607,2.4784,2.5472,2.5617,2.5687,2.5303,2.4522,2.4073,2.3009,0.0,0.0,0.0,0.0,0.0,0.0,0.0,0.0,0.0,0.0,0.0,0.0,0.0,0.0,0.0,0.0,0.0,0.0,0.0,0.0,0.0,0.0,0.0,0.0,0.0,0.0,0.0,0.0,0.0,0.0,0.0,0.0,0.0,0.0,0.0,0.0,0.0,0.0,0.0,0.0,0.0,0.0,1.8137,1.8261,0.0,0.0,0.0,1.8384,1.7966,0.0,0.0,0.0,0.0,0.0,0.0,0.0,0.0,0.0,0.0,0.0,0.0,0.0,0.0,0.0,0.0,0.0,0.0,0.0,0.0,0.0,0.0,0.0,0.0,0.0,0.0,0.0,0.0,0.0,0.0,0.0,0.0,0.0,0.0,0.0,0.0,0.0,0.0,0.0,0.0,0.0,0.0,0.0,0.0,0.0,0.0,0.0,0.0,0.0,0.0,0.0,0.0,0.0,0.0,0.0,0.0,0.0,2.4176,2.5372,2.6002,2.5988,2.6228,2.5879,2.4936,2.4486,0.0,0.0,0.0,0.0,0.0,0.0,0.0,0.0,0.0,0.0,0.0,0.0,0.0,0.0,0.0,0.0,0.0,0.0,0.0,0.0,0.0,0.0,0.0,0.0,0.0,0.0,0.0,0.0,0.0,0.0,0.0,0.0,0.0,0.0,0.0,0.0,0.0,0.0,0.0,0.0,0.0,0.0,1.8089,1.8879,1.8797,1.8719,0.0,0.0,1.868,1.8194,1.7953,1.7539,0.0,0.0,0.0,0.0,0.0,0.0,0.0,0.0,0.0,0.0,0.0,0.0,0.0,0.0,0.0,0.0,0.0,0.0,0.0,0.0,0.0,0.0,0.0,0.0,0.0,0.0,0.0,0.0,0.0,0.0,0.0,0.0,0.0,0.0,0.0,0.0,0.0,0.0,0.0,0.0,0.0,0.0,0.0,0.0,0.0,0.0,0.0,0.0,0.0,0.0,0.0,0.0,0.0,0.0,0.0,2.4926,2.6041,2.6865,2.7334,2.707,2.6738,2.6277,2.4864,2.3632,0.0,0.0,0.0,0.0,0.0,0.0,0.0,0.0,0.0,0.0,0.0,0.0,0.0,0.0,0.0,0.0,0.0,0.0,0.0,0.0,0.0,0.0,0.0,0.0,0.0,0.0,0.0,0.0,0.0,0.0,0.0,0.0,0.0,0.0,0.0,0.0,0.0,0.0,0.0,0.0,0.0,1.8411,1.8985,1.9178,1.9404,0.0,0.0,1.9828,1.941,1.8594,1.7841,1.753,0.0,0.0,0.0,0.0,0.0,0.0,0.0,0.0,0.0,0.0,0.0,0.0,0.0,0.0,0.0,0.0,0.0,0.0,0.0,0.0,0.0,0.0,0.0,0.0,0.0,0.0,0.0,0.0,0.0,0.0,0.0,0.0,0.0,0.0,0.0,0.0,0.0,0.0,0.0,0.0,0.0,0.0,0.0,0.0,0.0,0.0,0.0,0.0,0.0,0.0,0.0,0.0,0.0,2.4618,2.5501,2.6598,2.7195,2.7256,2.743,2.7105,2.6308,2.5194,2.4119,0.0,0.0,0.0,0.0,0.0,0.0,0.0,0.0,0.0,0.0,0.0,0.0,0.0,0.0,0.0,0.0,0.0,0.0,0.0,0.0,0.0,0.0,0.0,0.0,0.0,0.0,0.0,0.0,1.6575,1.6241,1.5833,0.0,0.0,0.0,0.0,0.0,0.0,0.0,0.0,0.0,0.0,1.8929,1.9589,1.9624,0.0,0.0,1.9828,1.9591,1.9206,1.8601,1.8045,1.7552,1.7129,0.0,0.0,0.0,0.0,0.0,0.0,0.0,0.0,0.0,0.0,0.0,0.0,0.0,0.0,0.0,0.0,0.0,0.0,0.0,0.0,0.0,0.0,0.0,0.0,0.0,0.0,0.0,0.0,0.0,0.0,0.0,0.0,0.0,0.0,0.0,0.0,0.0,0.0,0.0,0.0,0.0,0.0,0.0,0.0,0.0,0.0,0.0,0.0,0.0,0.0,0.0,0.0,2.5312,2.6083,2.7193,2.775,2.771,2.7951,2.7614,2.6732,2.566,2.476,0.0,0.0,0.0,0.0,0.0,0.0,0.0,0.0,0.0,0.0,0.0,0.0,0.0,0.0,0.0,0.0,0.0,0.0,0.0,0.0,0.0,0.0,0.0,0.0,0.0,0.0,0.0,0.0,1.6734,1.639,1.6155,0.0,0.0,0.0,0.0,0.0,0.0,0.0,0.0,0.0,0.0,1.9305,1.9959,1.9939,1.9816,1.9861,1.9678,1.9331,1.89,1.8571,1.8159,1.7746,0.0,0.0,0.0,0.0,0.0,0.0,0.0,0.0,0.0,0.0,0.0,0.0,0.0,0.0,0.0,0.0,0.0,0.0,0.0,0.0,0.0,0.0,0.0,0.0,0.0,0.0,0.0,0.0,0.0,0.0,0.0,0.0,0.0,0.0,0.0,0.0,0.0,0.0,0.0,0.0,0.0,0.0,0.0,0.0,0.0,0.0,0.0,0.0,0.0,0.0,0.0,0.0,0.0,0.0,2.6658,2.7751,2.856,2.9103,2.8785,2.8337,2.7808,2.6364,2.5392,2.4934,0.0,0.0,0.0,0.0,0.0,0.0,0.0,0.0,0.0,0.0,0.0,0.0,0.0,0.0,0.0,0.0,0.0,0.0,0.0,0.0,0.0,0.0,0.0,0.0,0.0,0.0,1.6708,1.6142,1.6033,0.0,0.0,0.0,0.0,0.0,0.0,0.0,0.0,0.0,0.0,1.9059,1.9454,2.0083,1.9987,1.9916,1.9925,1.9678,1.9399,1.8837,1.8534,1.8406,0.0,0.0,0.0,0.0,0.0,0.0,0.0,0.0,0.0,0.0,0.0,0.0,0.0,0.0,0.0,0.0,0.0,0.0,0.0,0.0,0.0,0.0,0.0,0.0,0.0,0.0,0.0,2.4575,2.5052,0.0,0.0,0.0,0.0,0.0,0.0,0.0,0.0,0.0,0.0,0.0,2.4554,2.4839,0.0,0.0,0.0,0.0,0.0,0.0,0.0,0.0,0.0,0.0,0.0,0.0,2.6601,2.7845,2.8532,2.9114,2.9531,2.9205,2.8636,2.7788,2.6707,2.5507,2.409,0.0,0.0,0.0,0.0,0.0,0.0,0.0,0.0,0.0,0.0,0.0,0.0,0.0,0.0,0.0,0.0,0.0,0.0,0.0,0.0,0.0,0.0,0.0,0.0,0.0,1.7686,0.0,0.0,0.0,0.0,0.0,0.0,0.0,0.0,0.0,0.0,0.0,1.8388,1.8596,1.9222,1.9772,2.013,2.0127,2.0038,0.0,0.0,0.0,0.0,0.0,0.0,0.0,0.0,0.0,0.0,0.0,0.0,0.0,0.0,1.8711,1.8586,1.8655,1.8842,1.9076,0.0,0.0,0.0,0.0,0.0,0.0,0.0,0.0,0.0,0.0,0.0,0.0,0.0,0.0,0.0,0.0,2.4962,0.0,0.0,0.0,0.0,0.0,0.0,0.0,0.0,2.6487,2.6404,2.5681,2.5938,2.5671,0.0,2.4703,2.4591,0.0,0.0,0.0,0.0,0.0,0.0,0.0,0.0,2.7581,2.8381,2.9353,2.9887,2.9943,2.9659,2.9134,2.8291,2.7042,2.5532,2.3818,2.308,2.2418,0.0,0.0,0.0,0.0,0.0,0.0,0.0,0.0,0.0,0.0,0.0,0.0,0.0,0.0,0.0,0.0,0.0,0.0,0.0,0.0,0.0,0.0,0.0,1.8025,0.0,0.0,0.0,0.0,0.0,0.0,0.0,0.0,0.0,1.771,1.8257,1.8785,1.8934,1.9512,1.9918,2.0023,0.0,0.0,0.0,0.0,0.0,0.0,0.0,1.8296,1.8637,1.8554,1.8591,1.9068,1.9286,1.9495,1.963,0.0,0.0,1.9326,1.9203,1.9373,1.9695,2.0077,2.0301,2.0051,2.0063,1.9989,0.0,0.0,0.0,0.0,0.0,0.0,0.0,0.0,2.5177,2.5201,0.0,2.5253,0.0,0.0,0.0,0.0,0.0,0.0,0.0,0.0,2.8377,2.8483,2.8106,2.7956,2.7671,2.7306,2.7004,2.6804,2.6492,2.4226,0.0,0.0,0.0,0.0,0.0,0.0,2.8427,2.8369,3.0046,3.0845,3.0526,3.0129,2.9711,2.9318,2.7321,2.5584,2.419,2.3697,2.3073,2.2317,2.2047,0.0,0.0,0.0,0.0,0.0,0.0,0.0,0.0,0.0,0.0,0.0,0.0,0.0,0.0,0.0,0.0,0.0,0.0,0.0,0.0,1.8182,0.0,0.0,0.0,0.0,0.0,0.0,0.0,0.0,0.0,0.0,1.8624,1.8838,1.9261,1.9817,0.0,0.0,0.0,0.0,2.0201,1.9598,1.9256,1.8998,1.8818,1.8543,1.8456,1.8765,0.0,0.0,1.9542,1.9866,2.0156,2.043,2.0645,2.0571,1.9426,1.9778,2.0071,1.9944,2.0443,2.077,2.0483,2.0544,2.061,2.7552,0.0,0.0,0.0,0.0,2.5184,2.5743,2.7074,2.6417,2.674,2.7709,2.7182,0.0,0.0,0.0,0.0,0.0,0.0,2.8891,2.8965,2.9972,2.9972,2.92,2.948,2.9116,2.8216,2.7906,2.7685,2.7463,2.6638,2.6108,2.5852,0.0,0.0,0.0,0.0,2.9246,3.0152,3.0488,3.072,3.085,3.0529,2.9837,2.8707,2.7382,2.614,2.5079,2.4305,2.3475,2.2495,2.1919,0.0,0.0,0.0,0.0,0.0,0.0,0.0,0.0,0.0,0.0,0.0,0.0,0.0,0.0,0.0,0.0,0.0,0.0,0.0,1.8566,1.8403,1.8244,0.0,0.0,0.0,0.0,0.0,0.0,0.0,0.0,0.0,2.0216,2.0005,1.9888,0.0,0.0,2.0236,2.0039,1.9939,1.9739,1.9213,0.0,0.0,0.0,1.8213,1.8297,1.8709,1.9309,1.9878,2.0259,2.0362,2.0498,2.0512,2.0623,2.0567,2.0272,2.0257,2.0457,2.0685,2.0741,2.0793,2.0772,2.0925,2.0813,2.9588,2.8612,2.7606,2.7094,2.6894,2.6336,2.6808,2.7928,2.7328,2.7607,2.8486,2.8015,2.8119,2.8649,2.8589,0.0,0.0,0.0,3.0335,3.0451,3.1108,3.0997,3.0273,3.0466,3.016,2.9314,2.89,2.8662,2.8508,2.8263,2.7912,2.7482,0.0,0.0,2.8829,2.9431,3.0243,3.1121,3.1195,3.1204,3.1218,3.0577,2.9539,2.8188,2.7475,2.6465,2.5276,2.4489,2.3692,2.2766,2.2264,2.174,0.0,0.0,0.0,0.0,0.0,0.0,0.0,0.0,0.0,0.0,0.0,1.9948,0.0,0.0,0.0,0.0,1.9243,1.916,1.9068,1.8988,0.0,0.0,0.0,0.0,0.0,0.0,0.0,1.9965,2.0458,2.0757,2.0948,2.0604,2.0372,2.0145,2.0241,2.0155,1.9772,0.0,1.96,1.9331,1.906,1.8847,1.8603,1.8406,1.8415,1.8769,1.939,1.9834,2.0165,2.0279,2.0426,2.0547,2.0686,2.0686,2.0686,2.0613,2.0554,2.0805,2.0811,2.0795,2.0728,2.0778,2.0686,3.1746,3.0784,2.9476,2.8793,2.8588,2.8372,2.8326,2.8362,2.8192,2.8208,2.8362,2.8257,2.8281,2.8451,2.9222,0.0,0.0,3.141,3.1697,3.2207,3.208,3.1853,3.1555,3.1357,3.1052,3.0698,3.0152,2.9883,2.9809,2.9533,2.9422,2.9574,2.9197,2.9365,3.0107,3.0819,3.1317,3.1631,3.202,3.1938,3.1387,3.0267,2.9004,2.78,2.7597,2.672,2.5005,2.45,2.3912,2.3115,2.2787,2.2323,2.1689,0.0,0.0,0.0,0.0,0.0,0.0,0.0,0.0,0.0,0.0,0.0,0.0,0.0,0.0,0.0,1.9394,0.0,1.9645,1.9834,0.0,0.0,0.0,1.978,1.9683,2.0252,2.0517,2.0311,0.0,0.0,0.0,0.0,2.0497,2.0063,1.9983,1.9849,1.9318,1.9619,1.9754,1.952,1.9068,1.8909,1.9075,1.8797,1.8743,1.9048,1.9163,1.9323,1.9675,1.9845,2.0179,2.042,2.0712,2.0798,2.0814,2.0641,2.0523,2.0565,2.0597,2.0624,2.044,2.046,2.0333,3.1709,3.1374,3.1048,3.0652,3.0189,2.9551,2.9895,3.0755,3.018,3.0215,3.0746,3.0806,3.0865,3.1018,3.1196,3.1735,3.2434,3.3031,3.3544,3.4082,3.4452,3.46,3.4367,3.3576,3.3262,3.3257,3.2266,3.1945,3.2121,3.1845,3.1769,3.1877,3.1792,3.1486,3.1051,3.2094,3.2614,3.2408,3.2445,3.1893,3.0786,3.0183,2.9357,2.8177,2.7996,2.7114,2.5279,2.5026,2.4217,2.2861,2.2616,2.2285,2.1842,2.1844,0.0,0.0,0.0,0.0,0.0,0.0,0.0,0.0,0.0,2.0911,2.0978,0.0,2.0853,0.0,2.0552,2.0359,2.024,2.0133,0.0,0.0,2.0305,2.041,2.0595,2.0847,2.104,2.1081,2.1135,2.1154,2.0998,2.0694,2.0112,1.9487,1.9735,1.9711,1.9066,1.8948,1.9023,1.8879,1.8745,1.8693,1.8829,1.8805,1.8877,1.916,1.9378,1.9675,1.9956,2.0074,2.0105,2.0174,2.0292,2.0292,2.0285,2.0189,2.0246,2.0186,2.0217,2.0271,2.0169,2.0135,2.0086,3.3435,3.3296,3.3296,3.3109,3.2716,3.1086,3.0862,3.1534,3.1023,3.1086,3.1517,3.155,3.1918,3.251,3.2658,3.3187,3.4078,3.4478,3.4809,3.5122,3.5371,3.5435,3.5266,3.4648,3.4291,3.4178,3.3411,3.3004,3.2989,3.2767,3.264,3.2737,3.303,3.2874,3.2414,3.2768,3.2996,3.3019,3.2673,3.1976,3.1026,3.0221,2.9372,2.8651,2.8133,2.7118,2.5575,2.5355,2.4528,2.2983,2.266,2.2363,2.1949,2.1851,2.1871,0.0,0.0,0.0,0.0,0.0,0.0,0.0,0.0,0.0,0.0,0.0,2.1355,0.0,2.0904,0.0,2.0726,2.0632,2.0705,2.0909,2.0857,2.0847,2.0832,2.1146,2.123,2.1089,2.1107,2.0953,2.0709,2.0275,1.9745,1.9104,1.9204,1.9112,1.8651,1.8458,1.8489,1.8624,1.8495,1.8483,1.8651,1.8898,1.9104,1.9221,1.9354,1.9576,1.968,1.9776,1.9783,1.9776,1.9783,1.9776,1.9776,1.9783,1.9783,1.9783,1.9776,1.9776,1.9879,1.9776,1.968,3.5657,3.5394,3.5394,3.5394,3.5205,3.2875,3.1895,3.1895,3.1795,3.1795,3.1895,3.1895,3.2526,3.3546,3.3825,3.4596,3.5657,3.5745,3.5737,3.5816,3.5719,3.5591,3.5508,3.5211,3.4907,3.4513,3.4061,3.3649,3.3317,3.3143,3.3015,3.2952,3.3542,3.3755,3.3725,3.3135,3.3071,3.3396,3.2783,3.2139,3.1568,3.0392,2.9497,2.8932,2.8104,2.7061,2.5914,2.5544,2.474,2.3393,2.2934,2.2591,2.2052,2.1895,2.1969,0.0,2.2376,0.0,0.0,0.0,0.0,0.0,0.0,0.0,0.0,2.2048,2.1653,2.0845,2.1071,2.1322,2.1268,2.1253,2.1403,2.1729,2.1463,2.1137,2.0922,2.1161,2.1122,2.0763,2.0837,2.0806,2.0286,1.9937,1.9418,1.901,1.8754,1.848,1.8232,1.8115,1.83,1.851,1.8453,1.861,1.8861,1.9089,1.9257,1.9264,1.9264,1.9272,1.9272,1.9272,1.9272,1.9272,1.9383,1.9272,1.9272,1.9272,1.9272,1.9376,1.9376,1.9376,1.9576,1.948,1.9279,3.5673,3.5394,3.5394,3.5394,3.5331,3.4881,3.4659,3.4643,3.4604,3.4604,3.4659,3.4643,3.4802,3.4984,3.5039,3.5498,3.6216,3.6232,3.6548,3.7144,3.7144,3.7085,3.6979,3.6295,3.6032,3.6152,3.5187,3.4783,3.4986,3.4545,3.4332,3.4317,3.4301,3.4225,3.4008,0.0,0.0,0.0,3.2905,3.226,3.1384,3.1083,3.0196,2.8562,2.835,0.0,2.5794,2.5478,2.4846,2.3694,2.346,0.0,0.0,0.0,0.0,0.0,0.0,0.0,0.0,0.0,0.0,0.0,2.4437,2.4231,2.2793,2.2785,2.2783,2.2604,2.257,2.2251,2.1693,2.1689,2.1748,2.1741,2.1379,2.124,2.1456,2.1123,2.0836,2.0799,2.0623,2.0365,2.0135,1.9892,1.9573,1.9066,1.8813,1.8529,1.8296,1.8178,1.8245,1.837,1.8706,1.9104,1.9162,1.9228,1.9272,1.9272,1.9272,1.9272,1.9272,1.9272,1.9272,1.9272,1.9272,1.9272,1.9272,1.9272,1.9272,1.9272,1.9272,1.9279,1.9383,1.9383,1.9272,3.6635,0.0,3.6421,3.6421,0.0,3.6421,3.6421,3.6358,3.5695,3.5394,3.5394,3.5394,3.5568,3.59,3.59,3.6279,3.6943,3.6943,3.7133,3.7464,3.748,3.748,3.7464,3.6967,3.6685,3.6693,3.5921,3.5498,3.5504,3.5489,3.5369,3.5151,3.5404,3.5357,3.5049,3.4257,3.3607,3.3016,3.2717,3.2208,3.1591,3.1222,3.041,2.9319,0.0,0.0,0.0,0.0,0.0,0.0,0.0,0.0,0.0,0.0,0.0,2.2956,2.2903,2.3026,2.353,2.4104,2.4472,2.4472,2.4714,2.4459,2.3492,2.3423,2.3244,2.2818,2.2676,2.2449,2.2084,2.1842,2.1845,2.1898,2.1526,2.1337,2.1409,2.1024,2.0752,2.0679,2.0367,2.0093,1.9918,1.9668,1.9298,1.9011,1.8814,1.8624,1.8397,1.8272,1.828,1.8496,1.8935,1.9264,1.9272,1.9272,1.9272,1.9272,1.9272,1.9272,1.9272,1.9272,1.9272,1.9272,1.9272,1.9272,1.9272,1.9272,1.9272,1.9272,1.9272,1.9272,1.9272,1.9272,1.9272,3.7583,3.748,3.748,3.748,3.748,3.748,3.748,3.7401,0.0,0.0,0.0,3.5758,3.6074,3.6595,3.6611,3.6927,3.7464,3.748,3.748,3.748,3.748,3.748,3.748,3.7329,3.7058,3.6785,3.6445,3.6037,3.5649,3.6015,3.6029,3.5746,3.6277,3.6387,3.5827,3.4691,3.3623,3.2825,3.2485,3.2214,3.1803,3.1175,3.0566,3.0025,2.8769,2.7804,2.7048,2.6272,2.5408,2.4637,2.4248,2.3756,2.3167,2.2926,2.3126,2.3649,2.3727,2.4035,2.4736,2.4892,2.4981,2.5059,2.4774,2.4432,2.4196,2.4025,2.3573,2.2837,2.2754,2.2601,2.2351,2.214,2.2039,2.2184,2.187,2.1461,2.1281,2.096,2.071,2.0603,2.0216,1.9873,1.9948,1.9543,1.9178,1.8895,1.8847,1.8688,1.8567,1.8445,1.8503,1.8833,1.9111,1.9272,1.9272,1.9272,1.9272,1.9272,1.9272,1.9272,1.9272,1.9272,1.9272,1.9272,1.9272,1.9272,1.9272,1.9272,1.9272,1.9272,1.9272,1.9272,1.9272,1.9272,1.9272,3.7614,3.748,3.748,3.748,3.748,3.748,3.748,3.7464,3.7259,3.718,3.7196,3.7196,3.7243,3.7338,3.7338,3.7385,3.748,3.748,3.748,0.0,3.748,3.748,3.748,3.748,3.7329,3.7118,3.6769,3.6461,3.6161,3.6315,3.6216,3.5981,3.6347,3.6244,3.5478,3.4845,3.3991,3.2975,3.2486,3.2023,3.1683,3.1516,3.0856,2.9622,2.9221,2.8448,2.7175,2.6868,2.6447,2.5774,2.5546,2.5279,2.5027,2.4607,2.4389,2.4255,2.4115,2.4022,2.3961,2.4492,2.4973,2.5373,2.5416,2.5099,2.4466,2.427,2.4013,2.3685,2.3574,2.3396,2.299,2.2858,2.2838,2.2769,2.2384,2.2034,2.1717,2.1154,2.0732,2.0662,2.0277,2.009,2.015,1.9899,1.9588,1.9523,1.9243,1.9214,1.9038,1.8899,1.8877,1.9118,1.9235,1.9272,1.9272,1.9272,1.9272,1.9272,1.9272,1.9272,1.9272,1.9272,1.9272,1.9272,1.9272,1.9272,1.9272,1.9272,1.9272,1.9272,1.9272,1.9272,1.9272,1.9272,1.9272,3.7872,3.7496,3.748,3.7539,3.7599,3.77,3.77,3.77,3.77,3.7642,3.7539,3.748,3.748,3.748,3.748,3.748,3.748,3.748,3.748,3.748,3.748,3.748,3.748,3.7599,3.7449,3.7178,3.6921,3.6817,3.6919,3.7056,3.7082,3.7109,3.7259,3.6977,3.641,3.5661,3.4913,3.4167,3.3132,3.2199,3.1447,3.1299,3.0794,2.9846,2.9315,2.8587,2.7496,2.6916,2.6318,2.587,2.5549,2.526,2.5003,2.481,2.4692,2.4605,2.4732,2.4916,2.4903,2.5466,2.5905,2.6032,2.5955,2.5783,2.5485,2.5167,2.4875,2.4604,2.4565,2.4286,2.3645,2.349,2.3279,2.3102,2.2546,2.2161,2.1969,2.1438,2.0942,2.0948,2.049,2.014,2.0187,1.9758,1.948,1.948,1.9383,1.9272,1.9272,1.9155,1.9096,1.9242,1.9272,1.9272,1.9272,1.9272,1.9272,1.9272,1.9272,1.9272,1.9272,1.9272,1.9272,1.9272,1.9272,1.9272,1.9272,1.9272,1.9272,1.9272,1.9272,1.9272,1.9272,1.9272,1.9272,3.8505,3.8014,3.8058,3.8118,3.8237,3.8355,3.8398,3.8414,3.843,3.8296,3.8042,3.7884,3.7761,3.7717,3.7859,3.7938,3.7923,3.7938,3.7938,3.7938,3.7938,3.8014,3.7998,3.8118,3.8042,3.7786,3.7573,3.7546,3.7802,3.7953,3.8057,3.8189,3.8059,3.7777,3.7303,3.6438,3.5759,3.5049,3.3819,3.2671,3.1757,3.1553,3.1098,3.0495,2.9729,2.895,2.8143,2.7184,2.6581,2.6302,2.578,2.5438,2.5378,2.5281,2.5275,2.5239,2.5518,2.5789,2.595,2.6225,2.6436,2.6446,2.6235,2.6187,2.626,2.5988,2.5616,2.5321,2.5148,2.4914,2.4375,2.4021,2.3852,2.355,2.2999,2.2584,2.2342,2.1818,2.1319,2.1277,2.0601,2.0071,1.9975,1.9672,1.9272,1.9272,1.9272,1.9272,1.9272,1.9272,1.9272,1.9272,1.9272,1.9272,1.9272,1.9272,1.9272,1.9272,1.9272,1.9272,1.9272,1.9272,1.9272,1.9272,1.9272,1.9272,1.9272,1.9272,1.9272,1.9272,1.9272,1.9272,1.9272,1.9272,1.9272,3.9672,3.9609,3.9745,3.987,3.9822,3.9882,3.9866,3.9882,3.9914,3.987,3.9742,3.8969,3.8518,3.8507,3.9013,3.9234,3.925,3.9297,3.9266,3.925,3.9313,3.9375,3.9483,3.9577,3.9609,3.9437,3.9125,3.8825,3.8707,3.8788,3.8802,3.8708,3.8323,3.7825,3.7289,3.6844,3.6083,3.492,3.4353,3.3767,3.3181,3.2749,3.2267,3.1584,3.086,3.0189,2.9427,2.8442,2.7893,2.8026,2.7193,2.6915,2.7269,2.7166,2.6856,2.6427,2.6457,2.633,2.5934,2.5944,2.6007,2.5976,2.6017,2.6194,2.6547,2.6557,2.6095,2.5513,2.5219,2.504,2.4697,2.4555,2.4488,2.4268,2.3843,2.334,2.2841,2.2181,2.1591,2.131,2.0601,2.0094,2.0021,1.9598,1.9272,1.9272,1.9272,1.9272,1.9272,1.9272,1.9272,1.9272,1.9272,1.9272,1.9272,1.9272,1.9272,1.9272,1.9272,1.9272,1.9272,1.9272,1.9272,1.9272,1.9272,1.9272,1.9272,1.9272,1.9272,1.9272,1.9272,1.9272,1.9272,1.9272,1.9272,4.0398,4.0091,4.0212,4.0333,4.0529,4.0588,4.0605,4.0501,4.0501,4.0425,4.0216,4.0158,3.9813,3.9279,3.9454,3.9487,3.9487,3.9487,3.9487,3.9487,3.9487,3.9565,3.9799,3.9815,3.9815,3.9753,3.9487,3.9358,3.947,3.9444,3.9212,3.8826,3.8412,3.7976,3.7457,3.6978,3.6304,3.5596,3.5036,3.4512,3.3923,3.2933,3.2028,3.1367,3.0823,3.0241,2.9543,2.8761,2.8431,2.8355,2.7741,2.7479,2.7679,2.7424,2.7206,2.6872,2.6833,2.6844,2.6765,2.6693,2.6693,2.6693,2.6693,2.6786,2.6951,2.6982,2.6701,2.6098,2.5953,2.5759,2.5353,2.4986,2.4761,2.4609,2.4044,2.3447,2.3247,2.2333,2.1733,2.1656,2.0712,2.0094,1.991,1.9591,1.9272,1.9272,1.9272,1.9272,1.9272,1.9272,1.9272,1.9272,1.9272,1.9272,1.9272,1.9272,1.9272,1.9272,1.9272,1.9272,1.9272,1.9272,1.9272,1.9272,1.9272,1.9272,1.9272,1.9272,1.9272,1.9272,1.9272,1.9272,1.9272,1.9272,1.9272,4.1381,4.1051,4.1079,4.126,4.1514,4.1632,4.1589,4.1488,4.1428,4.1249,4.1055,4.1369,4.1117,4.0545,4.0214,4.0072,4.0072,4.0072,4.0072,4.0072,4.0135,4.0293,4.0434,4.0419,4.0434,4.0356,4.0087,3.9935,4.0003,3.9762,3.9379,3.8782,3.8427,3.7976,3.7534,3.6978,3.6429,3.5871,3.5372,3.4881,3.4262,3.3094,3.2112,3.1484,3.0918,3.0324,2.9722,2.915,2.8813,2.8797,2.832,2.8044,2.8077,2.7909,2.764,2.7302,2.7225,2.7181,2.7347,2.7272,2.7272,2.7272,2.7272,2.7272,2.7293,2.7376,2.715,2.6774,2.6701,2.6349,2.582,2.5446,2.5187,2.4955,2.4263,2.3767,2.3489,2.2536,2.2014,2.1726,2.0892,2.0074,1.971,1.9487,1.9272,1.9272,1.9272,1.9272,1.9272,1.9272,1.9272,1.9272,1.9272,1.9272,1.9272,1.9272,1.9272,1.9279,1.9279,1.9175,1.9168,1.9168,1.9063,1.8855,1.9063,1.9063,1.8959,1.9063,1.9294,1.9279,1.9279,1.9279,1.9272,1.9272,1.9272,4.2851,4.2847,4.3152,4.3191,4.3257,4.3207,4.324,4.3141,4.2921,4.2769,4.2642,4.2395,4.2285,4.2141,4.1612,4.1446,4.1446,4.1449,4.1433,4.1433,4.1642,4.182,4.2013,4.2029,4.1917,4.1773,4.1223,4.0665,3.9975,3.9809,3.9379,3.8797,3.8352,3.7901,3.7303,3.69,3.635,3.5723,3.5276,3.4809,3.4186,3.3632,3.2995,3.2339,3.1641,3.0974,3.0504,2.9688,2.9397,2.9795,2.9173,2.8846,2.8984,2.898,2.862,2.7966,2.7683,2.7515,2.7378,2.7303,2.7314,2.7314,2.7376,2.7303,2.7417,2.7513,2.7405,2.711,2.6952,2.6627,2.6045,2.5733,2.5571,2.5273,2.4932,2.4411,2.3588,2.2967,2.2372,2.1699,2.0926,2.0144,1.9405,1.9272,1.9272,1.9272,1.9272,1.9272,1.9272,1.9272,1.9272,1.9272,1.9272,1.9272,1.9272,1.9272,1.9272,1.9279,1.9182,1.8869,1.8764,1.8653,1.8541,1.8443,1.8485,1.8485,1.8555,1.866,1.9017,1.9226,1.9286,1.9279,1.9272,1.9272,1.9272,4.3416,4.3492,4.3848,4.3964,4.3948,4.3964,4.3848,4.3671,4.3432,4.319,4.2899,4.2634,4.2508,4.2381,4.2045,4.1916,4.19,4.1916,4.1916,4.1916,4.1996,4.2125,4.2254,4.2061,4.1996,4.198,4.1472,4.0677,3.9839,3.9625,3.9104,3.8501,3.7976,3.761,3.7056,3.6615,3.6058,3.5562,3.5263,3.4686,3.3972,3.3852,3.3533,3.269,3.174,3.1139,3.0871,3.0224,2.9953,3.0034,2.9704,2.9522,2.9611,2.9287,2.8751,2.8072,2.7935,2.7841,2.7731,2.7686,2.7821,2.81,2.8121,2.81,2.8152,2.799,2.7821,2.7551,2.7147,2.6718,2.6201,2.574,2.5347,2.5013,2.4421,2.392,2.3364,2.2716,2.2191,2.2031,2.0888,1.9665,1.942,1.9272,1.9272,1.9272,1.9272,1.9272,1.9272,1.9272,1.9272,1.9272,1.9272,1.9272,1.9272,1.9272,1.9272,1.9175,1.9071,1.8757,1.8646,1.8227,1.8122,1.7833,1.788,1.8156,1.827,1.8688,1.9014,1.9204,1.9259,1.9175,1.9272,1.9272,1.9272,4.3931,4.4047,4.4367,4.448,4.4514,4.475,4.4663,4.4407,4.4388,4.4202,4.3834,4.3583,4.3394,4.3314,4.317,4.3122,4.3041,4.2478,4.2109,4.2109,4.219,4.2254,4.2318,4.2077,4.1996,4.1996,4.1355,4.0524,3.9753,3.9322,3.8797,3.8127,3.7782,3.7444,3.6986,3.6699,3.632,3.5798,3.5645,3.5142,3.4487,3.4461,3.4148,3.3383,3.2436,3.1817,3.1466,3.1169,3.0882,3.0802,3.0721,3.0513,3.0271,2.9791,2.9237,2.8593,2.8434,2.8391,2.8188,2.8142,2.8276,2.8576,2.8607,2.8618,2.8618,2.845,2.8127,2.7783,2.7344,2.6854,2.6352,2.5663,2.5094,2.4881,2.4355,2.3719,2.317,2.2642,2.2264,2.1783,2.0414,1.9517,1.9264,1.9272,1.9272,1.9272,1.9272,1.9272,1.9272,1.9272,1.9272,1.9272,1.9272,1.9272,1.9279,1.9175,1.9071,1.9071,1.875,1.8429,1.8115,1.7799,1.7496,1.7324,1.7469,1.778,1.8198,1.8624,1.8919,1.9213,1.9197,1.9056,1.9168,1.9272,1.9286,4.4502,4.4575,4.4703,4.4865,4.5001,4.5563,4.5807,4.5747,4.5872,4.5735,4.5392,4.5288,4.5046,4.516,4.4965,4.5177,4.4754,4.3299,4.2462,4.2462,4.2574,4.2622,4.2654,4.2334,4.2108,4.2011,4.1236,4.0447,3.9805,3.9312,3.8691,3.8102,3.7918,3.7599,3.6935,3.7177,3.708,3.6512,3.6399,3.6179,3.5771,3.5378,3.4958,3.4598,3.3778,3.3155,3.2594,3.243,3.216,3.2089,3.2018,3.176,3.1024,3.0644,3.0143,2.9451,2.9319,2.9052,2.8707,2.8628,2.8628,2.8773,2.87,2.8773,2.8755,2.8594,2.8354,2.8083,2.7391,2.6825,2.6381,2.5463,2.4777,2.4761,2.4548,2.3986,2.3263,2.2958,2.2386,2.1023,1.9849,1.9413,1.9286,1.933,1.936,1.9396,1.936,1.9345,1.9345,1.9316,1.9279,1.9272,1.9272,1.9272,1.9175,1.9071,1.8974,1.8764,1.8331,1.801,1.7483,1.706,1.6643,1.6474,1.6863,1.7277,1.7844,1.8366,1.8658,1.8898,1.8851,1.8966,1.9168,1.9286,1.9323,4.5106,4.5106,4.5177,4.5539,4.5932,4.6152,4.6305,4.6605,4.6583,4.629,4.586,4.5656,4.5546,4.5372,4.5436,4.5516,4.545,4.4831,4.4507,4.4349,4.4237,4.422,4.4075,4.3266,4.2566,4.203,4.1256,4.0804,4.0487,3.9956,3.9289,3.862,3.8168,3.78,3.7327,3.7093,3.683,3.6571,3.6484,3.6297,3.5898,3.607,3.5903,3.5303,3.5351,3.5186,3.4605,3.3256,3.2594,3.2606,3.23,3.1794,3.1099,3.0752,3.0231,2.9508,2.9236,2.9195,2.9154,2.9104,2.9228,2.9466,2.9549,2.957,2.9467,2.9133,2.8825,2.8423,2.764,2.6816,2.6071,2.5264,2.4676,2.4479,2.3913,2.3464,2.2749,2.2204,2.1284,2.0297,1.9641,1.9396,1.955,1.9608,1.9681,1.9835,1.9733,1.9616,1.9586,1.9447,1.9286,1.9272,1.9272,1.9262,1.9215,1.89,1.8527,1.8183,1.784,1.7378,1.6849,1.6318,1.5897,1.5935,1.6314,1.6833,1.7506,1.7942,1.8353,1.8676,1.8752,1.8948,1.9189,1.9323,1.9403,4.5546,4.5581,4.5857,4.6238,4.6667,4.7079,4.7408,4.7619,4.7716,4.7477,4.7049,4.6908,4.6719,4.6546,4.6656,4.6719,4.6799,4.6828,4.6749,4.638,4.5536,4.5293,4.4968,4.4021,4.3146,4.2459,4.1679,4.1159,4.0944,4.029,3.9562,3.8765,3.8477,3.8095,3.7636,3.7464,3.7219,3.7056,3.7069,3.6878,3.6675,3.6858,3.6766,3.6358,3.6463,3.6358,3.6023,3.4625,3.3731,3.3541,3.3064,3.2298,3.1603,3.1318,3.0773,3.0013,2.9737,2.9586,2.9518,2.957,2.9663,2.9932,2.9994,2.9984,2.9879,2.9459,2.895,2.8427,2.7492,2.6509,2.5622,2.4838,2.4351,2.3921,2.336,2.2796,2.2266,2.1547,2.0876,2.0266,1.9986,1.9905,1.9879,1.9945,2.0003,2.0164,2.0069,1.9938,1.9901,1.9777,1.9667,1.9623,1.9604,1.9527,1.9248,1.8737,1.8095,1.7722,1.7258,1.6774,1.6318,1.5678,1.5256,1.5596,1.5957,1.6555,1.7123,1.7569,1.8026,1.8306,1.8667,1.8843,1.9085,1.9462,1.9557,4.589,4.5995,4.6726,4.7073,4.7262,4.8404,4.8808,4.8764,4.9137,4.9137,4.8866,4.8562,4.8522,4.8463,4.8341,4.8404,4.8652,4.8596,4.8467,4.7994,4.6915,4.5812,4.5097,4.4317,4.3668,4.3089,4.2294,4.1701,4.1299,4.0437,3.9434,3.8811,3.8833,3.8464,3.7931,3.8013,3.799,3.7808,3.7782,3.7769,3.7769,3.7638,3.7466,3.7361,3.6989,3.6828,3.6803,3.6125,3.5485,3.4787,3.4021,3.3185,3.2555,3.2218,3.1462,3.0764,3.0484,3.0224,3.0068,2.9922,2.9942,2.9984,2.9994,2.9994,2.9889,2.9459,2.892,2.831,2.7295,2.6209,2.534,2.4479,2.3697,2.3014,2.2796,2.2441,2.1714,2.0979,2.0633,2.0567,2.0545,2.05,2.0245,2.0267,2.0289,2.034,2.0325,2.0267,2.0237,2.0179,2.0208,2.0055,1.9838,1.9483,1.929,1.8313,1.7675,1.7073,1.6574,1.6041,1.5684,1.5154,1.4939,1.5281,1.5695,1.6287,1.6881,1.742,1.789,1.8306,1.8603,1.8724,1.9089,1.951,1.9742,4.7081,4.7068,4.7701,4.8295,4.8746,4.9069,4.9279,4.9498,4.9605,4.9471,4.9168,4.909,4.8984,4.8877,4.8984,4.9107,4.909,4.9212,4.9107,4.8889,4.8478,4.7009,4.5662,4.4798,4.422,4.3572,4.2697,4.2249,4.2143,4.1372,4.056,3.9842,3.9481,3.9034,3.8505,3.8225,3.8122,3.79,3.79,3.79,3.79,3.7795,3.7703,3.7505,3.732,3.7227,3.7121,3.6546,3.5787,3.4835,3.4261,3.358,3.2768,3.2139,3.1435,3.0859,3.0318,3.0099,2.9994,2.9994,2.9994,2.9994,2.9994,2.9994,2.9994,2.9459,2.893,2.8291,2.7314,2.6109,2.5008,2.4161,2.3167,2.2237,2.2116,2.1805,2.1158,2.0772,2.064,2.0413,2.0333,2.0406,2.0537,2.0603,2.0669,2.0801,2.0735,2.0596,2.0567,2.0442,2.0398,2.0172,1.9873,1.9559,1.9043,1.8048,1.7252,1.6537,1.588,1.5189,1.4956,1.4628,1.4736,1.503,1.5618,1.6191,1.6739,1.7313,1.772,1.8367,1.8676,1.8993,1.9505,1.9886,1.9975,4.8041,4.7924,4.8575,4.9117,4.9536,4.9669,4.9829,5.0005,4.9942,4.9691,4.9453,4.9411,4.935,4.9246,4.935,4.9411,4.9411,4.9547,4.9471,4.9307,4.8889,4.7799,4.6377,4.5553,4.4928,4.4359,4.3365,4.2877,4.268,4.2049,4.1283,4.0446,3.9982,3.9455,3.8922,3.8589,3.8239,3.8057,3.8057,3.7965,3.79,3.79,3.7977,3.7976,3.8041,3.7855,3.7467,3.678,3.5978,3.5211,3.4543,3.3767,3.288,3.2037,3.1333,3.0859,3.0318,2.9994,2.9994,2.9994,2.9994,2.9994,2.9994,2.9994,2.9889,2.9459,2.892,2.8291,2.7206,2.61,2.4898,2.3825,2.282,2.2124,2.1782,2.1472,2.094,2.094,2.0845,2.0698,2.0655,2.0698,2.0911,2.0918,2.1013,2.1108,2.1028,2.0955,2.0911,2.072,2.0485,2.033,2.0003,1.9514,1.8897,1.7914,1.7036,1.6285,1.5452,1.4718,1.4511,1.4402,1.4767,1.5102,1.558,1.6124,1.6788,1.7395,1.8001,1.8514,1.8823,1.9217,1.9722,1.9997,2.0072,4.8815,4.8714,4.9486,4.9767,4.98,5.0305,5.0401,5.0228,5.0171,5.0017,4.9767,4.9708,4.9666,4.953,4.9666,4.9725,4.9725,4.9725,4.9725,4.9471,4.8984,4.8063,4.7139,4.6282,4.5618,4.5005,4.4082,4.3533,4.3093,4.2524,4.182,4.1283,4.0677,4.0068,3.9699,3.9258,3.8789,3.8621,3.8596,3.853,3.8372,3.8292,3.8475,3.8668,3.8708,3.8532,3.8049,3.728,3.643,3.578,3.4883,3.3843,3.2846,3.2037,3.1387,3.0944,3.0465,3.0149,3.018,3.0284,3.0212,3.0253,3.0232,3.0087,3.0044,2.9601,2.904,2.8408,2.7314,2.599,2.4667,2.3344,2.257,2.2116,2.1896,2.1554,2.1325,2.1211,2.1211,2.1211,2.1189,2.1203,2.1211,2.1211,2.1203,2.1174,2.1137,2.1115,2.0972,2.0885,2.0622,2.043,2.0016,1.951,1.8718,1.7893,1.7008,1.6171,1.5305,1.4681,1.4614,1.4597,1.4872,1.525,1.5745,1.6415,1.704,1.7715,1.8242,1.8664,1.8981,1.9409,1.9775,1.9906,2.0061,4.9694,4.9661,5.0347,5.0645,5.0608,5.0587,5.0492,5.0341,5.0228,5.0092,5.0011,4.9952,4.997,4.9928,5.0015,4.9935,5.0056,5.0056,4.986,4.9649,4.9168,4.845,4.7638,4.6759,4.5873,4.5157,4.4328,4.3901,4.3767,4.3275,4.2866,4.2797,4.2143,4.1688,4.0987,4.0631,4.0333,3.9947,3.9747,3.9493,3.9386,3.921,3.9207,3.9403,3.9403,3.9211,3.891,3.8324,3.7663,3.6566,3.4944,3.3573,3.2858,3.19,3.1445,3.1295,3.0872,3.0698,3.0977,3.0998,3.106,3.0988,3.0946,3.0926,3.0563,2.9987,2.9279,2.8398,2.7196,2.5925,2.4128,2.3135,2.257,2.223,2.2116,2.1896,2.1668,2.1325,2.1211,2.1211,2.1211,2.1211,2.1211,2.1211,2.1211,2.1211,2.1211,2.1211,2.1089,2.0967,2.073,2.0378,1.9686,1.9113,1.8358,1.7432,1.6617,1.5946,1.5232,1.4797,1.4848,1.4874,1.5186,1.5501,1.5966,1.6588,1.7224,1.7698,1.8223,1.8738,1.9156,1.9381,1.9562,1.9797,1.9658,5.0609,5.0524,5.0876,5.0945,5.0891,5.0784,5.062,5.0397,5.0341,5.0414,5.0535,5.0528,5.0718,5.1045,5.1045,5.1063,5.1045,5.1104,5.0838,5.036,4.9879,4.9164,4.8129,4.7237,4.6372,4.5442,4.4849,4.4561,4.4368,4.4152,4.3843,4.3719,4.3369,4.265,4.2001,4.1663,4.1134,4.0749,4.0441,4.0239,3.9968,3.9886,3.9878,3.9926,3.9978,3.9797,3.9393,3.8608,3.7717,3.667,3.5176,3.3958,3.3401,3.2476,3.1981,3.1753,3.1319,3.1164,3.136,3.1381,3.135,3.1402,3.1381,3.1247,3.0962,3.0455,2.9799,2.8896,2.761,2.6002,2.3946,2.3135,2.2683,2.2449,2.2343,2.2237,2.1888,2.166,2.1325,2.1211,2.1211,2.1211,2.1211,2.1211,2.1211,2.1211,2.1211,2.1211,2.1089,2.0967,2.05,2.004,1.9345,1.8642,1.78,1.6921,1.6026,1.5514,1.5131,1.5094,1.5257,1.5324,1.5423,1.5687,1.6051,1.6634,1.7274,1.7743,1.8064,1.8646,1.8984,1.9219,1.9253,1.9117,1.8816,5.135,5.1105,5.1105,5.1016,5.0891,5.0891,5.0797,5.0624,5.0589,5.0905,5.1242,5.1287,5.1563,5.2046,5.2097,5.2183,5.2227,5.2235,5.182,5.1202,5.0935,5.0153,4.9086,4.8282,4.7324,4.6066,4.5587,4.5306,4.5203,4.5057,4.4999,4.4515,4.4095,4.3827,4.3102,4.2488,4.2141,4.1824,4.1369,4.1059,4.0665,4.0473,4.0505,4.0461,4.0553,4.027,3.9809,3.893,3.784,3.6639,3.5607,3.4886,3.4245,3.3254,3.249,3.2253,3.1798,3.1671,3.1733,3.1692,3.1671,3.1588,3.1619,3.1557,3.1285,3.0782,3.0137,2.9191,2.7847,2.6229,2.4353,2.361,2.3141,2.2883,2.2746,2.2464,2.223,2.2002,2.1782,2.1325,2.1211,2.1211,2.1211,2.1211,2.1211,2.1211,2.1211,2.1203,2.1081,2.0845,2.0385,1.9802,1.9113,1.8181,1.7343,1.6509,1.5499,1.5376,1.5037,1.5161,1.5284,1.5231,1.5274,1.5737,1.6243,1.6692,1.7085,1.74,1.7873,1.8519,1.8616,1.8551,1.8455,1.8402,1.8058,5.1402,5.1246,5.1141,5.1016,5.0908,5.0908,5.1129,5.1285,5.1355,5.1616,5.1977,5.2028,5.2097,5.2287,5.2235,5.2313,5.2624,5.2795,5.2545,5.2183,5.1951,5.1298,5.0368,4.966,4.8919,4.7933,4.696,4.6407,4.634,4.6266,4.6081,4.6166,4.5697,4.5252,4.4772,4.4337,4.3626,4.3183,4.2644,4.2303,4.2014,4.1542,4.1176,4.1063,4.105,4.0776,4.0312,3.9753,3.8881,3.7814,3.6659,3.5882,3.4874,3.3353,3.2707,3.2636,3.2242,3.2033,3.2292,3.2426,3.2489,3.2509,3.2416,3.2107,3.1574,3.1003,3.0197,2.9002,2.7623,2.6002,2.4937,2.417,2.368,2.3387,2.3107,2.282,2.2585,2.2351,2.2237,2.1782,2.1439,2.1325,2.1325,2.1447,2.1332,2.1332,2.1325,2.1211,2.1203,2.0737,2.0155,1.957,1.8874,1.7824,1.6885,1.6053,1.5322,1.5322,1.509,1.4971,1.4981,1.4873,1.4971,1.5397,1.5864,1.6267,1.6649,1.7009,1.7355,1.7707,1.7824,1.7824,1.7707,1.759,1.7355,5.1878,5.1334,5.1617,5.1633,5.154,5.1926,5.2109,5.2103,5.2155,5.2396,5.271,5.2839,5.3063,5.3304,5.3531,5.3654,5.374,5.3878,5.3592,5.3229,5.2909,5.2265,5.1302,5.0693,5.0109,4.9354,4.8445,4.759,4.7293,4.7075,4.7021,4.6899,4.658,4.621,4.5671,4.5158,4.4676,4.4209,4.3737,4.3273,4.2887,4.2092,4.1696,4.1511,4.1211,4.0909,4.0504,3.9788,3.9037,3.8068,3.7,3.6157,3.5199,3.4153,3.3157,3.3168,3.2661,3.2395,3.2675,3.2727,3.2706,3.2706,3.2612,3.2405,3.1889,3.1197,3.0102,2.8657,2.724,2.5888,2.4994,2.448,2.3969,2.3554,2.3379,2.3099,2.2859,2.2699,2.2464,2.2124,2.1888,2.1782,2.1683,2.1683,2.1569,2.1569,2.1447,2.1325,2.1211,2.0737,2.0148,1.9455,1.8758,1.759,1.6655,1.5946,1.5353,1.5359,1.5126,1.4883,1.4764,1.465,1.4769,1.4992,1.5477,1.5839,1.607,1.6419,1.6649,1.6885,1.7003,1.7003,1.6885,1.6767,1.6532,5.2588,5.1847,5.2449,5.2499,5.2403,5.293,5.3129,5.2921,5.2938,5.3194,5.358,5.3649,5.3942,5.4419,5.4648,5.4834,5.5035,5.5069,5.4582,5.4096,5.3871,5.3156,5.2149,5.1428,5.1038,5.0489,4.978,4.9062,4.8121,4.7814,4.7649,4.7366,4.7091,4.6741,4.6135,4.5685,4.523,4.4769,4.4317,4.3751,4.297,4.2289,4.1796,4.171,4.1185,4.0896,4.0504,3.9775,3.8945,3.808,3.7227,3.6266,3.5499,3.4681,3.4,3.3614,3.3058,3.2727,3.2727,3.2727,3.2727,3.2727,3.2487,3.2248,3.1767,3.0868,2.9751,2.8084,2.695,2.6032,2.5357,2.4687,2.4172,2.384,2.3657,2.3451,2.3115,2.2883,2.2804,2.257,2.2343,2.2253,2.2055,2.201,2.1888,2.1789,2.1675,2.1561,2.1325,2.0845,2.0263,1.9455,1.8642,1.7473,1.6655,1.6194,1.5715,1.5596,1.5126,1.4769,1.465,1.453,1.465,1.453,1.4888,1.5245,1.5477,1.5709,1.5828,1.5946,1.6065,1.6183,1.6059,1.5946,1.5591,5.3726,5.3531,5.3602,5.3494,5.3256,5.3415,5.3537,5.3669,5.3721,5.3896,5.4287,5.4339,5.4391,5.4557,5.4717,5.493,5.5156,5.5199,5.5112,5.4782,5.4713,5.4292,5.3622,5.3078,5.2177,5.149,5.0742,4.9836,4.891,4.8527,4.8118,4.7624,4.7381,4.7033,4.6668,4.6135,4.5805,4.5623,4.5075,4.4209,4.3328,4.2873,4.2387,4.1796,4.1398,4.0997,4.0504,3.9788,3.8945,3.8303,3.7346,3.6472,3.5697,3.4947,3.4177,3.3625,3.3058,3.2727,3.2727,3.2727,3.2727,3.2612,3.2383,3.2018,3.1199,3.0147,2.9057,2.8095,2.7331,2.6548,2.5899,2.5269,2.4891,2.4372,2.3951,2.3705,2.3475,2.3395,2.3178,2.3028,2.2945,2.2573,2.2345,2.2268,2.2093,2.1995,2.1896,2.1789,2.1439,2.096,2.0263,1.9461,1.8881,1.7824,1.6891,1.6425,1.6076,1.5839,1.5245,1.4655,1.453,1.4411,1.4047,1.4052,1.4291,1.453,1.4764,1.4883,1.5002,1.524,1.5359,1.5353,1.5229,1.5002,1.4769,5.5145,5.4133,5.4456,5.4473,5.4363,5.4603,5.4705,5.4692,5.4565,5.4556,5.4603,5.4512,5.4575,5.4807,5.493,5.5156,5.5354,5.5354,5.5277,5.5199,5.5035,5.4745,5.4188,5.3683,5.2991,5.2291,5.1565,5.0751,4.9868,4.9015,4.837,4.8049,4.7624,4.7279,4.7019,4.6668,4.6239,4.579,4.5152,4.4504,4.3912,4.3341,4.2763,4.2204,4.1511,4.0896,4.0389,3.9788,3.905,3.8409,3.7572,3.67,3.5904,3.5124,3.4469,3.3625,3.3235,3.2893,3.2737,3.2727,3.2727,3.2612,3.2268,3.1556,3.0626,2.9686,2.8737,2.8011,2.7297,2.6692,2.6197,2.5708,2.5149,2.4659,2.4261,2.4172,2.3973,2.3761,2.3649,2.359,2.3446,2.3241,2.2988,2.2772,2.2588,2.2412,2.2276,2.201,2.166,2.1074,2.027,1.9468,1.8881,1.8292,1.7479,1.6779,1.6312,1.5957,1.5126,1.465,1.4535,1.4291,1.3933,1.3808,1.3933,1.4052,1.4177,1.4411,1.465,1.4769,1.4769,1.4764,1.4759,1.4644,1.4421,5.645,5.5155,5.5506,5.5544,5.5381,5.5745,5.5689,5.5448,5.5217,5.4992,5.4842,5.47,5.4807,5.5053,5.5156,5.5277,5.5525,5.5525,5.5431,5.5294,5.5174,5.493,5.4494,5.3963,5.3433,5.2903,5.1931,5.1268,5.0509,4.9566,4.8852,4.8385,4.788,4.7538,4.7193,4.6916,4.658,4.615,4.5518,4.4968,4.4476,4.3804,4.3149,4.2387,4.1696,4.0896,4.0504,3.9788,3.9154,3.8526,3.7904,3.7036,3.6122,3.5466,3.4703,3.3985,3.3515,3.3069,3.2882,3.2727,3.2727,3.2498,3.2028,3.1208,3.0157,2.9331,2.8737,2.802,2.7297,2.6692,2.6197,2.5831,2.5473,2.5044,2.4723,2.4659,2.4475,2.444,2.4303,2.4258,2.4153,2.4045,2.3757,2.3475,2.3233,2.2871,2.2671,2.2276,2.1789,2.1225,2.0507,1.9707,1.9113,1.8642,1.7948,1.725,1.6667,1.6076,1.5245,1.4769,1.465,1.4411,1.4052,1.3933,1.3827,1.3884,1.4048,1.4231,1.4411,1.4291,1.4291,1.4291,1.4291,1.4187,1.412,5.748,5.734,5.7011,5.6616,5.6258,5.6365,5.5993,5.5566,5.5507,5.5252,5.4992,5.4974,5.5035,5.5139,5.5199,5.5336,5.5507,5.5607,5.5607,5.549,5.5448,5.5113,5.4665,5.4158,5.3651,5.2956,5.2236,5.1655,5.1048,5.0373,4.9418,4.8635,4.837,4.7955,4.7572,4.7344,4.6918,4.6491,4.6058,4.5633,4.5174,4.4429,4.3712,4.2814,4.206,4.1311,4.0517,4.0069,3.9399,3.8761,3.8116,3.7358,3.6557,3.5795,3.4936,3.4129,3.3682,3.3215,3.2893,3.2727,3.2727,3.2498,3.1913,3.1092,3.0157,2.9459,2.8737,2.8131,2.7418,2.6813,2.6205,2.5831,2.5668,2.5351,2.519,2.5181,2.5115,2.5054,2.5033,2.491,2.476,2.4549,2.4258,2.3997,2.3565,2.32,2.2713,2.2421,2.1917,2.1306,2.0895,2.0176,1.9577,1.8991,1.8298,1.7602,1.6661,1.607,1.5472,1.5235,1.4997,1.4644,1.4296,1.424,1.4149,1.4096,1.4042,1.4149,1.4222,1.3861,1.3837,1.4072,1.4096,1.4111,1.4042,5.8042,5.795,5.7792,5.7388,5.6899,5.6707,5.6437,5.6067,5.5724,5.5354,5.4974,5.5096,5.5156,5.5199,5.5354,5.5472,5.5607,5.5666,5.5666,5.5607,5.549,5.5234,5.4852,5.4477,5.3963,5.3399,5.2747,5.2092,5.145,5.1128,5.0692,5.0063,4.9297,4.8977,4.8618,4.8027,4.7362,4.6993,4.6903,4.6643,4.6258,4.6016,4.5314,4.4368,4.3386,4.244,4.1504,4.081,3.9882,3.9044,3.834,3.7655,3.675,3.5979,3.5146,3.4253,3.3827,3.334,3.2882,3.2727,3.2612,3.2373,3.2018,3.1441,3.0499,2.9922,2.9203,2.8489,2.7771,2.7047,2.6197,2.5953,2.5823,2.5684,2.5627,2.5635,2.577,2.57,2.5658,2.5592,2.5209,2.4971,2.4643,2.4301,2.385,2.3528,2.292,2.2432,2.1933,2.1423,2.0902,2.034,1.9611,1.8991,1.8415,1.7479,1.6543,1.6065,1.5709,1.5493,1.5152,1.4769,1.4555,1.451,1.4518,1.45,1.4327,1.4218,1.4062,1.3991,1.4019,1.4099,1.409,1.4033,1.4099,5.8331,5.8242,5.826,5.7904,5.7338,5.7105,5.6847,5.6492,5.6162,5.5689,5.5217,5.5319,5.5336,5.5354,5.5431,5.5566,5.5666,5.5782,5.5764,5.5706,5.5648,5.5413,5.5113,5.478,5.4407,5.4054,5.3601,5.3007,5.2827,5.2377,5.2171,5.1706,5.0913,5.0411,4.9634,4.9057,4.8208,4.7926,4.7882,4.7756,4.7279,4.6979,4.6429,4.5354,4.4327,4.338,4.2293,4.1375,4.0379,3.9476,3.8648,3.7868,3.6942,3.6162,3.5322,3.4466,3.3795,3.3361,3.2893,3.2612,3.2612,3.2373,3.2258,3.1787,3.1082,3.0382,2.9677,2.8728,2.8002,2.728,2.6441,2.6197,2.6075,2.5823,2.5823,2.5863,2.6244,2.6386,2.6298,2.6177,2.5877,2.5408,2.4624,2.4264,2.3646,2.3184,2.2757,2.2297,2.198,2.1459,2.0833,2.0247,1.9542,1.892,1.8298,1.7379,1.6577,1.6194,1.585,1.5552,1.5324,1.4965,1.4947,1.512,1.512,1.4948,1.4649,1.4466,1.4452,1.4284,1.4293,1.4284,1.4237,1.4189,1.4293,5.8393,5.8411,5.8393,5.8088,5.7631,5.7601,5.7307,5.6847,5.6582,5.6199,5.5706,5.5706,5.559,5.5549,5.5549,5.5666,5.5782,5.5879,5.5936,5.5861,5.5879,5.5706,5.5406,5.5113,5.4989,5.5001,5.4737,5.4471,5.4506,5.3912,5.3688,5.3262,5.2448,5.1654,5.0697,5.0216,4.9819,4.9538,4.9239,4.8862,4.8263,4.7738,4.7005,4.6138,4.5043,4.4109,4.2981,4.1931,4.091,3.9835,3.8988,3.8104,3.718,3.6345,3.5421,3.4521,3.3951,3.335,3.2747,3.2737,3.2612,3.2373,3.2373,3.2028,3.1208,3.0616,3.003,2.9203,2.8379,2.7539,2.6935,2.6327,2.6083,2.6075,2.5953,2.6205,2.6571,2.67,2.6571,2.6327,2.6075,2.579,2.4901,2.4071,2.3307,2.2833,2.237,2.2147,2.1886,2.1553,2.0809,2.0155,1.9555,1.8854,1.8115,1.7221,1.6487,1.6222,1.5937,1.5828,1.5771,1.5687,1.5697,1.5752,1.5462,1.5267,1.5008,1.4865,1.4699,1.4525,1.443,1.4397,1.4355,1.4383,1.4506,5.859,5.859,5.859,5.8443,5.8186,5.7978,5.7667,5.7307,5.6899,5.6492,5.6123,5.6011,5.5954,5.5822,5.5764,5.5822,5.6011,5.6067,5.6106,5.6067,5.5993,5.5764,5.5595,5.568,5.5737,5.5619,5.5501,5.5517,5.5101,5.5007,5.4497,5.3961,5.3166,5.2141,5.1323,5.0827,5.0631,5.0046,5.0064,5.011,4.956,4.9216,4.8639,4.7575,4.6228,4.4963,4.3681,4.2551,4.1338,4.0124,3.9253,3.8433,3.7524,3.6584,3.5606,3.4712,3.3951,3.3361,3.2893,3.2727,3.2612,3.2612,3.2487,3.2258,3.1787,3.1325,3.0616,2.9705,2.8792,2.7944,2.6813,2.6336,2.6092,2.6075,2.6197,2.6449,2.6692,2.6692,2.6571,2.6327,2.6075,2.4964,2.3961,2.3333,2.2646,2.221,2.1793,2.1796,2.176,2.146,2.0984,2.0295,1.9653,1.8892,1.8068,1.7338,1.6708,1.6336,1.6216,1.614,1.6183,1.6188,1.6317,1.6239,1.5913,1.5463,1.5322,1.5029,1.4923,1.4752,1.4652,1.4624,1.4648,1.469,1.4775,5.8698,5.8698,5.8698,5.8656,5.8511,5.8294,5.7978,5.7649,5.7188,5.6794,5.6437,5.6401,5.6273,5.6088,5.6049,5.6106,5.6253,5.6197,5.6235,5.6253,5.6106,5.6074,5.6194,5.636,5.6613,5.6564,5.684,5.685,5.667,5.6359,5.5455,5.43,5.3396,5.2829,5.2178,5.1686,5.1348,5.0933,5.1065,5.0832,5.032,4.9883,4.926,4.819,4.6912,4.5582,4.4266,4.2973,4.1671,4.0503,3.959,3.8773,3.7761,3.6715,3.5802,3.4891,3.3866,3.3287,3.2872,3.2727,3.2727,3.2612,3.2727,3.2498,3.2143,3.1556,3.0869,3.0083,2.9269,2.8303,2.7267,2.6759,2.6372,2.6381,2.6371,2.6633,2.6847,2.6726,2.6449,2.6205,2.5594,2.4355,2.3113,2.2376,2.1818,2.1447,2.1202,2.1332,2.1445,2.1231,2.0916,2.0372,1.9807,1.9018,1.8343,1.7631,1.7108,1.6575,1.6462,1.6377,1.6431,1.6436,1.6581,1.6583,1.612,1.5792,1.55,1.5173,1.5014,1.4884,1.4865,1.4874,1.4931,1.4936,1.4936,5.8716,5.8716,5.8716,5.8754,5.8675,5.8511,5.8249,5.7792,5.7534,5.7206,5.6847,5.6847,5.6689,5.6455,5.629,5.6346,5.6401,5.6308,5.6346,5.6346,5.6235,5.6493,5.6763,5.6916,5.743,5.8107,5.839,5.8265,5.8427,5.6949,5.5636,5.4705,5.3973,5.3406,5.2838,5.2349,5.2001,5.1831,5.1621,5.1302,5.0906,5.0035,4.9156,4.8158,4.6942,4.5944,4.4642,4.3379,4.222,4.1158,4.013,3.8915,3.7832,3.686,3.5945,3.4925,3.377,3.3193,3.2727,3.2727,3.2727,3.2727,3.2727,3.2383,3.2058,3.1752,3.1241,3.0577,2.9703,2.8914,2.8123,2.747,2.6942,2.6668,2.6462,2.6685,2.6836,2.6751,2.6336,2.5839,2.5218,2.4108,2.2487,2.1628,2.1129,2.0736,2.0475,2.0709,2.0836,2.098,2.0795,2.0624,1.9931,1.9369,1.86,1.8037,1.7382,1.6965,1.6789,1.6669,1.6729,1.6673,1.6764,1.6728,1.6307,1.5844,1.5453,1.5062,1.4926,1.4936,1.4936,1.4936,1.4936,1.4936,1.4936,5.8799,5.8772,5.9329,5.9255,5.8712,5.8572,5.8338,5.8088,5.7886,5.7631,5.7356,5.7257,5.7087,5.6847,5.6812,5.676,5.6653,5.6546,5.6546,5.6437,5.6346,5.6677,5.7114,5.76,5.8245,5.8879,5.9236,5.9015,5.8123,5.6812,5.5757,5.4821,5.426,5.3693,5.3257,5.2887,5.2709,5.2412,5.2146,5.1686,5.1235,5.0545,4.9558,4.8505,4.7265,4.6324,4.5188,4.3834,4.2682,4.1568,4.0682,3.9531,3.819,3.7346,3.63,3.4524,3.3646,3.3079,3.2727,3.2727,3.2727,3.2727,3.2727,3.2498,3.2214,3.2009,3.1633,3.0821,3.0167,2.9322,2.8498,2.7823,2.7144,2.6861,2.6632,2.6479,2.6627,2.6305,2.6011,2.5341,2.4602,2.3479,2.1985,2.1242,2.0615,2.0094,1.9839,2.01,2.0329,2.0478,2.0671,2.0638,2.0216,1.9543,1.905,1.847,1.7788,1.7256,1.7053,1.6981,1.6807,1.6872,1.6931,1.6711,1.6353,1.5714,1.5062,1.4931,1.4936,1.4936,1.4936,1.4936,1.4936,1.4936,1.4936,5.9045,5.9297,5.9701,5.9794,5.9687,5.9311,5.9096,5.8931,5.8415,5.8042,5.7839,5.7763,5.7534,5.7356,5.7257,5.7156,5.7036,5.6847,5.6742,5.6689,5.6528,5.6937,5.7469,5.789,5.8307,5.8987,5.9299,5.9011,5.7989,5.6773,5.5576,5.5046,5.4303,5.4059,5.3815,5.3753,5.3532,5.3098,5.2641,5.2125,5.166,5.1039,5.0092,4.9154,4.7865,4.681,4.5823,4.4439,4.3328,4.2248,4.1372,4.0122,3.8644,3.7418,3.5972,3.43,3.3759,3.3182,3.2841,3.2727,3.2727,3.2727,3.2727,3.2487,3.2309,3.2064,3.1476,3.0849,3.026,2.9668,2.8737,2.7972,2.7374,2.6906,2.6726,2.6417,2.6164,2.5904,2.5306,2.4626,2.3736,2.2606,2.1607,2.0856,2.0227,1.9717,1.9456,1.9584,1.9973,2.0316,2.0663,2.0896,2.0404,1.9859,1.9364,1.8812,1.825,1.7712,1.7507,1.7312,1.713,1.6872,1.6856,1.6602,1.6229,1.5714,1.5062,1.4931,1.4936,1.4936,1.4936,1.4936,1.4936,1.4936,1.4936,5.944,6.0091,6.0022,6.051,6.1116,6.039,6.0039,6.0065,5.8929,5.8393,5.8286,5.8242,5.8088,5.7821,5.7745,5.7565,5.7419,5.7239,5.7087,5.7036,5.6933,5.7208,5.7658,5.7836,5.8407,5.8616,5.8792,5.8832,5.8007,5.6874,5.5844,5.5319,5.5164,5.4948,5.4826,5.4826,5.4626,5.4173,5.3408,5.2837,5.2026,5.1182,5.0195,4.9437,4.8537,4.7609,4.6624,4.5494,4.4298,4.3163,4.1914,4.0642,3.8792,3.7096,3.5488,3.4513,3.3851,3.3296,3.2841,3.2727,3.2727,3.2727,3.2727,3.2487,3.2299,3.2241,3.1663,3.0888,3.0401,2.9677,2.8737,2.8109,2.7506,2.6939,2.6536,2.6372,2.6105,2.5598,2.5028,2.4355,2.3479,2.2355,2.1355,2.0609,1.9973,1.9462,1.9206,1.9328,1.9584,2.0094,2.0348,2.0729,2.0342,1.9833,1.9693,1.9152,1.853,1.8156,1.7781,1.7394,1.7136,1.6877,1.6748,1.6488,1.6099,1.5583,1.5192,1.5062,1.4936,1.4936,1.4936,1.4936,1.4936,1.4936,1.4936,6.0126,6.0308,6.0864,6.1297,6.1334,6.0588,5.9977,5.9457,5.9192,5.8902,5.8716,5.8614,5.8468,5.8319,5.8231,5.806,5.7923,5.7755,5.7583,5.7468,5.732,5.7565,5.8099,5.8153,5.8554,5.9006,5.9114,5.8609,5.7813,5.6929,5.6336,5.6162,5.6052,5.6017,5.5773,5.5848,5.5653,5.5244,5.479,5.383,5.2867,5.2092,5.1173,5.0381,4.9567,4.8728,4.7683,4.6476,4.536,4.4298,4.2889,4.1019,3.8712,3.6785,3.5488,3.4491,3.3952,3.3296,3.2955,3.2727,3.2727,3.2727,3.2612,3.2487,3.235,3.2362,3.184,3.1036,3.027,2.9545,2.8794,2.8162,2.7555,2.706,2.6432,2.6159,2.5894,2.5265,2.4757,2.3984,2.323,2.223,2.1362,2.0482,1.9845,1.9462,1.9206,1.92,1.9456,1.9839,1.9839,2.0094,1.996,1.9705,1.9584,1.9328,1.8688,1.8302,1.791,1.7523,1.7136,1.7007,1.6748,1.6359,1.5974,1.5583,1.5192,1.4936,1.4936,1.4936,1.4936,1.4936,1.4936,1.4936,1.4936,6.0374,6.0447,6.1213,6.159,6.152,6.0808,6.0266,5.9964,5.9588,5.9401,5.929,5.9081,5.8905,5.8747,5.8665,5.86,5.8455,5.8326,5.8176,5.8041,5.796,5.8069,5.8256,5.8343,5.8367,5.876,5.8595,5.8115,5.767,5.7259,5.6865,5.6847,5.6933,5.6915,5.674,5.6758,5.6635,5.6342,5.5978,5.5203,5.3965,5.3328,5.2583,5.1816,5.0973,5.0006,4.8714,4.7463,4.6058,4.4342,4.2447,4.0296,3.8184,3.6625,3.5613,3.477,3.4076,3.3409,3.3069,3.2841,3.2727,3.2727,3.2727,3.2602,3.2498,3.2347,3.1533,3.0856,3.0055,2.9337,2.848,2.7824,2.7346,2.6744,2.6215,2.5817,2.5461,2.4983,2.461,2.4108,2.323,2.2362,2.1362,2.0609,1.9973,1.9584,1.9328,1.9072,1.9328,1.945,1.9584,1.9584,1.9584,1.9577,1.9577,1.9328,1.895,1.8431,1.8168,1.7653,1.7136,1.7001,1.6872,1.6359,1.5844,1.5583,1.5323,1.4936,1.4936,1.4936,1.4936,1.4936,1.4936,1.4936,1.4936,6.0547,6.0734,6.1409,6.1713,6.1694,6.109,6.0748,6.0694,6.0122,5.9815,5.988,5.9559,5.9363,5.9215,5.9159,5.9121,5.9044,5.8889,5.8791,5.8669,5.8586,5.859,5.8462,5.8375,5.8434,5.8272,5.8077,5.7934,5.7662,5.7516,5.7516,5.7534,5.7631,5.7679,5.7631,5.7565,5.7351,5.6921,5.6554,5.6187,5.5494,5.4765,5.3798,5.2977,5.2207,5.1152,4.9763,4.8262,4.6716,4.454,4.2133,3.9764,3.8024,3.6694,3.5688,3.4912,3.4246,3.3717,3.3296,3.3069,3.2955,3.2841,3.2727,3.2727,3.2612,3.2153,3.146,3.0761,3.009,2.9265,2.8412,2.771,2.7109,2.6469,2.5943,2.5492,2.517,2.4749,2.4487,2.4108,2.323,2.2362,2.1607,2.0736,2.01,1.9711,1.945,1.92,1.92,1.92,1.9328,1.9328,1.9328,1.9456,1.945,1.9328,1.895,1.8565,1.8173,1.7653,1.726,1.713,1.6742,1.6229,1.5844,1.5583,1.5323,1.4936,1.4936,1.4936,1.4936,1.4936,1.4936,1.4936,1.4936,6.124,6.1861,6.2012,6.1762,6.1281,6.1141,6.0785,6.0323,6.0232,6.0169,6.0332,6.0207,6.0,5.9753,5.9628,5.9575,5.954,5.9432,5.9344,5.9253,5.9215,5.9065,5.8968,5.887,5.871,5.8521,5.8326,5.8168,5.8105,5.8123,5.8123,5.8123,5.8257,5.8257,5.8168,5.7986,5.7657,5.7198,5.6591,5.6104,5.5274,5.4525,5.4032,5.3129,5.2102,5.1078,4.9944,4.8625,4.734,4.5372,4.2587,3.9865,3.8003,3.6807,3.5758,3.5016,3.4372,3.4011,3.3695,3.3399,3.3296,3.3069,3.3069,3.2955,3.2727,3.2487,3.1797,3.1102,3.0329,2.937,2.8537,2.779,2.7193,2.6364,2.5625,2.5362,2.502,2.4741,2.4487,2.3984,2.3238,2.248,2.172,2.0849,2.0113,1.9724,1.9456,1.92,1.92,1.92,1.9072,1.92,1.92,1.92,1.92,1.92,1.895,1.8565,1.8173,1.7653,1.7265,1.713,1.6748,1.6229,1.5839,1.5709,1.5323,1.4936,1.4936,1.4936,1.4936,1.4936,1.4936,1.4931,1.48]},{"header":{"parameterUnit":"m.s-1","parameterCategory":1,"la1":31.0,"la2":29.5877,"lo1":-88.7671,"lo2":-86.6584,"dx":0.0162,"dy":0.0185,"nx":115,"ny":88,"refTime":"2023-02-04T06:00:00:Z","depth":0,"parameterNumber":3,"parameterNumberName":"V-component_of_WINDS"},"data":[0.0,0.0,0.0,0.0,0.0,0.0,0.0,0.0,0.0,0.0,0.0,0.0,0.0,0.0,0.0,0.0,0.0,0.0,0.0,0.0,0.0,0.0,0.0,0.0,0.0,0.0,0.0,0.0,0.0,0.0,0.0,0.0,0.0,0.0,0.0,0.0,0.0,0.0,0.0,0.0,0.0,0.0,0.0,0.0,0.0,0.0,0.0,0.0,0.0,0.0,0.0,0.0,0.0,0.0,0.0,0.0,0.0,0.0,0.0,0.0,0.0,0.0,0.0,0.0,0.0,0.0,0.0,0.0,0.0,0.0,0.0,0.0,0.0,0.0,0.0,0.0,0.0,0.0,0.0,0.0,0.0,0.0,0.0,0.0,0.0,0.0,0.0,0.0,0.0,0.0,0.0,0.0,0.0,0.0,0.0,0.0,0.0,0.0,0.0,0.0,0.0,0.0,0.0,0.0,0.0,0.0,0.0,0.0,0.0,0.0,0.0,0.0,0.0,0.0,0.0,0.0,0.0,0.0,0.0,0.0,0.0,0.0,0.0,0.0,0.0,0.0,0.0,0.0,0.0,0.0,0.0,0.0,0.0,0.0,0.0,0.0,0.0,0.0,0.0,0.0,0.0,0.0,0.0,0.0,0.0,0.0,0.0,0.0,0.0,0.0,0.0,0.0,0.0,0.0,0.0,0.0,0.0,0.0,0.0,0.0,0.0,0.0,0.0,0.0,0.0,0.0,0.0,0.0,0.0,0.0,0.0,0.0,0.0,0.0,0.0,0.0,0.0,0.0,0.0,0.0,0.0,0.0,0.0,0.0,0.0,0.0,0.0,0.0,0.0,0.0,0.0,0.0,0.0,0.0,0.0,0.0,0.0,0.0,0.0,0.0,0.0,0.0,0.0,0.0,0.0,0.0,0.0,0.0,0.0,0.0,0.0,0.0,0.0,0.0,0.0,0.0,0.0,0.0,0.0,0.0,0.0,0.0,0.0,0.0,0.0,0.0,0.0,0.0,0.0,0.0,0.0,0.0,0.0,0.0,0.0,0.0,0.0,0.0,0.0,0.0,0.0,0.0,0.0,0.0,0.0,0.0,0.0,0.0,0.0,0.0,0.0,0.0,0.0,0.0,0.0,0.0,0.0,0.0,0.0,0.0,0.0,0.0,0.0,0.0,0.0,0.0,0.0,0.0,0.0,0.0,0.0,0.0,0.0,0.0,0.0,0.0,0.0,0.0,0.0,0.0,0.0,0.0,0.0,0.0,0.0,0.0,0.0,0.0,0.0,0.0,0.0,0.0,0.0,0.0,0.0,0.0,0.0,0.0,0.0,0.0,0.0,0.0,0.0,0.0,0.0,0.0,0.0,0.0,0.0,0.0,0.0,0.0,0.0,0.0,0.0,0.0,0.0,0.0,0.0,0.0,0.0,0.0,0.0,0.0,0.0,0.0,0.0,0.0,0.0,0.0,0.0,0.0,0.0,0.0,0.0,0.0,0.0,0.0,0.0,0.0,0.0,0.0,0.0,0.0,0.0,0.0,0.0,0.0,0.0,0.0,0.0,0.0,0.0,0.0,0.0,0.0,0.0,0.0,0.0,0.0,0.0,0.0,0.0,0.0,0.0,0.0,0.0,0.0,0.0,0.0,0.0,0.0,0.0,0.0,0.0,0.0,0.0,0.0,0.0,0.0,0.0,0.0,0.0,0.0,0.0,0.0,0.0,0.0,0.0,0.0,0.0,0.0,0.0,0.0,0.0,0.0,0.0,0.0,0.0,0.0,0.0,0.0,0.0,0.0,0.0,0.0,0.0,0.0,0.0,0.0,0.0,0.0,0.0,0.0,0.0,0.0,0.0,0.0,0.0,0.0,0.0,0.0,0.0,0.0,0.0,0.0,0.0,0.0,0.0,0.0,0.0,0.0,0.0,0.0,0.0,0.0,0.0,0.0,0.0,0.0,0.0,0.0,0.0,0.0,0.0,0.0,0.0,0.0,0.0,0.0,0.0,0.0,0.0,0.0,0.0,0.0,0.0,0.0,0.0,0.0,0.0,0.0,0.0,0.0,0.0,0.0,0.0,0.0,0.0,0.0,0.0,0.0,0.0,0.0,0.0,0.0,0.0,0.0,0.0,0.0,0.0,0.0,0.0,0.0,0.0,0.0,0.0,0.0,0.0,0.0,0.0,0.0,0.0,0.0,0.0,0.0,0.0,0.0,0.0,0.0,0.0,0.0,0.0,0.0,0.0,0.0,0.0,0.0,0.0,0.0,0.0,0.0,0.0,0.0,0.0,0.0,0.0,0.0,0.0,0.0,0.0,0.0,0.0,0.0,0.0,0.0,0.0,0.0,0.0,0.0,0.0,0.0,0.0,0.0,0.0,0.0,0.0,0.0,0.0,0.0,0.0,0.0,0.0,0.0,0.0,0.0,0.0,0.0,0.0,0.0,0.0,0.0,0.0,0.0,0.0,0.0,0.0,0.0,0.0,0.0,0.0,0.0,0.0,0.0,0.0,0.0,0.0,0.0,0.0,0.0,0.0,0.0,0.0,0.0,0.0,0.0,0.0,0.0,0.0,0.0,0.0,0.0,0.0,0.0,0.0,0.0,0.0,0.0,0.0,0.0,0.0,0.0,0.0,0.0,0.0,0.0,0.0,0.0,0.0,0.0,0.0,0.0,0.0,0.0,0.0,0.0,0.0,0.0,0.0,0.0,0.0,0.0,0.0,0.0,0.0,0.0,0.0,0.0,0.0,0.0,0.0,0.0,0.0,0.0,0.0,0.0,0.0,0.0,0.0,0.0,0.0,0.0,0.0,0.0,0.0,0.0,0.0,0.0,0.0,0.0,0.0,0.0,0.0,0.0,0.0,0.0,0.0,0.0,0.0,0.0,0.0,0.0,0.0,0.0,0.0,0.0,0.0,0.0,0.0,0.0,0.0,0.0,0.0,0.0,0.0,0.0,0.0,0.0,0.0,0.0,0.0,0.0,0.0,0.0,0.0,0.0,0.0,0.0,0.0,0.0,0.0,0.0,0.0,0.0,0.0,0.0,0.0,0.0,0.0,0.0,0.0,0.0,0.0,0.0,0.0,0.0,0.0,0.0,0.0,0.0,0.0,0.0,0.0,0.0,0.0,0.0,0.0,0.0,0.0,0.0,0.0,0.0,0.0,0.0,0.0,0.0,0.0,0.0,0.0,0.0,0.0,0.0,0.0,0.0,0.0,0.0,0.0,0.0,0.0,0.0,0.0,0.0,0.0,0.0,0.0,0.0,0.0,0.0,0.0,0.0,0.0,0.0,0.0,0.0,0.0,0.0,0.0,0.0,0.0,0.0,0.0,0.0,0.0,0.0,0.0,0.0,0.0,0.0,0.0,0.0,0.0,0.0,0.0,0.0,0.0,0.0,0.0,0.0,0.0,0.0,0.0,0.0,0.0,0.0,0.0,0.0,0.0,0.0,0.0,0.0,0.0,0.0,0.0,0.0,0.0,0.0,0.0,0.0,0.0,0.0,0.0,0.0,0.0,0.0,0.0,0.0,0.0,0.0,0.0,0.0,0.0,0.0,0.0,0.0,0.0,0.0,0.0,0.0,0.0,0.0,0.0,0.0,0.0,0.0,0.0,0.0,0.0,0.0,0.0,0.0,0.0,0.0,0.0,0.0,0.0,0.0,0.0,0.0,0.0,0.0,0.0,0.0,0.0,0.0,0.0,0.0,0.0,0.0,0.0,0.0,0.0,0.0,0.0,0.0,0.0,0.0,0.0,0.0,0.0,0.0,0.0,0.0,0.0,0.0,0.0,0.0,0.0,0.0,0.0,0.0,0.0,0.0,0.0,0.0,0.0,0.0,0.0,0.0,0.0,0.0,0.0,0.0,0.0,0.0,0.0,0.0,0.0,0.0,0.0,0.0,0.0,0.0,0.0,0.0,0.0,0.0,0.0,0.0,0.0,0.0,0.0,0.0,0.0,0.0,0.0,0.0,0.0,0.0,0.0,0.0,0.0,0.0,0.0,0.0,0.0,0.0,0.0,0.0,0.0,0.0,0.0,0.0,0.0,0.0,0.0,0.0,0.0,0.0,0.0,0.0,0.0,0.0,0.0,0.0,0.0,0.0,0.0,0.0,0.0,0.0,0.0,0.0,0.0,0.0,0.0,0.0,0.0,0.0,0.0,0.0,0.0,0.0,0.0,0.0,0.0,0.0,0.0,0.0,0.0,0.0,0.0,0.0,0.0,0.0,0.0,0.0,0.0,0.0,0.0,0.0,0.0,0.0,0.0,0.0,0.0,0.0,1.0822,0.0,0.0,0.0,0.0,0.0,0.0,0.0,0.0,0.0,0.0,0.0,0.0,0.0,0.0,0.0,0.0,0.0,0.0,0.0,0.0,0.0,0.0,0.0,0.0,0.0,0.0,0.0,0.0,0.0,0.0,0.0,0.0,0.0,0.0,0.0,0.0,0.0,0.0,0.0,0.0,0.0,0.0,0.0,0.0,0.0,0.0,0.0,0.0,0.0,0.0,0.0,0.0,0.0,0.0,0.0,0.0,0.0,0.0,0.0,0.0,0.0,0.0,0.0,0.0,0.0,0.0,0.0,0.0,0.0,0.0,0.0,0.0,0.0,0.0,0.0,0.0,0.0,0.0,0.0,0.0,0.0,0.0,0.0,0.0,0.0,0.0,0.0,0.0,0.0,0.0,0.0,0.0,0.0,0.0,0.0,0.0,0.0,0.0,0.0,0.0,0.0,0.0,0.0,0.0,0.0,0.0,0.0,0.0,0.0,0.0,0.8603,0.9233,0.9563,1.004,1.0771,0.0,0.0,0.0,0.0,0.0,0.0,0.0,0.0,0.0,0.0,0.0,0.0,0.0,0.0,0.0,0.0,0.0,0.0,0.0,0.0,0.0,0.0,0.0,0.0,0.0,0.0,0.0,0.0,0.0,0.0,0.0,0.0,0.0,0.0,0.0,0.0,0.0,0.0,0.0,0.0,0.0,0.0,0.0,0.0,0.0,0.0,0.0,0.0,0.0,0.0,0.0,0.0,0.0,0.0,0.0,0.0,0.0,0.0,0.0,0.0,0.0,0.0,0.0,0.0,0.0,0.0,0.0,0.0,0.0,0.0,0.0,0.0,0.0,0.0,0.0,0.0,0.0,0.0,0.0,0.0,0.0,0.0,0.0,0.0,0.0,0.0,0.0,0.0,0.0,0.0,0.0,0.0,0.0,0.0,0.0,0.0,0.0,0.0,0.0,0.0,0.0,0.0,0.0,0.0,0.0,0.0,0.0,0.0,0.0,0.0,0.0,0.0,0.9657,1.0234,1.1122,0.0,0.0,0.0,0.0,0.0,0.0,0.0,0.0,0.0,0.0,0.0,0.0,0.0,0.0,0.0,0.0,0.0,0.0,0.0,0.0,0.0,0.0,0.0,0.0,0.0,0.0,0.0,0.0,0.0,0.0,0.0,0.0,0.0,0.0,0.0,0.0,0.0,0.0,0.0,0.0,0.0,0.0,0.0,0.0,0.0,0.0,0.0,0.0,0.0,0.0,0.0,0.0,0.0,0.0,0.0,0.0,0.0,0.0,0.0,0.0,0.0,0.0,0.0,0.0,0.0,0.0,0.0,0.0,0.0,0.0,0.0,0.0,0.0,0.0,0.0,0.0,0.0,0.0,0.0,0.0,0.0,0.0,0.0,0.0,0.0,0.0,0.0,0.0,0.0,0.0,0.0,0.0,0.0,0.0,0.0,0.0,0.0,0.0,0.0,0.0,0.0,0.0,0.0,0.0,0.0,0.0,0.0,0.0,0.0,0.0,0.8837,0.9561,0.9838,0.0,1.2491,0.0,0.0,0.0,0.0,0.0,0.0,0.0,0.0,0.0,0.0,0.0,0.0,0.0,0.0,0.0,0.0,0.0,0.0,0.0,0.0,0.0,0.0,0.0,0.0,0.0,0.0,0.0,0.0,0.0,0.0,0.0,0.0,0.0,0.0,0.0,0.0,0.0,0.0,0.0,0.0,0.0,0.0,0.0,0.0,0.0,0.0,0.0,0.0,0.0,0.0,0.0,0.0,0.0,0.0,0.0,0.0,0.0,0.0,0.0,0.0,0.0,0.0,0.0,0.0,0.0,0.0,0.0,0.0,0.0,0.0,0.0,0.0,0.0,0.0,0.0,0.0,0.0,0.0,0.0,0.0,0.0,0.0,0.0,0.0,0.0,0.0,0.0,0.0,0.0,0.0,0.0,0.0,0.0,0.0,0.0,0.0,0.0,0.0,0.0,0.0,0.0,0.0,0.0,0.0,0.0,0.0,0.0,0.0,0.0,0.0,0.8801,0.9543,1.0291,1.1333,0.0,0.0,0.0,0.0,0.0,0.0,0.0,0.0,0.0,0.0,0.0,0.0,0.0,0.0,0.0,0.0,0.0,0.0,0.0,0.0,0.0,0.0,0.0,0.0,0.0,0.0,0.0,0.0,0.0,0.0,0.0,0.0,0.0,0.0,0.0,0.0,0.0,0.0,0.0,0.0,0.0,0.0,0.0,0.0,0.0,0.0,0.0,0.0,0.0,0.0,0.0,0.0,0.0,0.0,0.0,0.0,0.0,0.0,0.0,0.0,0.0,0.0,0.0,0.0,0.0,0.0,0.0,0.0,0.0,0.0,0.0,0.0,0.0,0.0,0.0,0.0,0.0,0.0,0.0,0.0,0.0,0.0,0.0,0.0,0.0,0.0,0.0,0.0,0.0,0.0,0.0,0.0,0.0,0.0,0.0,0.0,0.0,0.0,0.0,0.0,0.0,0.0,0.0,0.0,0.0,0.0,0.0,0.0,0.0,0.0,0.8442,0.8755,0.9531,1.0562,1.1542,1.2413,0.0,0.0,0.0,0.0,0.0,0.0,0.0,0.0,0.0,0.0,0.0,0.0,0.0,0.0,0.0,0.0,0.0,0.0,0.0,0.0,0.0,0.0,0.0,0.0,0.0,0.0,0.0,0.0,0.0,0.0,0.0,0.0,0.0,0.0,0.0,0.0,0.0,0.0,0.0,0.0,0.0,0.0,0.0,0.0,0.0,0.0,0.0,0.0,0.0,0.0,0.0,0.0,0.0,0.0,0.0,0.0,0.0,0.0,0.0,0.0,0.0,0.0,0.0,0.0,0.0,0.0,0.0,0.0,0.0,0.0,0.0,0.0,0.0,0.0,0.0,0.0,0.0,0.0,0.0,0.0,0.0,0.0,0.0,0.0,0.0,0.0,0.0,0.0,0.0,0.0,0.0,0.0,0.0,0.0,0.0,0.0,0.0,0.0,0.0,0.0,0.0,0.0,0.0,0.0,0.0,0.0,0.0,0.0,0.848,0.8488,0.8852,0.9579,1.0447,1.1282,0.0,0.0,0.0,0.0,0.0,0.0,0.0,0.0,0.0,0.0,0.0,0.0,0.0,0.0,0.0,0.0,0.0,0.0,0.0,0.0,0.0,0.0,0.0,0.0,0.0,0.0,0.0,0.0,0.0,0.0,0.0,0.0,0.0,0.0,0.0,0.0,0.0,0.0,0.0,0.0,0.0,0.0,0.0,0.0,0.0,0.0,0.0,0.0,0.0,0.0,0.0,0.0,0.0,0.0,0.0,0.0,0.0,0.0,0.0,0.0,0.0,0.0,0.0,0.0,0.0,0.0,0.0,0.0,0.0,0.0,0.0,0.0,0.0,0.0,0.0,0.0,0.0,0.0,0.0,0.0,0.0,0.0,0.0,0.0,0.0,0.0,0.0,0.0,0.0,0.0,0.0,0.0,0.0,0.0,0.0,0.0,0.0,0.0,0.0,0.0,0.0,0.0,0.0,0.0,0.0,0.0,0.0,0.0,0.0,0.8185,0.8472,0.8878,0.939,1.0293,1.1159,0.0,0.0,0.0,0.0,0.0,0.0,0.0,0.0,0.0,0.0,0.0,0.0,0.0,0.0,0.0,0.0,0.0,0.0,0.0,0.0,0.0,0.0,0.0,0.0,0.0,0.0,0.0,0.0,0.0,0.0,0.0,0.0,0.0,0.0,0.0,0.0,0.0,0.0,0.0,0.0,0.0,0.0,0.0,0.0,0.0,0.0,0.0,0.0,0.0,0.0,0.0,0.0,0.0,0.0,0.0,0.0,0.0,0.0,0.0,0.0,0.0,0.0,0.0,0.0,0.0,0.0,0.0,0.0,0.0,0.0,0.0,0.0,0.0,0.0,0.0,0.0,0.0,0.0,0.0,0.0,0.0,0.0,0.0,0.0,0.0,0.0,0.0,0.0,0.0,0.0,0.0,0.0,0.0,0.0,0.0,0.0,0.0,0.0,0.0,0.0,0.0,0.0,0.0,0.0,0.0,0.0,0.0,0.0,0.0,0.8021,0.0,0.8797,0.9319,1.0176,1.1057,0.0,0.0,0.0,0.0,0.0,0.0,0.0,0.0,0.0,0.0,0.0,0.0,0.0,0.0,0.0,0.0,0.0,0.0,0.0,0.0,0.0,0.0,0.0,0.0,0.0,0.0,0.0,0.0,0.0,0.0,0.0,0.0,0.0,0.0,0.0,0.0,0.0,0.0,0.0,0.0,0.0,0.0,0.0,0.0,0.0,0.0,0.0,0.0,0.0,0.0,0.0,0.0,0.0,0.0,0.0,0.0,0.0,0.0,0.0,0.0,0.0,0.0,0.0,0.0,0.0,0.0,0.0,0.0,0.0,0.0,0.0,0.0,0.0,0.0,0.0,0.0,0.0,0.0,0.0,0.0,0.0,0.0,0.0,0.0,0.0,0.0,0.0,0.0,0.0,0.0,0.0,0.0,0.0,0.0,0.0,0.0,0.0,0.0,0.0,0.0,0.0,0.0,0.0,0.0,0.0,0.0,0.0,0.0,0.7927,0.8028,0.8291,0.8766,0.9337,1.0176,1.1002,0.0,0.0,0.0,0.0,0.0,0.0,0.0,0.0,0.0,0.0,0.0,0.0,0.0,0.0,0.0,0.0,0.0,0.0,0.0,0.0,0.0,0.0,0.0,0.0,0.0,0.0,0.0,0.0,0.0,0.0,0.0,0.0,0.0,0.0,0.0,0.0,0.0,0.0,0.0,0.0,0.0,0.0,0.0,0.0,0.0,0.0,0.0,0.0,0.0,0.0,0.0,0.0,0.0,0.0,0.0,0.0,0.0,0.0,0.0,0.0,0.0,0.0,0.0,0.0,0.0,0.0,0.0,0.0,0.0,0.0,0.0,0.0,0.0,0.0,0.0,0.0,0.0,0.0,0.0,0.0,0.0,0.0,0.0,0.0,0.0,0.0,0.0,0.0,0.0,0.0,0.0,0.0,0.0,0.0,0.0,0.0,0.0,0.0,0.0,0.0,0.0,0.0,0.0,0.0,0.0,0.0,0.0,0.0,0.0,0.8301,0.8773,0.9453,1.0238,1.0809,1.1491,0.0,0.0,0.0,0.0,0.0,0.0,0.0,0.0,0.0,0.0,0.0,0.0,0.0,0.0,0.0,0.0,0.0,0.0,0.0,0.0,0.0,0.0,0.0,0.0,0.0,0.0,0.0,0.0,0.0,0.0,0.0,0.0,0.0,0.0,0.0,0.0,0.0,0.0,0.0,0.0,0.0,0.0,0.0,0.0,0.0,0.0,0.0,0.0,0.0,0.0,0.0,0.0,0.0,0.0,0.0,0.0,0.0,0.0,0.0,0.0,0.0,0.0,0.0,0.0,0.0,0.0,0.0,0.0,0.0,0.0,0.0,0.0,0.0,0.0,0.0,0.0,0.0,0.0,0.0,0.0,0.0,0.0,0.0,0.0,0.0,0.0,0.0,0.0,0.0,0.0,0.0,0.0,0.0,0.0,0.0,0.0,0.0,0.0,0.0,0.0,0.0,0.0,0.0,0.0,0.0,0.0,0.0,0.0,0.0,0.9308,0.9509,1.003,1.0901,1.1482,1.2157,1.3009,0.0,0.0,0.0,0.0,0.0,0.0,0.0,0.0,0.0,0.0,0.0,0.0,0.0,0.0,0.0,0.0,0.0,0.0,0.0,0.0,0.0,0.0,0.0,0.0,0.0,0.0,0.0,0.0,0.0,0.0,0.0,0.0,0.0,0.0,0.0,0.0,0.0,0.0,0.0,0.0,0.0,0.0,0.0,0.0,0.0,0.0,0.0,0.0,0.0,0.0,0.0,0.0,0.0,0.0,0.0,0.0,0.0,0.0,0.0,0.0,0.0,0.0,0.0,0.0,0.0,0.0,0.0,0.0,0.0,0.0,0.0,0.0,0.0,0.0,0.0,0.0,0.0,0.0,0.0,0.0,0.0,0.0,0.0,0.0,0.0,0.0,0.0,0.0,0.0,0.0,0.0,0.0,0.0,0.0,0.0,0.0,0.0,0.0,0.0,0.0,0.0,0.0,0.0,0.0,0.0,0.0,0.0,0.0,1.0828,1.0545,1.0687,1.143,1.2167,1.2984,0.0,0.0,0.0,0.0,0.0,0.0,0.0,0.0,0.0,0.0,0.0,0.0,0.0,0.0,0.0,0.0,0.0,0.0,0.0,0.0,0.0,0.0,0.0,0.0,0.0,0.0,0.0,0.0,0.0,0.0,0.0,0.0,0.0,0.0,0.0,0.0,0.0,0.0,0.0,0.0,0.0,0.0,0.0,0.0,0.0,0.0,0.0,0.0,0.0,0.0,0.0,0.0,0.0,0.0,0.0,0.0,0.0,0.0,0.0,0.0,0.0,0.0,0.0,0.0,0.0,0.0,0.0,0.0,0.0,0.0,0.0,0.0,0.0,0.0,0.0,0.0,0.0,0.0,0.0,0.0,0.0,0.0,0.0,0.0,0.0,0.0,0.0,0.0,0.0,0.0,0.0,0.0,0.0,0.0,0.0,0.0,0.0,0.0,0.0,0.0,0.0,0.0,0.0,0.0,0.0,0.0,0.0,0.0,0.0,1.1302,1.1855,1.2301,1.2679,1.3086,1.3682,0.0,0.0,0.0,0.0,0.0,0.0,0.0,0.0,0.0,0.0,0.0,0.0,0.0,0.0,0.0,0.0,0.0,0.0,0.0,0.0,0.0,0.0,0.0,0.0,0.0,0.0,0.0,0.0,0.0,0.0,0.0,0.0,0.0,0.0,0.0,0.0,0.0,0.0,0.0,0.0,0.0,0.0,0.0,0.0,0.0,0.0,0.0,0.0,0.0,0.0,0.0,0.0,0.0,0.0,0.0,0.0,0.0,0.0,0.0,0.0,0.0,0.0,0.0,0.0,0.0,0.0,0.0,0.0,0.0,0.0,0.0,0.0,0.0,0.0,0.0,0.0,0.0,0.0,0.0,0.0,0.0,0.0,0.0,0.0,0.0,0.0,0.0,0.0,0.0,0.0,0.0,0.0,0.0,0.0,0.0,0.0,0.0,0.0,0.0,0.0,0.0,0.0,0.0,0.0,0.0,0.0,0.0,0.0,1.1384,1.2387,1.3125,1.3754,1.411,1.42,1.4593,0.0,0.0,0.0,0.0,0.0,0.0,0.0,0.0,0.0,0.0,0.0,0.0,0.0,0.0,0.0,0.0,0.0,0.0,0.0,0.0,0.0,0.0,0.0,0.0,0.0,0.0,0.0,0.0,0.0,0.0,0.0,0.0,0.0,0.0,0.0,0.0,0.0,0.0,0.0,0.0,0.0,0.0,0.0,0.0,0.0,0.0,0.0,0.0,0.0,0.0,0.0,0.0,0.0,0.0,0.0,0.0,0.0,0.0,0.0,0.0,0.0,0.0,0.0,0.0,0.0,0.0,0.0,0.0,0.0,0.0,0.0,0.0,0.0,0.0,0.0,0.0,0.0,0.0,0.0,0.0,0.0,0.0,0.0,0.0,0.0,0.0,0.0,0.0,0.0,0.0,0.0,0.0,0.0,0.0,0.0,0.0,0.0,0.0,0.0,0.0,0.0,0.0,0.0,0.0,0.0,0.0,0.0,0.0,1.2167,1.367,1.4508,1.5137,1.5527,1.5314,1.5537,0.0,0.0,0.0,0.0,0.0,0.0,0.0,0.0,0.0,0.0,0.0,0.0,0.0,0.0,0.0,0.0,0.0,0.0,0.0,0.0,0.0,0.0,0.0,0.0,0.0,0.0,0.0,0.0,0.0,0.0,0.0,0.0,0.0,0.0,0.0,0.0,0.0,0.0,0.0,0.0,0.0,0.0,0.0,0.0,0.0,0.0,0.0,0.0,0.0,0.0,0.0,0.0,0.0,0.0,0.0,0.0,0.0,0.0,0.0,0.0,0.0,0.0,0.0,0.0,0.0,0.0,0.0,0.0,0.0,0.0,0.0,0.0,0.0,0.0,0.0,0.0,0.0,0.0,0.0,0.0,0.0,0.0,0.0,0.0,0.0,0.0,0.0,0.0,0.0,0.0,0.0,0.0,0.0,0.0,0.0,0.0,0.0,0.0,0.0,0.0,0.0,0.0,0.0,0.0,0.0,0.0,0.0,0.0,1.2888,1.4233,1.6283,1.7128,1.6622,1.6279,1.6266,0.0,0.0,0.0,0.0,0.0,0.0,0.0,0.0,0.0,0.0,0.0,0.0,0.0,0.0,0.0,0.0,0.0,0.0,0.0,0.0,0.0,0.0,0.0,0.0,0.0,0.0,0.0,0.0,0.0,0.0,0.0,0.0,0.0,0.0,0.0,0.0,0.0,0.0,0.0,0.0,0.0,0.0,0.0,0.0,0.0,0.0,0.0,0.0,2.1708,0.0,0.0,0.0,0.0,0.0,0.0,0.0,0.0,0.0,0.0,0.0,0.0,0.0,0.0,0.0,0.0,0.0,0.0,0.0,0.0,0.0,0.0,0.0,0.0,0.0,0.0,0.0,0.0,0.0,0.0,0.0,0.0,0.0,0.0,0.0,0.0,0.0,0.0,0.0,0.0,0.0,0.0,0.0,0.0,0.0,0.0,0.0,0.0,0.0,0.0,0.0,0.0,0.0,0.0,0.0,0.0,0.0,0.0,0.0,1.4124,1.5339,1.7157,1.7836,1.7396,1.7207,1.7156,0.0,0.0,0.0,0.0,0.0,0.0,0.0,0.0,0.0,0.0,0.0,0.0,0.0,0.0,0.0,0.0,0.0,0.0,0.0,0.0,0.0,0.0,0.0,0.0,0.0,0.0,0.0,0.0,0.0,0.0,0.0,0.0,0.0,0.0,0.0,0.0,0.0,0.0,0.0,0.0,0.0,0.0,0.0,0.0,0.0,0.0,0.0,0.0,0.0,0.0,0.0,0.0,0.0,0.0,0.0,0.0,0.0,0.0,0.0,0.0,0.0,0.0,0.0,0.0,0.0,0.0,0.0,0.0,0.0,0.0,0.0,0.0,0.0,0.0,0.0,0.0,0.0,0.0,0.0,0.0,0.0,0.0,0.0,0.0,0.0,0.0,0.0,0.0,0.0,0.0,0.0,0.0,0.0,0.0,0.0,0.0,0.0,0.0,0.0,0.0,0.0,0.0,0.0,0.0,0.0,0.0,0.0,1.4708,1.5367,1.6449,1.7615,1.8201,1.816,1.8105,1.8053,1.7907,0.0,0.0,0.0,0.0,0.0,0.0,0.0,0.0,0.0,0.0,0.0,0.0,0.0,0.0,0.0,0.0,0.0,0.0,0.0,0.0,0.0,0.0,0.0,0.0,0.0,0.0,0.0,0.0,0.0,0.0,0.0,0.0,0.0,0.0,0.0,0.0,0.0,0.0,2.1328,2.1598,0.0,0.0,0.0,0.0,0.0,0.0,0.0,0.0,2.1995,0.0,0.0,0.0,0.0,0.0,0.0,0.0,0.0,0.0,0.0,0.0,0.0,0.0,0.0,0.0,0.0,0.0,0.0,0.0,0.0,0.0,0.0,0.0,0.0,0.0,0.0,0.0,0.0,0.0,0.0,0.0,0.0,0.0,0.0,0.0,0.0,0.0,0.0,0.0,0.0,0.0,0.0,0.0,0.0,0.0,0.0,0.0,0.0,0.0,0.0,0.0,0.0,0.0,0.0,0.0,0.0,1.463,1.5563,1.6303,1.6908,1.8165,1.8934,1.9117,1.9058,1.8955,1.8839,0.0,0.0,0.0,0.0,0.0,0.0,0.0,0.0,0.0,0.0,0.0,0.0,0.0,0.0,0.0,0.0,0.0,0.0,0.0,0.0,0.0,0.0,0.0,0.0,0.0,0.0,0.0,0.0,0.0,0.0,0.0,0.0,0.0,0.0,0.0,0.0,0.0,0.0,0.0,2.2457,2.2654,0.0,0.0,0.0,0.0,0.0,0.0,0.0,0.0,2.3424,0.0,0.0,0.0,0.0,0.0,0.0,0.0,0.0,0.0,0.0,0.0,0.0,0.0,0.0,0.0,0.0,0.0,0.0,0.0,0.0,0.0,0.0,0.0,0.0,0.0,0.0,0.0,0.0,0.0,0.0,0.0,0.0,0.0,0.0,0.0,0.0,0.0,0.0,0.0,0.0,0.0,0.0,0.0,0.0,0.0,0.0,0.0,0.0,0.0,0.0,0.0,0.0,0.0,0.0,0.0,1.5504,1.6236,1.6946,1.7546,1.837,1.8982,1.9356,1.9258,1.9179,0.0,0.0,0.0,0.0,0.0,0.0,0.0,0.0,0.0,0.0,0.0,0.0,0.0,0.0,0.0,0.0,0.0,0.0,0.0,0.0,0.0,0.0,0.0,0.0,0.0,0.0,0.0,0.0,0.0,0.0,0.0,0.0,0.0,0.0,0.0,0.0,0.0,0.0,0.0,0.0,2.3162,2.321,2.35,0.0,0.0,0.0,0.0,0.0,0.0,2.3685,2.3786,0.0,0.0,0.0,0.0,0.0,0.0,0.0,0.0,0.0,0.0,0.0,0.0,0.0,0.0,0.0,0.0,0.0,0.0,0.0,0.0,0.0,0.0,0.0,0.0,0.0,0.0,0.0,0.0,0.0,0.0,0.0,0.0,0.0,0.0,0.0,0.0,0.0,0.0,0.0,0.0,0.0,0.0,0.0,0.0,0.0,0.0,0.0,0.0,0.0,0.0,0.0,0.0,0.0,0.0,0.0,1.6171,1.692,1.7568,1.8265,1.867,1.9155,1.9621,1.951,1.9307,0.0,0.0,0.0,0.0,0.0,0.0,0.0,0.0,0.0,0.0,0.0,0.0,0.0,0.0,0.0,0.0,0.0,0.0,0.0,0.0,0.0,0.0,0.0,0.0,0.0,0.0,0.0,0.0,0.0,0.0,0.0,0.0,0.0,0.0,0.0,0.0,0.0,0.0,0.0,0.0,0.0,2.3775,2.3832,2.389,0.0,0.0,0.0,0.0,2.4446,2.4456,0.0,0.0,0.0,0.0,0.0,0.0,0.0,0.0,0.0,0.0,0.0,0.0,0.0,0.0,0.0,0.0,0.0,0.0,0.0,0.0,0.0,0.0,0.0,0.0,0.0,0.0,0.0,0.0,0.0,0.0,0.0,0.0,0.0,0.0,0.0,0.0,0.0,0.0,0.0,0.0,0.0,0.0,0.0,0.0,0.0,0.0,0.0,0.0,0.0,0.0,0.0,0.0,0.0,0.0,0.0,0.0,1.6244,1.7395,1.8343,1.8983,1.9531,2.0025,2.0432,2.0219,1.984,0.0,0.0,0.0,0.0,0.0,0.0,0.0,0.0,0.0,0.0,0.0,0.0,0.0,0.0,0.0,0.0,0.0,0.0,0.0,0.0,0.0,0.0,0.0,0.0,0.0,0.0,0.0,0.0,0.0,0.0,0.0,0.0,0.0,0.0,0.0,0.0,0.0,0.0,0.0,0.0,0.0,2.4648,2.526,2.5776,2.6124,0.0,0.0,0.0,2.748,2.7147,0.0,0.0,0.0,0.0,0.0,0.0,0.0,0.0,0.0,0.0,0.0,0.0,0.0,0.0,0.0,0.0,0.0,0.0,0.0,0.0,0.0,0.0,0.0,0.0,0.0,0.0,0.0,0.0,0.0,0.0,0.0,0.0,0.0,0.0,0.0,0.0,0.0,0.0,0.0,0.0,0.0,0.0,0.0,0.0,0.0,0.0,0.0,0.0,0.0,0.0,0.0,0.0,0.0,0.0,0.0,1.6193,1.6917,1.8089,1.8934,1.9392,2.0069,2.0582,2.0759,2.0743,2.0446,0.0,0.0,0.0,0.0,0.0,0.0,0.0,0.0,0.0,0.0,0.0,0.0,0.0,0.0,0.0,0.0,0.0,0.0,0.0,0.0,0.0,0.0,0.0,0.0,0.0,0.0,0.0,0.0,0.0,0.0,0.0,0.0,0.0,0.0,0.0,0.0,0.0,0.0,0.0,0.0,0.0,0.0,2.6638,2.7073,0.0,0.0,0.0,2.7907,2.8201,0.0,0.0,0.0,0.0,0.0,0.0,0.0,0.0,0.0,0.0,0.0,0.0,0.0,0.0,0.0,0.0,0.0,0.0,0.0,0.0,0.0,0.0,0.0,0.0,0.0,0.0,0.0,0.0,0.0,0.0,0.0,0.0,0.0,0.0,0.0,0.0,0.0,0.0,0.0,0.0,0.0,0.0,0.0,0.0,0.0,0.0,0.0,0.0,0.0,0.0,0.0,0.0,0.0,0.0,0.0,0.0,0.0,1.7565,1.8774,1.9594,2.0032,2.0677,2.1144,2.1297,2.1192,0.0,0.0,0.0,0.0,0.0,0.0,0.0,0.0,0.0,0.0,0.0,0.0,0.0,0.0,0.0,0.0,0.0,0.0,0.0,0.0,0.0,0.0,0.0,0.0,0.0,0.0,0.0,0.0,0.0,0.0,0.0,0.0,0.0,0.0,0.0,0.0,0.0,0.0,0.0,0.0,0.0,0.0,2.7329,2.7858,2.8266,2.8551,0.0,0.0,2.9181,2.9258,2.9154,2.8903,0.0,0.0,0.0,0.0,0.0,0.0,0.0,0.0,0.0,0.0,0.0,0.0,0.0,0.0,0.0,0.0,0.0,0.0,0.0,0.0,0.0,0.0,0.0,0.0,0.0,0.0,0.0,0.0,0.0,0.0,0.0,0.0,0.0,0.0,0.0,0.0,0.0,0.0,0.0,0.0,0.0,0.0,0.0,0.0,0.0,0.0,0.0,0.0,0.0,0.0,0.0,0.0,0.0,0.0,0.0,1.8027,1.9446,2.0429,2.1069,2.1533,2.1944,2.2344,2.1709,2.1185,0.0,0.0,0.0,0.0,0.0,0.0,0.0,0.0,0.0,0.0,0.0,0.0,0.0,0.0,0.0,0.0,0.0,0.0,0.0,0.0,0.0,0.0,0.0,0.0,0.0,0.0,0.0,0.0,0.0,0.0,0.0,0.0,0.0,0.0,0.0,0.0,0.0,0.0,0.0,0.0,0.0,2.8216,2.882,2.9674,3.0458,0.0,0.0,3.2357,3.1674,3.1254,3.0746,2.9909,0.0,0.0,0.0,0.0,0.0,0.0,0.0,0.0,0.0,0.0,0.0,0.0,0.0,0.0,0.0,0.0,0.0,0.0,0.0,0.0,0.0,0.0,0.0,0.0,0.0,0.0,0.0,0.0,0.0,0.0,0.0,0.0,0.0,0.0,0.0,0.0,0.0,0.0,0.0,0.0,0.0,0.0,0.0,0.0,0.0,0.0,0.0,0.0,0.0,0.0,0.0,0.0,0.0,1.7886,1.8698,2.0134,2.1057,2.1487,2.2114,2.2543,2.2668,2.2192,2.1812,0.0,0.0,0.0,0.0,0.0,0.0,0.0,0.0,0.0,0.0,0.0,0.0,0.0,0.0,0.0,0.0,0.0,0.0,0.0,0.0,0.0,0.0,0.0,0.0,0.0,0.0,0.0,0.0,2.1698,2.1949,2.2197,0.0,0.0,0.0,0.0,0.0,0.0,0.0,0.0,0.0,0.0,2.9857,3.0455,3.1404,0.0,0.0,3.2837,3.3093,3.2934,3.2381,3.1732,3.1023,3.0275,0.0,0.0,0.0,0.0,0.0,0.0,0.0,0.0,0.0,0.0,0.0,0.0,0.0,0.0,0.0,0.0,0.0,0.0,0.0,0.0,0.0,0.0,0.0,0.0,0.0,0.0,0.0,0.0,0.0,0.0,0.0,0.0,0.0,0.0,0.0,0.0,0.0,0.0,0.0,0.0,0.0,0.0,0.0,0.0,0.0,0.0,0.0,0.0,0.0,0.0,0.0,0.0,1.8559,1.9389,2.0772,2.168,2.214,2.2837,2.3273,2.3341,2.2903,2.2589,0.0,0.0,0.0,0.0,0.0,0.0,0.0,0.0,0.0,0.0,0.0,0.0,0.0,0.0,0.0,0.0,0.0,0.0,0.0,0.0,0.0,0.0,0.0,0.0,0.0,0.0,0.0,0.0,2.2823,2.3191,2.3616,0.0,0.0,0.0,0.0,0.0,0.0,0.0,0.0,0.0,0.0,3.1349,3.2254,3.3021,3.364,3.3886,3.4083,3.4168,3.4096,3.3676,3.31,3.2346,0.0,0.0,0.0,0.0,0.0,0.0,0.0,0.0,0.0,0.0,0.0,0.0,0.0,0.0,0.0,0.0,0.0,0.0,0.0,0.0,0.0,0.0,0.0,0.0,0.0,0.0,0.0,0.0,0.0,0.0,0.0,0.0,0.0,0.0,0.0,0.0,0.0,0.0,0.0,0.0,0.0,0.0,0.0,0.0,0.0,0.0,0.0,0.0,0.0,0.0,0.0,0.0,0.0,0.0,2.0088,2.1487,2.2515,2.315,2.3729,2.4202,2.4602,2.3843,2.3575,2.3974,0.0,0.0,0.0,0.0,0.0,0.0,0.0,0.0,0.0,0.0,0.0,0.0,0.0,0.0,0.0,0.0,0.0,0.0,0.0,0.0,0.0,0.0,0.0,0.0,0.0,0.0,2.2891,2.3269,2.377,0.0,0.0,0.0,0.0,0.0,0.0,0.0,0.0,0.0,0.0,3.1408,3.2538,3.4095,3.4445,3.4847,3.5761,3.6054,3.5916,3.5242,3.5227,3.4985,0.0,0.0,0.0,0.0,0.0,0.0,0.0,0.0,0.0,0.0,0.0,0.0,0.0,0.0,0.0,0.0,0.0,0.0,0.0,0.0,0.0,0.0,0.0,0.0,0.0,0.0,0.0,1.0877,1.0958,0.0,0.0,0.0,0.0,0.0,0.0,0.0,0.0,0.0,0.0,0.0,1.4034,1.4631,0.0,0.0,0.0,0.0,0.0,0.0,0.0,0.0,0.0,0.0,0.0,0.0,2.0228,2.1366,2.2392,2.3262,2.402,2.4506,2.4783,2.4801,2.4366,2.3995,2.3777,0.0,0.0,0.0,0.0,0.0,0.0,0.0,0.0,0.0,0.0,0.0,0.0,0.0,0.0,0.0,0.0,0.0,0.0,0.0,0.0,0.0,0.0,0.0,0.0,0.0,2.4232,0.0,0.0,0.0,0.0,0.0,0.0,0.0,0.0,0.0,0.0,0.0,3.0603,3.0797,3.2471,3.4074,3.522,3.5939,3.6524,0.0,0.0,0.0,0.0,0.0,0.0,0.0,0.0,0.0,0.0,0.0,0.0,0.0,0.0,3.324,3.2029,3.1989,3.2309,3.2874,0.0,0.0,0.0,0.0,0.0,0.0,0.0,0.0,0.0,0.0,0.0,0.0,0.0,0.0,0.0,0.0,1.1906,0.0,0.0,0.0,0.0,0.0,0.0,0.0,0.0,1.5138,1.5476,1.5583,1.6208,1.6592,0.0,1.7057,1.7218,0.0,0.0,0.0,0.0,0.0,0.0,0.0,0.0,2.1356,2.2173,2.3244,2.4202,2.4903,2.5331,2.555,2.5585,2.5328,2.4872,2.4132,2.4005,2.404,0.0,0.0,0.0,0.0,0.0,0.0,0.0,0.0,0.0,0.0,0.0,0.0,0.0,0.0,0.0,0.0,0.0,0.0,0.0,0.0,0.0,0.0,0.0,2.5742,0.0,0.0,0.0,0.0,0.0,0.0,0.0,0.0,0.0,2.9621,3.0841,3.189,3.2143,3.3795,3.5385,3.631,0.0,0.0,0.0,0.0,0.0,0.0,0.0,3.7101,3.7586,3.7213,3.7085,3.7829,3.785,3.7853,3.8113,0.0,0.0,3.4865,3.4643,3.4951,3.5531,3.6034,3.6625,3.7317,3.7732,3.7992,0.0,0.0,0.0,0.0,0.0,0.0,0.0,0.0,1.2967,1.3049,0.0,1.3076,0.0,0.0,0.0,0.0,0.0,0.0,0.0,0.0,1.7051,1.7626,1.8078,1.8416,1.8841,1.9298,1.962,1.9925,2.0145,1.7926,0.0,0.0,0.0,0.0,0.0,0.0,2.2209,2.2566,2.4222,2.5314,2.5728,2.6191,2.6635,2.6865,2.6731,2.6148,2.5159,2.5412,2.5402,2.5005,2.514,0.0,0.0,0.0,0.0,0.0,0.0,0.0,0.0,0.0,0.0,0.0,0.0,0.0,0.0,0.0,0.0,0.0,0.0,0.0,0.0,2.5966,0.0,0.0,0.0,0.0,0.0,0.0,0.0,0.0,0.0,0.0,3.1304,3.2628,3.3871,3.4498,0.0,0.0,0.0,0.0,3.8807,3.9093,3.9263,3.9388,3.9453,3.954,3.958,3.9564,0.0,0.0,4.0514,4.0508,4.0648,4.1428,4.1408,4.0374,3.7317,3.7198,3.755,3.7707,3.8856,3.9898,4.02,4.076,4.1338,1.4496,0.0,0.0,0.0,0.0,1.325,1.3904,1.493,1.4946,1.5206,1.5677,1.5379,0.0,0.0,0.0,0.0,0.0,0.0,1.7446,1.7924,1.9002,1.9651,1.9788,2.0451,2.0864,2.107,2.151,2.1825,2.2042,2.1571,2.086,2.0017,0.0,0.0,0.0,0.0,2.3472,2.4308,2.5132,2.5892,2.6582,2.7009,2.734,2.7602,2.7502,2.7187,2.6659,2.6525,2.6301,2.5992,2.5664,0.0,0.0,0.0,0.0,0.0,0.0,0.0,0.0,0.0,0.0,0.0,0.0,0.0,0.0,0.0,0.0,0.0,0.0,0.0,2.6888,2.7284,2.7695,0.0,0.0,0.0,0.0,0.0,0.0,0.0,0.0,0.0,3.5193,3.5179,3.5513,0.0,0.0,3.8259,3.9329,3.9774,4.0026,4.0281,0.0,0.0,0.0,3.9736,4.0148,4.1291,4.237,4.3119,4.32,4.3174,4.3217,4.3491,4.3482,4.312,4.2264,4.1077,4.0585,4.1039,4.16,4.2163,4.2826,4.3142,4.3392,1.7954,1.677,1.546,1.5096,1.5371,1.5282,1.5791,1.6698,1.6746,1.7001,1.7286,1.7083,1.7063,1.7129,1.6924,0.0,0.0,0.0,1.9233,1.9775,2.059,2.1105,2.1395,2.1932,2.2317,2.2595,2.3091,2.3417,2.3605,2.3927,2.3525,2.2454,0.0,0.0,2.3242,2.3833,2.46,2.5654,2.6176,2.6769,2.7498,2.7774,2.8032,2.8188,2.8204,2.801,2.7463,2.7438,2.7255,2.6892,2.6651,2.6728,0.0,0.0,0.0,0.0,0.0,0.0,0.0,0.0,0.0,0.0,0.0,2.6835,0.0,0.0,0.0,0.0,2.813,2.854,2.8672,2.9099,0.0,0.0,0.0,0.0,0.0,0.0,0.0,3.4931,3.5977,3.7064,3.7986,3.7751,3.7521,3.7887,3.8676,3.9556,4.0315,0.0,4.1092,4.122,4.1345,4.1357,4.1296,4.1341,4.185,4.3166,4.4067,4.4811,4.5027,4.5018,4.5081,4.5347,4.5391,4.5391,4.5391,4.4458,4.358,4.3374,4.3631,4.4092,4.4706,4.507,4.5391,2.1112,2.0862,1.8508,1.7644,1.7864,1.7988,1.8133,1.833,1.8483,1.8494,1.833,1.8526,1.8454,1.83,1.8617,0.0,0.0,2.0593,2.1079,2.1826,2.2048,2.2408,2.2926,2.3097,2.3506,2.4092,2.4526,2.4853,2.5124,2.5447,2.5576,2.537,2.4608,2.4315,2.4489,2.5068,2.5816,2.6659,2.7348,2.8009,2.851,2.8597,2.8752,2.8788,2.8955,2.8654,2.7893,2.8184,2.8122,2.767,2.789,2.8064,2.8138,0.0,0.0,0.0,0.0,0.0,0.0,0.0,0.0,0.0,0.0,0.0,0.0,0.0,0.0,0.0,2.958,0.0,3.0396,3.1133,0.0,0.0,0.0,3.3412,3.3583,3.4901,3.5898,3.6082,0.0,0.0,0.0,0.0,3.9797,3.9164,3.9861,4.0473,4.0729,4.1364,4.1884,4.2101,4.2329,4.2721,4.3352,4.375,4.4155,4.4875,4.5144,4.5522,4.6072,4.6191,4.6408,4.6963,4.707,4.6989,4.7025,4.691,4.6641,4.4867,4.5196,4.5784,4.5909,4.6498,4.7044,2.1793,2.1866,2.1239,2.0675,2.0172,1.9932,2.026,2.094,2.0742,2.0864,2.123,2.1073,2.0917,2.0725,2.0845,2.1305,2.2187,2.249,2.3054,2.3754,2.4348,2.468,2.4969,2.4958,2.5407,2.6336,2.6598,2.7044,2.78,2.8174,2.8231,2.8079,2.788,2.725,2.6287,2.717,2.7855,2.8421,2.8705,2.8969,2.9215,2.9531,2.9614,2.9563,2.9761,2.9461,2.8825,2.8916,2.8734,2.7981,2.8054,2.8268,2.8465,2.834,0.0,0.0,0.0,0.0,0.0,0.0,0.0,0.0,0.0,2.8914,2.9683,0.0,3.0199,0.0,3.1647,3.1957,3.2078,3.2376,0.0,0.0,3.4644,3.5351,3.6034,3.7036,3.7957,3.8625,3.9129,3.9784,4.077,4.1056,4.1236,4.1319,4.1374,4.1558,4.1837,4.2062,4.2478,4.3161,4.3368,4.3773,4.4628,4.54,4.5856,4.5972,4.6495,4.692,4.7014,4.7006,4.7078,4.724,4.7232,4.7232,4.7214,4.7276,4.7124,4.6703,4.6775,4.69,4.6944,4.715,4.732,2.352,2.375,2.375,2.3507,2.3014,2.1868,2.161,2.208,2.2026,2.2071,2.2274,2.2194,2.2349,2.2764,2.255,2.3022,2.3862,2.4142,2.4487,2.4822,2.5347,2.5627,2.5858,2.5873,2.6312,2.7186,2.742,2.794,2.8677,2.899,2.9132,2.8964,2.9223,2.8957,2.8177,2.8485,2.8936,2.947,2.994,3.0344,3.0623,3.0353,3.0283,3.0324,3.0301,3.0118,2.9681,2.9818,2.9492,2.8636,2.8744,2.8753,2.8604,2.8605,2.8762,0.0,0.0,0.0,0.0,0.0,0.0,0.0,0.0,0.0,0.0,0.0,3.1512,0.0,3.2813,0.0,3.3822,3.4337,3.4975,3.5852,3.6491,3.7036,3.7581,3.8345,3.91,3.9664,4.0118,4.0683,4.1311,4.1569,4.1866,4.2163,4.2139,4.2181,4.2387,4.245,4.2777,4.3611,4.3836,4.4349,4.559,4.6481,4.6988,4.6982,4.7307,4.7554,4.7511,4.745,4.7468,4.745,4.7468,4.745,4.745,4.7468,4.7468,4.7468,4.745,4.745,4.7407,4.745,4.7511,2.5317,2.5716,2.5716,2.5716,2.5578,2.3667,2.2855,2.2855,2.2994,2.2994,2.2855,2.2855,2.3416,2.4372,2.4016,2.445,2.5552,2.5496,2.5608,2.5665,2.5833,2.5977,2.6155,2.6294,2.6664,2.733,2.7705,2.8235,2.8835,2.9065,2.921,2.9282,2.9675,2.9995,2.9969,2.9574,2.9647,3.0335,3.111,3.1721,3.2124,3.1198,3.0813,3.1025,3.0805,3.0587,3.0342,3.0578,3.028,2.9409,2.962,2.9441,2.8869,2.8793,2.9153,0.0,3.094,0.0,0.0,0.0,0.0,0.0,0.0,0.0,0.0,3.208,3.2559,3.3197,3.3885,3.4625,3.5572,3.6443,3.7259,3.8018,3.8325,3.8528,3.8734,3.9382,3.9934,4.0099,4.0896,4.1503,4.1824,4.2035,4.2363,4.2697,4.2875,4.3014,4.2951,4.2936,4.3113,4.3872,4.4277,4.5206,4.639,4.7246,4.7663,4.7681,4.7681,4.7699,4.7699,4.7699,4.7699,4.7699,4.7675,4.7699,4.7699,4.7699,4.7699,4.7657,4.7657,4.7657,4.7554,4.7615,4.7717,2.5328,2.5716,2.5716,2.5716,2.567,2.5226,2.5066,2.5055,2.5142,2.5142,2.5066,2.5055,2.5169,2.5417,2.5341,2.5673,2.6313,2.6324,2.6554,2.6863,2.6863,2.6944,2.699,2.6734,2.7152,2.7992,2.8114,2.8673,2.9618,3.0162,3.0374,3.0361,3.0615,3.0817,3.1027,0.0,0.0,0.0,3.2195,3.2401,3.2358,3.2188,3.182,3.1445,3.1348,0.0,3.047,3.0633,3.0546,3.0191,3.0299,0.0,0.0,0.0,0.0,0.0,0.0,0.0,0.0,0.0,0.0,0.0,3.4101,3.4128,3.2704,3.394,3.5251,3.6174,3.6472,3.685,3.7385,3.7567,3.8051,3.902,3.9375,3.9738,4.0353,4.0793,4.1115,4.1265,4.2051,4.2696,4.2935,4.365,4.4221,4.4378,4.4592,4.4732,4.4722,4.4159,4.4047,4.4903,4.6011,4.6988,4.7428,4.7591,4.7699,4.7699,4.7699,4.7699,4.7699,4.7699,4.7699,4.7699,4.7699,4.7699,4.7699,4.7699,4.7699,4.7699,4.7699,4.7717,4.7675,4.7675,4.7699,2.6132,0.0,2.6462,2.6462,0.0,2.6462,2.6462,2.6416,2.5934,2.5716,2.5716,2.5716,2.5842,2.6083,2.6083,2.6358,2.6841,2.6841,2.6978,2.7219,2.7231,2.7231,2.7219,2.7105,2.7519,2.8155,2.8445,2.9003,2.9792,3.0444,3.0881,3.1099,3.1461,3.1836,3.2117,3.2367,3.2453,3.2444,3.2717,3.2919,3.3,3.2758,3.2611,3.242,0.0,0.0,0.0,0.0,0.0,0.0,0.0,0.0,0.0,0.0,0.0,3.2183,3.3955,3.4624,3.3761,3.4265,3.4627,3.4627,3.546,3.5589,3.4665,3.5556,3.6486,3.7236,3.7369,3.7733,3.8444,3.8605,3.9007,3.9915,4.0272,4.077,4.1568,4.1939,4.2314,4.2871,4.343,4.3837,4.396,4.4436,4.4917,4.506,4.5142,4.5242,4.5251,4.4943,4.4961,4.578,4.6866,4.7681,4.7699,4.7699,4.7699,4.7699,4.7699,4.7699,4.7699,4.7699,4.7699,4.7699,4.7699,4.7699,4.7699,4.7699,4.7699,4.7699,4.7699,4.7699,4.7699,4.7699,4.7699,2.7056,2.7231,2.7231,2.7231,2.7231,2.7231,2.7231,2.7174,0.0,0.0,0.0,2.598,2.6209,2.6588,2.66,2.6829,2.7219,2.7231,2.7231,2.7231,2.7231,2.7231,2.7231,2.7371,2.7672,2.8099,2.8474,2.9052,2.9649,3.0489,3.1044,3.1487,3.2096,3.2619,3.3118,3.3355,3.3331,3.2969,3.3057,3.3213,3.366,3.3286,3.3212,3.3493,3.2805,3.2555,3.2959,3.2734,3.2521,3.2253,3.2473,3.2399,3.1887,3.17,3.2421,3.4249,3.5847,3.6486,3.5991,3.605,3.6178,3.6291,3.6556,3.6739,3.6731,3.682,3.718,3.782,3.7869,3.8369,3.9506,3.9737,4.0172,4.1071,4.135,4.1893,4.2684,4.2973,4.3419,4.4182,4.4618,4.49,4.4803,4.5215,4.5456,4.5616,4.5784,4.568,4.5667,4.5653,4.5798,4.6613,4.7301,4.7699,4.7699,4.7699,4.7699,4.7699,4.7699,4.7699,4.7699,4.7699,4.7699,4.7699,4.7699,4.7699,4.7699,4.7699,4.7699,4.7699,4.7699,4.7699,4.7699,4.7699,4.7699,2.7079,2.7231,2.7231,2.7231,2.7231,2.7231,2.7231,2.7219,2.707,2.7013,2.7024,2.7024,2.7059,2.7128,2.7128,2.7162,2.7231,2.7231,2.7231,0.0,2.7231,2.7231,2.7231,2.7231,2.7371,2.7592,2.8087,2.8486,2.9022,3.0069,3.0795,3.1278,3.2016,3.2778,3.352,3.4093,3.4289,3.3998,3.3494,3.3452,3.3827,3.3796,3.3821,3.3927,3.3913,3.3903,3.4012,3.4081,3.4311,3.4673,3.4841,3.4794,3.4446,3.3713,3.4351,3.6645,3.7854,3.789,3.6721,3.7004,3.7552,3.8154,3.8219,3.8101,3.7675,3.7732,3.8242,3.9224,3.9428,3.9918,4.1052,4.1237,4.1627,4.2597,4.2999,4.3245,4.3558,4.3856,4.4208,4.4564,4.5276,4.5658,4.5525,4.6316,4.6999,4.7132,4.7036,4.7259,4.712,4.6776,4.6721,4.7319,4.7609,4.7699,4.7699,4.7699,4.7699,4.7699,4.7699,4.7699,4.7699,4.7699,4.7699,4.7699,4.7699,4.7699,4.7699,4.7699,4.7699,4.7699,4.7699,4.7699,4.7699,4.7699,4.7699,2.7389,2.7242,2.7231,2.7149,2.7067,2.6891,2.6891,2.6891,2.6891,2.6974,2.7149,2.7231,2.7231,2.7231,2.7231,2.7231,2.7231,2.7231,2.7231,2.7231,2.7231,2.7231,2.7231,2.7067,2.7208,2.751,2.7822,2.8378,2.9105,3.0276,3.1254,3.1975,3.3109,3.4032,3.4552,3.474,3.4913,3.5074,3.4309,3.3931,3.402,3.4157,3.4351,3.4638,3.4475,3.4525,3.4879,3.4762,3.4925,3.5282,3.549,3.5577,3.5543,3.5106,3.5594,3.7351,3.9197,3.9681,3.8532,3.9028,3.9511,3.9895,3.9968,3.9893,3.9621,3.9314,3.9615,4.0745,4.0883,4.123,4.2005,4.2159,4.2432,4.2995,4.3311,4.3729,4.4305,4.4695,4.5166,4.5701,4.6293,4.6595,4.6426,4.7119,4.7615,4.7615,4.7675,4.7699,4.7699,4.7409,4.7265,4.7627,4.7699,4.7699,4.7699,4.7699,4.7699,4.7699,4.7699,4.7699,4.7699,4.7699,4.7699,4.7699,4.7699,4.7699,4.7699,4.7699,4.7699,4.7699,4.7699,4.7699,4.7699,4.7699,4.7699,2.7847,2.7492,2.7398,2.7315,2.7148,2.6981,2.6886,2.6898,2.6909,2.7065,2.7387,2.7273,2.7309,2.7403,2.7506,2.7564,2.7552,2.7564,2.7564,2.7564,2.7564,2.7492,2.7481,2.7315,2.7387,2.7706,2.7929,2.855,2.9402,3.0597,3.1793,3.2906,3.4118,3.4921,3.5399,3.5342,3.5448,3.5823,3.5328,3.4882,3.4505,3.4586,3.4996,3.5548,3.5429,3.5591,3.6184,3.591,3.5922,3.6368,3.6478,3.6669,3.6925,3.6612,3.6948,3.8313,4.0249,4.1071,4.0343,4.0771,4.1099,4.1116,4.1181,4.1304,4.142,4.0991,4.0994,4.1727,4.1854,4.2085,4.2647,4.2892,4.3031,4.3374,4.3713,4.4324,4.5058,4.5487,4.5981,4.6689,4.7098,4.7284,4.7345,4.7493,4.7699,4.7699,4.7699,4.7699,4.7699,4.7699,4.7699,4.7699,4.7699,4.7699,4.7699,4.7699,4.7699,4.7699,4.7699,4.7699,4.7699,4.7699,4.7699,4.7699,4.7699,4.7699,4.7699,4.7699,4.7699,4.7699,4.7699,4.7699,4.7699,4.7699,4.7699,2.8298,2.8252,2.7959,2.7917,2.7883,2.7796,2.7785,2.7796,2.7819,2.7917,2.7827,2.7669,2.7729,2.7977,2.8344,2.8505,2.8517,2.8551,2.8528,2.8517,2.8563,2.8477,2.8293,2.823,2.8252,2.8391,2.8688,2.9124,2.9701,3.0992,3.2272,3.35,3.4204,3.4812,3.5386,3.5736,3.5926,3.6003,3.6518,3.637,3.5582,3.5583,3.5994,3.6981,3.7436,3.7953,3.835,3.8262,3.8568,3.9291,3.9017,3.9162,3.9677,3.8798,3.8894,4.05,4.1132,4.1329,4.1302,4.1319,4.1418,4.1368,4.1435,4.1716,4.2278,4.2295,4.2169,4.2044,4.1971,4.2509,4.343,4.3622,4.3951,4.4696,4.5079,4.5561,4.5813,4.6244,4.6566,4.676,4.7098,4.7338,4.7453,4.7608,4.7699,4.7699,4.7699,4.7699,4.7699,4.7699,4.7699,4.7699,4.7699,4.7699,4.7699,4.7699,4.7699,4.7699,4.7699,4.7699,4.7699,4.7699,4.7699,4.7699,4.7699,4.7699,4.7699,4.7699,4.7699,4.7699,4.7699,4.7699,4.7699,4.7699,4.7699,2.8287,2.7942,2.7766,2.7591,2.7337,2.7249,2.7259,2.7447,2.7447,2.7525,2.7899,2.8119,2.8268,2.8277,2.8534,2.8689,2.8689,2.8689,2.8689,2.8689,2.8689,2.8614,2.8389,2.84,2.84,2.8487,2.8821,2.939,3.015,3.1516,3.2757,3.3602,3.4134,3.4647,3.5236,3.571,3.6146,3.6381,3.692,3.7171,3.7183,3.7388,3.75,3.7548,3.7895,3.8361,3.8852,3.9047,3.9312,3.9752,3.9802,3.9983,4.0273,3.9902,3.9957,4.0792,4.1517,4.2137,4.2626,4.2717,4.2717,4.2717,4.2717,4.2866,4.3131,4.3181,4.3149,4.322,4.3193,4.3513,4.4135,4.4388,4.467,4.5089,4.5459,4.577,4.5871,4.6301,4.6607,4.6708,4.707,4.7338,4.7479,4.759,4.7699,4.7699,4.7699,4.7699,4.7699,4.7699,4.7699,4.7699,4.7699,4.7699,4.7699,4.7699,4.7699,4.7699,4.7699,4.7699,4.7699,4.7699,4.7699,4.7699,4.7699,4.7699,4.7699,4.7699,4.7699,4.7699,4.7699,4.7699,4.7699,4.7699,4.7699,2.8307,2.782,2.7708,2.7439,2.7088,2.6907,2.7009,2.72,2.7291,2.7561,2.7953,2.8565,2.8791,2.8654,2.895,2.9114,2.9114,2.9114,2.9114,2.9114,2.9026,2.8874,2.8709,2.8697,2.8709,2.8786,2.9259,2.9957,3.0834,3.2055,3.3043,3.3713,3.4147,3.4647,3.5154,3.571,3.627,3.6822,3.7275,3.7734,3.8219,3.8748,3.8782,3.8364,3.8696,3.9164,3.9622,3.9755,4.0024,4.0372,4.0446,4.0614,4.0852,4.099,4.1172,4.1444,4.2124,4.2871,4.3552,4.3645,4.3645,4.3645,4.3645,4.3645,4.3678,4.381,4.4088,4.434,4.4658,4.4956,4.4948,4.5205,4.5439,4.5723,4.6116,4.6395,4.6602,4.6984,4.7209,4.7128,4.7482,4.7579,4.7583,4.7633,4.7699,4.7699,4.7699,4.7699,4.7699,4.7699,4.7699,4.7699,4.7699,4.7699,4.7699,4.7699,4.7699,4.7717,4.7717,4.7759,4.7741,4.7741,4.7783,4.7866,4.7783,4.7783,4.7824,4.7783,4.7753,4.7717,4.7717,4.7717,4.7699,4.7699,4.7699,2.8362,2.8226,2.7757,2.7516,2.7558,2.7526,2.7547,2.7484,2.8006,2.8308,2.8358,2.8866,2.9061,2.9098,2.9682,3.0112,3.0112,2.9976,2.9965,2.9965,2.9841,2.9692,2.9418,2.9429,2.9487,2.9386,3.0088,3.1063,3.2227,3.2525,3.3043,3.3725,3.423,3.4729,3.5399,3.579,3.635,3.6993,3.75,3.7987,3.847,3.9032,3.9496,3.9758,4.0317,4.0733,4.1037,4.0862,4.1023,4.1771,4.1279,4.1389,4.2172,4.2364,4.2632,4.3064,4.3246,4.3399,4.3602,4.3694,4.3711,4.3711,4.381,4.3694,4.3876,4.4461,4.494,4.5118,4.5984,4.6353,4.6034,4.6186,4.661,4.7283,4.764,4.7909,4.8363,4.8423,4.8529,4.817,4.8128,4.8037,4.7729,4.7699,4.7699,4.7699,4.7699,4.7699,4.7699,4.7699,4.7699,4.7699,4.7699,4.7699,4.7699,4.7699,4.7699,4.7717,4.7777,4.7902,4.7943,4.7966,4.7988,4.8046,4.8156,4.8156,4.8024,4.7984,4.797,4.7886,4.7735,4.7717,4.7699,4.7699,4.7699,2.7526,2.7441,2.687,2.6678,2.6668,2.6678,2.687,2.7156,2.7536,2.7914,2.8395,2.8757,2.8943,2.9128,2.9577,2.976,2.9749,2.976,2.976,2.976,2.968,2.9497,2.9312,2.9588,2.968,2.9669,3.0408,3.1496,3.255,3.281,3.3398,3.4063,3.4647,3.5072,3.5629,3.6138,3.6693,3.7148,3.7485,3.802,3.8737,3.9461,4.0141,4.0731,4.0809,4.095,4.1153,4.122,4.1417,4.172,4.1644,4.1773,4.2093,4.2414,4.2826,4.3227,4.3223,4.3493,4.4164,4.4307,4.4522,4.497,4.5003,4.497,4.5052,4.5452,4.5624,4.5628,4.6549,4.7223,4.7512,4.7408,4.742,4.7796,4.8189,4.8505,4.871,4.8994,4.8977,4.8342,4.8038,4.7771,4.7766,4.7699,4.7699,4.7699,4.7699,4.7699,4.7699,4.7699,4.7699,4.7699,4.7699,4.7699,4.7699,4.7699,4.7699,4.7759,4.7801,4.7925,4.7947,4.8108,4.8148,4.8339,4.8467,4.8886,4.8864,4.8685,4.8579,4.8442,4.8273,4.7759,4.7699,4.7699,4.7699,2.6658,2.6466,2.6004,2.581,2.583,2.5967,2.6309,2.6814,2.7334,2.789,2.8466,2.8847,2.9132,2.9216,2.9393,2.9498,2.9443,2.9468,2.9485,2.9485,2.9405,2.9312,2.922,2.96,2.968,2.968,3.0601,3.1661,3.2624,3.3142,3.3725,3.4481,3.5232,3.5845,3.6346,3.7021,3.7611,3.8054,3.8225,3.8688,3.9325,3.9994,4.0696,4.1225,4.1331,4.1465,4.1757,4.193,4.2118,4.2201,4.2284,4.2386,4.2439,4.2944,4.3346,4.3611,4.3784,4.4138,4.4892,4.5036,4.5251,4.5732,4.5781,4.5798,4.5798,4.62,4.6352,4.6468,4.7361,4.8446,4.8787,4.8778,4.8722,4.8831,4.9117,4.9449,4.9688,4.9973,4.9715,4.8925,4.8093,4.7705,4.7681,4.7699,4.7699,4.7699,4.7699,4.7699,4.7699,4.7699,4.7699,4.7699,4.7699,4.7699,4.7717,4.7759,4.7801,4.7801,4.7907,4.801,4.813,4.8247,4.8399,4.8586,4.899,4.9522,4.9661,4.9482,4.9286,4.9089,4.8423,4.7765,4.7741,4.7699,4.7735,2.5693,2.5606,2.5421,2.5254,2.5331,2.5647,2.6048,2.6545,2.7563,2.8164,2.864,2.913,2.9253,2.9327,2.9341,2.9338,2.9342,2.9343,2.9457,2.9457,2.9261,2.9157,2.9179,2.9505,2.9759,2.9828,3.0793,3.1886,3.2959,3.3576,3.4231,3.4914,3.6141,3.6948,3.7585,3.8331,3.9074,3.9498,3.9549,3.983,4.0432,4.0698,4.1111,4.1415,4.2086,4.2628,4.3058,4.3036,4.3067,4.3169,4.327,4.3315,4.3294,4.3968,4.4479,4.4496,4.4933,4.5384,4.5719,4.5814,4.5814,4.6046,4.593,4.6046,4.6242,4.6891,4.7424,4.7676,4.866,4.9664,4.9879,5.0244,5.0521,5.0768,5.0611,5.0858,5.1343,5.1565,5.1178,4.9829,4.8518,4.7747,4.7735,4.7844,4.7916,4.8007,4.7916,4.788,4.788,4.7808,4.7717,4.7699,4.7699,4.7699,4.7759,4.7801,4.7861,4.7943,4.8068,4.8169,4.8363,4.8513,4.8679,4.8881,4.9677,5.0175,5.0391,5.012,4.9574,4.9232,4.8475,4.7842,4.7741,4.7735,4.7826,2.4618,2.4618,2.4529,2.4597,2.4939,2.5189,2.58,2.6502,2.7166,2.7814,2.8518,2.8807,2.9016,2.9324,2.9225,2.9137,2.9094,2.8974,2.9042,2.9354,2.9558,2.9547,2.9589,2.9875,3.0362,3.11,3.2088,3.319,3.4275,3.5041,3.5845,3.6649,3.7344,3.7965,3.8485,3.9088,3.9496,3.9736,3.9816,3.996,4.0397,4.0949,4.1484,4.2073,4.2694,4.3258,4.37,4.334,4.3058,4.3074,4.3255,4.3362,4.36,4.4536,4.5244,4.5439,4.5452,4.5826,4.643,4.6576,4.6775,4.7156,4.7289,4.7322,4.7386,4.7775,4.8212,4.8495,4.9103,4.9646,5.035,5.0672,5.0874,5.1034,5.1281,5.1487,5.1701,5.1065,5.0142,4.9306,4.8308,4.8007,4.8387,4.8532,4.8713,4.9094,4.884,4.855,4.8478,4.8134,4.7735,4.7699,4.7699,4.7977,4.8164,4.8288,4.8265,4.8312,4.8357,4.8401,4.8587,4.8768,4.8927,4.9408,5.0209,5.0676,5.084,5.0667,5.0083,4.9295,4.8534,4.8102,4.7795,4.7826,4.8025,2.3836,2.3854,2.3999,2.4198,2.4683,2.5032,2.574,2.6532,2.6997,2.7688,2.841,2.8604,2.8911,2.9226,2.9013,2.8911,2.8819,2.8697,2.8788,2.9123,2.943,2.9554,2.9905,3.0397,3.1061,3.1995,3.3004,3.408,3.5124,3.596,3.6731,3.7599,3.831,3.8936,3.9488,4.0,4.044,4.0617,4.0631,4.0778,4.1091,4.1478,4.1924,4.2382,4.2882,4.3329,4.3506,4.3335,4.3368,4.3515,4.3878,4.4252,4.4511,4.5355,4.6056,4.6438,4.6453,4.6665,4.7239,4.7322,4.7471,4.7901,4.8001,4.7984,4.8049,4.8308,4.866,4.899,4.9342,4.9855,5.0558,5.0926,5.1052,5.1298,5.1556,5.1808,5.1825,5.107,5.0398,4.9846,4.9159,4.896,4.9202,4.9365,4.951,4.9908,4.9673,4.9347,4.9257,4.8949,4.8677,4.8568,4.8829,4.8944,4.8865,4.8812,4.8721,4.8691,4.8734,4.8716,4.8768,4.8978,4.9131,4.9843,5.061,5.0952,5.1176,5.1025,5.0554,4.9621,4.863,4.8143,4.7837,4.817,4.8405,2.3382,2.3435,2.3808,2.4115,2.4472,2.5198,2.5815,2.6477,2.7097,2.7659,2.8213,2.8463,2.8724,2.8976,2.876,2.8655,2.8658,2.8483,2.8549,2.8695,2.8891,2.9326,3.0133,3.1031,3.1872,3.2618,3.3642,3.4529,3.5429,3.641,3.7096,3.8139,3.9003,3.9831,4.0499,4.1303,4.1641,4.1807,4.1961,4.1947,4.1947,4.217,4.2348,4.2415,4.2739,4.293,4.29,4.3244,4.3821,4.4526,4.4943,4.5466,4.6064,4.6442,4.6864,4.7372,4.7621,4.7671,4.7886,4.7885,4.7918,4.7984,4.8001,4.8001,4.8066,4.8308,4.861,4.9035,4.9496,5.008,5.0547,5.1034,5.1402,5.169,5.1808,5.192,5.2101,5.1601,5.1067,5.0904,5.0534,5.0109,5.0108,5.0162,5.0216,5.0343,5.0307,5.0162,5.009,4.9945,5.0017,4.9952,4.9724,4.978,4.9604,4.9307,4.9228,4.9233,4.9177,4.9004,4.8996,4.9183,4.9249,4.9982,5.0938,5.1264,5.1195,5.0952,5.052,4.9621,4.878,4.8148,4.8151,4.8593,4.9173,2.2963,2.3211,2.3783,2.4211,2.4704,2.5272,2.5927,2.6596,2.6933,2.7422,2.796,2.8057,2.8281,2.8504,2.8281,2.8067,2.8057,2.7843,2.8067,2.8368,2.8414,2.9517,3.0799,3.1807,3.2572,3.3434,3.4576,3.5609,3.6634,3.7415,3.8322,3.9152,3.9654,4.0421,4.1112,4.1532,4.1785,4.2092,4.2092,4.2092,4.2092,4.216,4.2242,4.2392,4.2555,4.2637,4.2703,4.317,4.3801,4.4587,4.5055,4.5589,4.6152,4.6545,4.7046,4.7519,4.782,4.7935,4.8001,4.8001,4.8001,4.8001,4.8001,4.8001,4.8001,4.8308,4.8627,4.9001,4.953,5.0154,5.0712,5.1229,5.1729,5.2071,5.2102,5.2,5.1718,5.1411,5.1086,5.0524,5.0325,5.0506,5.0832,5.0995,5.1158,5.1484,5.1321,5.0977,5.0904,5.0597,5.0488,5.0242,5.013,5.0296,5.0263,4.9924,4.975,4.9786,4.961,4.9295,4.9305,4.9383,4.9351,4.9548,5.1084,5.1745,5.1138,5.0638,5.0041,4.9786,4.9295,4.8839,4.8889,4.922,5.0069,2.3043,2.3374,2.3954,2.4355,2.4698,2.5171,2.5802,2.6309,2.6554,2.698,2.7413,2.753,2.7638,2.7862,2.7638,2.753,2.753,2.7323,2.7422,2.7755,2.8368,2.9579,3.1135,3.2194,3.3094,3.3884,3.5116,3.6137,3.6938,3.7861,3.8666,3.9401,3.9982,4.0502,4.1015,4.1381,4.1731,4.1897,4.1897,4.198,4.2092,4.2092,4.2364,4.2548,4.2621,4.2787,4.3101,4.3254,4.3645,4.4266,4.4814,4.5426,4.6096,4.6615,4.7115,4.7519,4.782,4.8001,4.8001,4.8001,4.8001,4.8001,4.8001,4.8001,4.8066,4.8308,4.861,4.9001,4.959,5.0137,5.0766,5.1386,5.1862,5.212,5.2264,5.2159,5.1828,5.1828,5.1593,5.123,5.1122,5.123,5.1756,5.1774,5.2009,5.2245,5.2045,5.1864,5.1756,5.1285,5.1022,5.0957,5.1108,5.1505,5.1568,5.1298,5.0917,5.0875,5.0542,5.0089,4.9784,4.9815,4.9851,5.0179,5.1361,5.1929,5.1287,5.0878,5.0833,5.0523,5.0012,4.9737,4.9749,5.0123,5.0955,2.3415,2.3759,2.4136,2.4407,2.4694,2.5081,2.5542,2.6008,2.6118,2.6455,2.6881,2.6989,2.7107,2.7314,2.7107,2.6999,2.6999,2.6999,2.6999,2.7422,2.8281,2.9597,3.0906,3.2107,3.3143,3.4068,3.5379,3.6206,3.6968,3.7622,3.8489,3.9348,3.9974,4.0419,4.1109,4.1369,4.1596,4.1964,4.212,4.2233,4.2429,4.2528,4.2731,4.3135,4.3178,4.3361,4.3578,4.3649,4.3803,4.4185,4.4649,4.5321,4.6048,4.6615,4.7196,4.765,4.8051,4.8249,4.8299,4.8465,4.8349,4.8415,4.8382,4.815,4.8315,4.8542,4.8811,4.8956,4.953,5.0194,5.0857,5.1521,5.1907,5.2102,5.2216,5.2358,5.2452,5.2498,5.2498,5.2498,5.2444,5.248,5.2498,5.2498,5.248,5.2408,5.2317,5.2263,5.2236,5.2019,5.2018,5.2199,5.2485,5.2883,5.2858,5.271,5.2345,5.2078,5.1668,5.1198,5.0547,5.0491,5.0614,5.1073,5.1903,5.2063,5.1677,5.1449,5.1514,5.1279,5.0767,5.0563,5.0526,5.1188,5.1923,2.357,2.382,2.442,2.4701,2.482,2.5084,2.545,2.5789,2.6008,2.6354,2.6591,2.67,2.6709,2.6828,2.6874,2.6691,2.6755,2.6755,2.6791,2.7098,2.796,2.9112,3.0349,3.1688,3.3024,3.4028,3.5102,3.6189,3.7051,3.7951,3.8937,3.9734,4.0343,4.1146,4.1708,4.1892,4.2502,4.2838,4.2998,4.3099,4.3171,4.3357,4.3544,4.3761,4.3761,4.3933,4.4174,4.4477,4.4885,4.5358,4.554,4.5788,4.6279,4.6851,4.7509,4.8191,4.8694,4.9127,4.9574,4.9607,4.9707,4.9591,4.9525,4.9491,4.8912,4.9176,4.9214,4.9187,4.9573,5.0337,5.1158,5.1658,5.1907,5.2054,5.2102,5.2216,5.2311,5.2452,5.2498,5.2498,5.2498,5.2498,5.2498,5.2498,5.2498,5.2498,5.2498,5.2498,5.2526,5.2554,5.2627,5.2743,5.3005,5.3235,5.3315,5.3255,5.3105,5.2984,5.2686,5.2465,5.178,5.1448,5.1682,5.1915,5.2223,5.2213,5.2233,5.2137,5.2183,5.1834,5.1577,5.1493,5.1633,5.2254,5.2578,2.3734,2.4098,2.4403,2.471,2.4821,2.4906,2.5238,2.5679,2.5789,2.6244,2.6728,2.6866,2.6967,2.7141,2.7141,2.715,2.7141,2.703,2.7031,2.7343,2.7933,2.8672,2.9638,3.097,3.2319,3.3779,3.5198,3.6246,3.7064,3.8044,3.896,3.9712,4.0266,4.0829,4.1636,4.2028,4.241,4.2754,4.3179,4.3341,4.3617,4.3719,4.4095,4.4342,4.44,4.4588,4.4919,4.5005,4.5552,4.61,4.6469,4.674,4.7044,4.7474,4.809,4.8895,4.9637,4.9872,5.0187,5.022,5.0171,5.0253,5.022,5.0005,4.9791,4.9943,5.0087,5.005,5.0326,5.0758,5.1351,5.1658,5.1858,5.1938,5.2005,5.2071,5.2198,5.2293,5.2452,5.2498,5.2498,5.2498,5.2498,5.2498,5.2498,5.2498,5.2498,5.2498,5.2526,5.2554,5.2717,5.2893,5.3151,5.3381,5.3586,5.3665,5.3674,5.3662,5.3649,5.3518,5.3207,5.3005,5.2915,5.296,5.2912,5.3161,5.3162,5.3028,5.2837,5.2655,5.2514,5.2449,5.254,5.2881,5.3134,2.3809,2.4376,2.4376,2.4607,2.4821,2.4821,2.5188,2.5794,2.5776,2.6358,2.7103,2.727,2.7416,2.7673,2.7701,2.7746,2.7623,2.7482,2.7264,2.7512,2.7799,2.852,2.9494,3.0611,3.2071,3.3623,3.498,3.6038,3.7097,3.7975,3.8945,3.9557,4.0053,4.0691,4.1261,4.1753,4.2325,4.2747,4.3215,4.3456,4.3799,4.3976,4.4397,4.4937,4.5039,4.5318,4.5594,4.5784,4.6109,4.6896,4.7684,4.8238,4.8456,4.8385,4.8855,4.9665,5.0397,5.0684,5.0783,5.0717,5.0684,5.0551,5.0601,5.0502,5.0556,5.0727,5.0908,5.1074,5.1287,5.1476,5.1635,5.1807,5.1976,5.2005,5.2001,5.1974,5.2054,5.215,5.2264,5.2452,5.2498,5.2498,5.2498,5.2498,5.2498,5.2498,5.2498,5.248,5.2508,5.2581,5.2761,5.2962,5.3235,5.3561,5.3776,5.3997,5.4052,5.4067,5.4223,5.4209,5.4194,5.4006,5.371,5.3556,5.3547,5.3757,5.3777,5.3553,5.3417,5.3404,5.3308,5.3123,5.3219,5.3444,5.3582,2.3697,2.4033,2.4256,2.4607,2.483,2.483,2.5353,2.6131,2.6166,2.6727,2.7636,2.7664,2.7701,2.7801,2.7774,2.7669,2.754,2.7337,2.7353,2.7455,2.7768,2.8435,2.9669,3.0581,3.2073,3.3563,3.4748,3.5932,3.7526,3.8479,3.9183,3.9955,4.0608,4.1104,4.1568,4.2258,4.2685,4.2995,4.3585,4.3997,4.4273,4.4743,4.5133,4.5605,4.559,4.5887,4.6373,4.6751,4.7377,4.8183,4.9092,4.9615,4.9805,4.9216,4.9414,5.0255,5.0855,5.1264,5.1678,5.1893,5.1993,5.2026,5.1877,5.1632,5.1525,5.1597,5.1779,5.1787,5.2227,5.2726,5.3173,5.2732,5.2569,5.2529,5.2205,5.1862,5.1943,5.2023,5.2071,5.2264,5.2405,5.2452,5.2452,5.2423,5.247,5.247,5.2452,5.2498,5.248,5.2645,5.285,5.3048,5.33,5.366,5.3963,5.4196,5.4326,5.4326,5.4411,5.4444,5.4482,5.4552,5.4444,5.4142,5.3987,5.405,5.4036,5.3944,5.3813,5.3699,5.366,5.366,5.3699,5.3737,5.3813,2.3642,2.3937,2.4344,2.4766,2.5138,2.5326,2.5839,2.6548,2.6574,2.7131,2.7879,2.8095,2.8214,2.8342,2.8164,2.793,2.7678,2.7452,2.7454,2.7562,2.7837,2.8378,2.9619,3.046,3.1923,3.3289,3.4396,3.5699,3.7618,3.8633,3.9281,3.9879,4.0491,4.0883,4.1484,4.1927,4.2582,4.3067,4.3546,4.4035,4.4411,4.5138,4.5504,4.57,4.597,4.6239,4.6594,4.7207,4.7779,4.8506,4.9325,4.9995,5.0269,5.0396,5.0334,5.1074,5.1515,5.1843,5.2291,5.2373,5.234,5.234,5.2445,5.2366,5.2294,5.2437,5.2668,5.278,5.3175,5.3672,5.3599,5.3407,5.321,5.2903,5.2511,5.2187,5.1951,5.1893,5.1974,5.212,5.2198,5.2264,5.2347,5.2347,5.2394,5.2394,5.2423,5.2452,5.2498,5.2645,5.2831,5.3091,5.3341,5.3737,5.4055,5.4268,5.4439,5.4458,5.4543,5.459,5.4622,5.4673,5.4641,5.4519,5.4424,5.434,5.4252,5.4127,5.4036,5.3963,5.3926,5.3926,5.3963,5.4,5.4072,2.3827,2.4039,2.4318,2.4901,2.5417,2.5673,2.62,2.6964,2.6973,2.7544,2.8489,2.8526,2.8682,2.8783,2.86,2.8241,2.7891,2.7607,2.7661,2.7712,2.7894,2.8413,2.9355,3.0294,3.1583,3.3418,3.4534,3.5646,3.7259,3.8374,3.9104,3.9569,3.9865,4.0275,4.0997,4.1498,4.1993,4.2484,4.2984,4.356,4.4303,4.4954,4.5413,4.5518,4.5941,4.6225,4.6594,4.7193,4.788,4.8521,4.9178,4.9916,5.0464,5.0935,5.1369,5.1762,5.2142,5.2373,5.2373,5.2373,5.2373,5.2373,5.2499,5.2624,5.287,5.3197,5.3673,5.3948,5.4349,5.4578,5.4378,5.4171,5.3975,5.3546,5.3135,5.2671,5.2222,5.2005,5.1826,5.1907,5.2005,5.2107,5.2276,5.2168,5.2198,5.2282,5.2329,5.2376,5.2452,5.2581,5.2787,5.3091,5.3381,5.3775,5.4055,5.4235,5.4356,5.439,5.4543,5.4641,5.4673,5.4705,5.4673,5.4705,5.4608,5.451,5.4424,5.4337,5.4303,5.4268,5.4233,5.4198,5.4214,5.4268,5.4371,2.4202,2.4396,2.4428,2.4803,2.5402,2.5477,2.6256,2.7346,2.7372,2.8057,2.8865,2.8893,2.892,2.8856,2.8636,2.814,2.765,2.7521,2.7478,2.7612,2.7878,2.8564,2.9723,3.0799,3.1818,3.3279,3.4549,3.6042,3.7192,3.7914,3.8619,3.9258,3.9581,3.9993,4.0389,4.0997,4.1424,4.1623,4.2217,4.3067,4.3899,4.4397,4.4862,4.5413,4.5776,4.6135,4.6594,4.7207,4.788,4.837,4.9113,4.9741,5.0276,5.0848,5.1392,5.1778,5.2142,5.2373,5.2373,5.2373,5.2373,5.2445,5.2587,5.2764,5.323,5.3832,5.4362,5.4844,5.5119,5.5349,5.5225,5.5129,5.4936,5.4421,5.3796,5.3242,5.2725,5.2547,5.2365,5.2026,5.2148,5.2225,5.2323,5.2143,5.2048,5.2132,5.2216,5.2282,5.2405,5.2536,5.2787,5.3109,5.3318,5.366,5.3981,5.4146,5.4271,5.434,5.451,5.4692,5.4705,5.4736,5.481,5.4829,5.4767,5.4705,5.4622,5.459,5.4557,5.4491,5.4458,5.4439,5.4453,5.4557,5.4641,2.3692,2.396,2.4388,2.4825,2.5205,2.5752,2.6534,2.7269,2.7652,2.8098,2.8728,2.8984,2.8865,2.8379,2.814,2.765,2.7297,2.7297,2.7409,2.7521,2.7891,2.8498,2.9422,3.0372,3.1526,3.2675,3.3808,3.488,3.6231,3.7441,3.8303,3.8736,3.9258,3.9672,3.9981,4.0389,4.0909,4.1411,4.2105,4.279,4.3341,4.3912,4.4476,4.506,4.57,4.6225,4.6668,4.7207,4.7794,4.8286,4.8965,4.9597,5.0104,5.0631,5.1102,5.1778,5.2168,5.2385,5.239,5.2373,5.2373,5.2445,5.2657,5.3041,5.3584,5.411,5.462,5.4974,5.5354,5.5648,5.5861,5.5766,5.5506,5.5062,5.4491,5.3975,5.3529,5.3367,5.3118,5.2674,5.2353,5.2508,5.2555,5.2373,5.2261,5.2166,5.2161,5.2168,5.2293,5.249,5.2806,5.3127,5.3318,5.3502,5.3794,5.4037,5.42,5.4306,5.4543,5.4673,5.4723,5.4767,5.486,5.4871,5.486,5.4829,5.4817,5.4736,5.4673,5.4641,5.4641,5.4622,5.4603,5.4654,5.4774,2.2951,2.327,2.3991,2.4585,2.5093,2.5846,2.6562,2.7194,2.753,2.802,2.8397,2.8627,2.8379,2.79,2.765,2.7409,2.7081,2.7081,2.7185,2.7418,2.7659,2.814,2.8975,2.9912,3.085,3.1787,3.3243,3.4256,3.5367,3.6677,3.7655,3.8315,3.8945,3.9362,3.9775,4.007,4.0491,4.101,4.171,4.2302,4.2763,4.3423,4.4101,4.4862,4.5504,4.6225,4.6594,4.7207,4.7709,4.8218,4.8733,4.9372,4.9947,5.0416,5.0968,5.1589,5.2105,5.2412,5.2368,5.2373,5.2373,5.2516,5.2781,5.3247,5.3849,5.4303,5.462,5.4992,5.5354,5.5648,5.5861,5.6032,5.5895,5.5596,5.5205,5.4741,5.4332,5.394,5.3638,5.3229,5.2998,5.3068,5.3048,5.2725,5.249,5.2287,5.214,5.2161,5.2282,5.2534,5.2735,5.306,5.3235,5.3381,5.3639,5.3888,5.4092,5.4271,5.451,5.4641,5.4673,5.4736,5.4829,5.486,5.4947,5.5174,5.5314,5.5025,5.4736,5.4767,5.4767,5.4767,5.4767,5.4855,5.5094,2.2208,2.2298,2.3179,2.4178,2.5048,2.5095,2.5961,2.6952,2.7073,2.7547,2.802,2.8011,2.7891,2.7642,2.7521,2.7289,2.7073,2.6822,2.6822,2.7064,2.7194,2.7779,2.8609,2.9558,3.0509,3.1662,3.2799,3.3706,3.4758,3.5931,3.7071,3.7998,3.8648,3.9007,3.9565,4.008,4.0249,4.0771,4.1289,4.1815,4.2311,4.3092,4.3903,4.4724,4.5301,4.588,4.6609,4.7123,4.7583,4.8079,4.8567,4.9128,4.963,5.0182,5.0832,5.1564,5.2114,5.2389,5.2385,5.2373,5.2373,5.2516,5.285,5.3315,5.3849,5.4257,5.462,5.4913,5.5294,5.559,5.5879,5.6032,5.5999,5.595,5.5595,5.5255,5.4792,5.4347,5.3991,5.3725,5.3708,5.3869,5.3851,5.3583,5.324,5.3039,5.2866,5.2821,5.2588,5.2733,5.2708,5.2904,5.3066,5.3258,5.3521,5.3774,5.4073,5.4252,5.4405,5.4472,5.4538,5.4654,5.4786,5.5063,5.5208,5.5503,5.5799,5.5712,5.5492,5.508,5.4985,5.5409,5.5503,5.556,5.5799,2.0982,2.1235,2.1607,2.2606,2.386,2.4363,2.498,2.5847,2.6579,2.7297,2.8011,2.7771,2.765,2.7521,2.7297,2.7056,2.6822,2.67,2.67,2.6822,2.7064,2.7539,2.825,2.8966,2.9912,3.0986,3.2008,3.3027,3.4054,3.5469,3.6493,3.7384,3.8515,3.9484,4.0078,4.03,4.0451,4.0491,4.0952,4.1631,4.2203,4.3098,4.4143,4.5149,4.6121,4.6518,4.6912,4.7362,4.774,4.8001,4.8416,4.8852,4.9439,4.9978,5.0663,5.1506,5.2089,5.2333,5.2368,5.2373,5.2445,5.257,5.2764,5.311,5.3634,5.398,5.435,5.4728,5.5096,5.5455,5.5861,5.5975,5.6014,5.6035,5.591,5.5606,5.5263,5.48,5.4712,5.457,5.4684,5.4793,5.4706,5.4581,5.4203,5.379,5.367,5.3495,5.3279,5.3023,5.3063,5.2988,5.3158,5.3258,5.3481,5.3794,5.411,5.4233,5.4337,5.448,5.4637,5.4641,5.4799,5.5114,5.5637,5.6065,5.6412,5.65,5.6398,5.6114,5.6228,5.655,5.6512,5.6285,5.655,2.0227,2.0482,2.0488,2.1362,2.2731,2.3362,2.3984,2.4857,2.5594,2.6562,2.753,2.728,2.7289,2.7297,2.7185,2.6952,2.67,2.6457,2.6449,2.6571,2.6692,2.7177,2.7779,2.8517,2.9387,3.0272,3.1416,3.2483,3.3655,3.5163,3.6192,3.7223,3.8366,3.9563,4.0193,4.062,4.0631,4.0572,4.0895,4.1697,4.2384,4.3237,4.4253,4.5354,4.6305,4.6928,4.7177,4.7597,4.7909,4.8102,4.837,4.8687,4.9247,4.9773,5.0445,5.134,5.204,5.2366,5.2385,5.2445,5.2445,5.257,5.264,5.2903,5.3298,5.37,5.4093,5.4603,5.4957,5.5319,5.5746,5.5861,5.5918,5.6014,5.6014,5.578,5.5645,5.5318,5.5446,5.5504,5.5494,5.5431,5.5634,5.5472,5.5038,5.4619,5.4269,5.4164,5.4062,5.3787,5.3572,5.3441,5.3329,5.3429,5.3521,5.3888,5.4222,5.4235,5.4378,5.4687,5.4792,5.4891,5.5301,5.5942,5.6427,5.6776,5.7156,5.7485,5.7428,5.7289,5.7327,5.7289,5.7099,5.691,5.7327,2.0106,2.0113,2.0106,2.0856,2.1978,2.2111,2.2863,2.3984,2.4602,2.5464,2.6571,2.6571,2.6813,2.6943,2.6943,2.67,2.6457,2.6205,2.6083,2.6197,2.6205,2.6571,2.7323,2.8082,2.9084,3.0174,3.1127,3.2246,3.3401,3.4677,3.5873,3.695,3.7931,3.9101,3.9609,4.0123,4.0523,4.0836,4.1134,4.1732,4.2512,4.3362,4.4412,4.534,4.6238,4.6889,4.7319,4.7395,4.7689,4.8109,4.8147,4.8552,4.9116,4.9568,5.0352,5.1421,5.2032,5.2349,5.2407,5.239,5.2445,5.257,5.257,5.2781,5.3247,5.3567,5.3898,5.435,5.4807,5.5234,5.5531,5.5822,5.5936,5.5918,5.5975,5.5879,5.5706,5.5666,5.5706,5.5822,5.5918,5.5943,5.6259,5.6364,5.5923,5.5465,5.5021,5.4816,5.4858,5.4716,5.4565,5.4269,5.4093,5.399,5.414,5.4205,5.4351,5.4329,5.4678,5.5197,5.5457,5.5623,5.6127,5.6801,5.7205,5.7479,5.8032,5.8532,5.8413,5.8256,5.7876,5.7744,5.7573,5.7687,5.818,1.9462,1.9462,1.9462,1.9839,2.0462,2.1102,2.1992,2.2863,2.386,2.4857,2.5725,2.597,2.6092,2.6327,2.6449,2.6327,2.597,2.5847,2.5717,2.5847,2.5961,2.6449,2.7116,2.7913,2.8706,2.9729,3.0765,3.1731,3.2945,3.4039,3.4886,3.5886,3.7054,3.8582,3.9918,4.0611,4.0636,4.0708,4.1087,4.1676,4.2328,4.3351,4.4375,4.5344,4.6027,4.656,4.7048,4.705,4.7344,4.7818,4.783,4.8317,4.8903,4.944,5.0149,5.1221,5.2032,5.2366,5.2385,5.2373,5.2445,5.2445,5.2499,5.264,5.2903,5.3179,5.3567,5.4145,5.4724,5.514,5.559,5.5839,5.5954,5.5918,5.5861,5.5764,5.5648,5.5648,5.5706,5.5822,5.5918,5.6402,5.6793,5.7033,5.6762,5.6746,5.6405,5.6048,5.5957,5.5905,5.5752,5.5383,5.5116,5.4866,5.4793,5.4988,5.508,5.5151,5.5634,5.6286,5.6436,5.6455,5.6906,5.7578,5.7871,5.8216,5.8717,5.9176,5.9303,5.9165,5.8767,5.8653,5.8748,5.8919,5.926,1.9072,1.9072,1.9072,1.92,1.9577,2.0214,2.1102,2.1985,2.3106,2.4108,2.498,2.5111,2.5349,2.5709,2.5839,2.5717,2.5488,2.561,2.548,2.5488,2.5717,2.6297,2.6954,2.7641,2.8535,2.9445,3.0222,3.1189,3.239,3.3198,3.3983,3.476,3.5678,3.6991,3.8433,3.9125,3.9758,3.9973,4.0437,4.0979,4.1851,4.2792,4.3773,4.4546,4.5302,4.5982,4.6444,4.6692,4.6894,4.7214,4.7602,4.8095,4.8769,4.9392,4.9961,5.1005,5.1901,5.2251,5.2352,5.2373,5.2373,5.2445,5.2373,5.2516,5.2711,5.3041,5.3737,5.4271,5.4758,5.5549,5.6217,5.6417,5.6556,5.6573,5.6233,5.6152,5.566,5.5719,5.5764,5.5879,5.6162,5.6689,5.7206,5.754,5.7587,5.7747,5.7859,5.7436,5.6977,5.6786,5.6694,5.6353,5.5932,5.5628,5.5628,5.5919,5.5959,5.5956,5.6478,5.7112,5.73,5.7319,5.7826,5.8313,5.8625,5.8936,5.9398,5.9744,5.9663,5.9696,5.962,5.9658,5.9885,5.9904,5.9904,1.9078,1.9078,1.9078,1.909,1.9206,1.9577,2.0342,2.1607,2.223,2.3113,2.3984,2.3984,2.4355,2.4988,2.5357,2.5234,2.5111,2.5365,2.5234,2.5234,2.548,2.6044,2.662,2.73,2.8166,2.913,2.9912,3.0492,3.1724,3.2056,3.2772,3.3524,3.389,3.4848,3.5808,3.6655,3.7781,3.8704,3.9789,4.0262,4.0856,4.1246,4.2169,4.2983,4.3966,4.4757,4.5428,4.5912,4.648,4.6931,4.7404,4.8055,4.8641,4.9137,4.9931,5.0816,5.1754,5.2102,5.2373,5.2373,5.2373,5.2373,5.2373,5.2587,5.2831,5.3107,5.3839,5.4599,5.5279,5.6443,5.7342,5.7593,5.7777,5.7517,5.7074,5.6581,5.5948,5.5771,5.5839,5.6049,5.631,5.6794,5.7455,5.7847,5.8052,5.8152,5.8223,5.8078,5.7638,5.7253,5.7134,5.7051,5.6676,5.6251,5.6407,5.6774,5.6855,5.6818,5.7135,5.7658,5.7865,5.8145,5.8464,5.882,5.9303,5.965,5.9753,5.9853,5.9866,5.9904,5.9904,5.9904,5.9904,5.9904,5.9904,1.8822,1.9096,1.9277,1.9253,1.9218,1.9456,2.0087,2.0856,2.1355,2.1978,2.2738,2.2988,2.3355,2.3984,2.4115,2.4239,2.4487,2.4734,2.4734,2.498,2.5234,2.5829,2.633,2.6859,2.7781,2.84,2.9051,2.9585,3.0257,3.0686,3.0907,3.1492,3.1643,3.2103,3.2636,3.3047,3.5053,3.7041,3.841,3.9125,3.9137,3.9136,4.0131,4.1428,4.2371,4.3198,4.4021,4.4606,4.5174,4.5964,4.6594,4.7321,4.8011,4.8891,4.9963,5.1183,5.1811,5.2175,5.2373,5.2373,5.2373,5.2373,5.2373,5.2516,5.2827,5.3271,5.3971,5.4753,5.5561,5.6628,5.7789,5.8333,5.8544,5.8266,5.777,5.7109,5.6458,5.6091,5.6099,5.6255,5.6582,5.7036,5.7649,5.7969,5.8215,5.8356,5.8443,5.8375,5.8213,5.7829,5.7573,5.7481,5.7486,5.7162,5.7348,5.7702,5.7732,5.7791,5.8035,5.8259,5.8614,5.884,5.9046,5.9251,5.9472,5.9685,5.9853,5.9885,5.9904,5.9904,5.9904,5.9904,5.9904,5.9904,5.9904,1.8758,1.9124,1.9398,1.9428,1.925,1.9271,1.9487,1.9861,2.04,2.0982,2.1481,2.174,2.223,2.2738,2.2988,2.3238,2.3479,2.3984,2.4232,2.4355,2.4726,2.5201,2.5737,2.6229,2.6726,2.735,2.7652,2.7989,2.8754,2.9083,2.9395,2.9269,2.9331,2.9658,3.0138,3.0567,3.1533,3.3665,3.5506,3.6838,3.7019,3.6912,3.8091,3.945,4.0341,4.1414,4.2359,4.2914,4.3899,4.4911,4.5747,4.677,4.7722,4.8984,5.02,5.1333,5.1737,5.2086,5.2302,5.2373,5.2373,5.2373,5.2373,5.2499,5.2724,5.3101,5.3973,5.4805,5.5733,5.669,5.7954,5.8976,5.9041,5.9041,5.8307,5.7632,5.7082,5.6514,5.6506,5.6635,5.6951,5.7388,5.7792,5.8088,5.8331,5.8505,5.8572,5.8529,5.8418,5.8176,5.7949,5.7804,5.8021,5.8086,5.8294,5.833,5.8325,5.8388,5.8633,5.8915,5.9253,5.9327,5.9271,5.9363,5.9526,5.9685,5.9853,5.9885,5.9904,5.9904,5.9904,5.9904,5.9904,5.9904,5.9904,1.8741,1.8947,1.9358,1.937,1.927,1.9041,1.8786,1.8507,1.9432,2.0106,2.0354,2.0482,2.0856,2.1475,2.1734,2.2097,2.2473,2.2981,2.3355,2.3479,2.3728,2.4283,2.4772,2.5148,2.5548,2.5945,2.6176,2.6657,2.7049,2.7433,2.7539,2.728,2.7504,2.7847,2.8086,2.8086,2.8893,3.0338,3.1933,3.3016,3.4599,3.5012,3.5474,3.6916,3.8092,3.9245,4.0351,4.1505,4.2778,4.3923,4.5144,4.6344,4.7904,4.9228,5.0448,5.1167,5.1631,5.2013,5.2302,5.2373,5.2373,5.2373,5.2373,5.2499,5.2707,5.3131,5.4022,5.4873,5.5701,5.6707,5.7954,5.8932,5.9324,5.9112,5.8566,5.7868,5.7281,5.6825,5.6545,5.6689,5.7036,5.7486,5.7886,5.8197,5.8418,5.859,5.8675,5.8614,5.8529,5.8356,5.8268,5.8133,5.8249,5.8425,5.8431,5.8508,5.8769,5.8926,5.9081,5.9196,5.9272,5.9346,5.9383,5.9455,5.9562,5.9719,5.982,5.9853,5.9904,5.9904,5.9904,5.9904,5.9904,5.9904,5.9904,1.8239,1.8582,1.8899,1.8887,1.8898,1.8668,1.8194,1.7753,1.7956,1.8431,1.9078,1.9328,1.9705,2.0081,2.0335,2.0703,2.1082,2.1594,2.2104,2.2348,2.2724,2.3112,2.3769,2.3791,2.4254,2.4895,2.5092,2.518,2.5589,2.5794,2.5823,2.5594,2.5692,2.5676,2.6156,2.6042,2.6545,2.7694,2.837,2.9992,3.1923,3.3027,3.3871,3.5277,3.6511,3.7559,3.8785,4.0223,4.1565,4.2778,4.4219,4.5958,4.8019,4.9486,5.0448,5.1135,5.154,5.2013,5.223,5.2373,5.2373,5.2373,5.2445,5.2499,5.279,5.3332,5.4054,5.4856,5.575,5.6755,5.7751,5.8712,5.943,5.9035,5.8677,5.8071,5.7484,5.708,5.66,5.6847,5.7138,5.7534,5.7904,5.8242,5.8462,5.859,5.8675,5.8656,5.8572,5.8443,5.8443,5.8356,5.8381,5.8468,5.8529,5.8614,5.8821,5.8942,5.9042,5.9158,5.9272,5.9309,5.9383,5.9491,5.9616,5.9719,5.982,5.9904,5.9904,5.9904,5.9904,5.9904,5.9904,5.9904,5.9904,1.8027,1.8192,1.8423,1.839,1.8077,1.7868,1.7423,1.6771,1.6665,1.6753,1.7141,1.7781,1.8291,1.8664,1.892,1.9182,1.9559,1.9941,2.0316,2.0696,2.1096,2.1423,2.1926,2.225,2.2405,2.2851,2.3377,2.3627,2.3888,2.4011,2.3991,2.3984,2.3728,2.372,2.4085,2.4092,2.4479,2.5528,2.5806,2.7073,2.93,3.0325,3.1751,3.317,3.4382,3.5504,3.6708,3.8093,3.9511,4.1169,4.2819,4.5347,4.7365,4.8825,4.9928,5.0827,5.1483,5.1941,5.2158,5.2302,5.2373,5.2373,5.2373,5.2428,5.2516,5.3044,5.3532,5.4262,5.5355,5.6356,5.7122,5.8008,5.8644,5.8685,5.8196,5.7647,5.7186,5.6778,5.66,5.6794,5.7138,5.7504,5.7904,5.8197,5.8418,5.8529,5.8614,5.8698,5.8614,5.8553,5.8529,5.8529,5.8529,5.8511,5.8511,5.8614,5.8758,5.8902,5.8964,5.912,5.9272,5.929,5.9327,5.9491,5.965,5.9719,5.9786,5.9904,5.9904,5.9904,5.9904,5.9904,5.9904,5.9904,5.9904,1.7648,1.7702,1.7899,1.755,1.6964,1.6655,1.6277,1.5555,1.5269,1.5052,1.4791,1.5959,1.6602,1.712,1.7243,1.7512,1.777,1.8145,1.8396,1.878,1.9036,1.9462,1.9845,2.01,2.0406,2.0922,2.157,2.1949,2.2279,2.2223,2.2223,2.223,2.1978,2.1853,2.1978,2.2097,2.2591,2.3142,2.357,2.4285,2.5877,2.7604,2.9362,3.0895,3.1993,3.2902,3.4042,3.5549,3.6994,3.9233,4.1585,4.4356,4.6539,4.8038,4.9346,5.0326,5.1252,5.1672,5.2013,5.2158,5.223,5.2302,5.2373,5.2373,5.2445,5.2727,5.3144,5.3821,5.4847,5.5623,5.6369,5.713,5.7806,5.8081,5.759,5.7257,5.6866,5.6582,5.6653,5.6794,5.7138,5.7504,5.7792,5.8152,5.8375,5.8486,5.8553,5.8656,5.8656,5.8656,5.8614,5.8614,5.8614,5.8572,5.8553,5.8614,5.8758,5.8881,5.8982,5.912,5.9215,5.9253,5.9364,5.9526,5.965,5.9719,5.9786,5.9904,5.9904,5.9904,5.9904,5.9904,5.9904,5.9904,5.9904,1.6552,1.6576,1.6616,1.6261,1.5706,1.5386,1.4874,1.4204,1.3906,1.3477,1.3375,1.3486,1.4128,1.5453,1.5699,1.5824,1.5954,1.6203,1.6597,1.699,1.698,1.7496,1.7888,1.8139,1.8652,1.9297,1.9941,2.0456,2.0576,2.0583,2.0583,2.0583,2.0202,2.0202,2.0456,2.0676,2.0843,2.1243,2.1582,2.2241,2.3037,2.4992,2.7234,2.8547,2.9478,3.0539,3.1818,3.3732,3.535,3.7568,4.0414,4.3314,4.5492,4.7111,4.8545,4.9777,5.072,5.1385,5.1639,5.1924,5.2013,5.2158,5.2158,5.223,5.2373,5.2499,5.292,5.3332,5.4156,5.466,5.5407,5.6352,5.7011,5.6861,5.6555,5.6631,5.6527,5.6564,5.6653,5.6847,5.7156,5.7437,5.7708,5.807,5.8411,5.8523,5.8572,5.8656,5.8656,5.8656,5.8698,5.8656,5.8656,5.8656,5.8656,5.8656,5.8758,5.8881,5.8982,5.912,5.9234,5.9253,5.9383,5.9526,5.9631,5.9666,5.9786,5.9904,5.9904,5.9904,5.9904,5.9904,5.9904,5.9885,5.9918]}]]